Date StartTime U_cm/s V_cm/s W_cm/s Ustd_cm/s Vstd_cm/s Wstd_cm/s Uvar_(cm/s)^2 Vvar_(cm/s)^2 Wvar_(cm/s)^2 KE_(m/s)^2 TurbulentKE_(m/s)^2 HorizWindSpeed_cm/s FrictionSpeec_cm/s DragCoef SpeedOfSound_m/s SonicTemperature_C Pressure_mb 
12/05/2013  00:00:00       71.162       72.494       -5.402       48.646       48.995       31.215     2366.388     2400.477      974.347        0.804        0.287      101.585       27.055        0.071      328.319       -5.653      859.642
12/05/2013  00:01:00       44.095       97.106      -12.530       43.242       60.015       30.555     1869.887     3601.774      933.584        0.897        0.320      106.649       35.391        0.110      328.317       -5.656      859.644
12/05/2013  00:02:00       20.048      122.103      -17.907       25.247       37.235       18.949      637.424     1386.470      359.064        0.901        0.119      123.738       17.924        0.021      328.307       -5.672      859.634
12/05/2013  00:03:00       -0.139      142.404      -19.338       31.896       37.723       15.198     1017.377     1423.057      230.977        1.166        0.134      142.404        6.440        0.002      328.328       -5.638      859.619
12/05/2013  00:04:00      -27.939      135.713      -11.397       24.492       37.692       13.865      599.864     1420.678      192.248        1.077        0.111      138.559       13.124        0.009      328.336       -5.625      859.604
12/05/2013  00:05:00      -48.387       72.643      -13.819       37.089       30.941       17.801     1375.596      957.341      316.861        0.523        0.132       87.282       14.702        0.028      328.369       -5.572      859.590
12/05/2013  00:06:00      -61.506       87.232      -27.627       15.919       27.145       12.146      253.399      736.846      147.522        0.665        0.057      106.735       10.268        0.009      328.267       -5.739      859.581
12/05/2013  00:07:00      -34.385       14.221        3.355       22.120       22.339       15.851      489.281      499.042      251.241        0.132        0.062       37.210        7.881        0.045      328.378       -5.557      859.573
12/05/2013  00:08:00        1.628       94.988       -8.020       39.993       56.219       26.903     1599.425     3160.544      723.776        0.729        0.274       95.002       28.643        0.091      328.373       -5.565      859.570
12/05/2013  00:09:00      -39.419      100.791       -4.480       29.752       45.865       26.417      885.202     2103.633      697.865        0.771        0.184      108.225       26.554        0.060      328.455       -5.432      859.576
12/05/2013  00:10:00      -49.384       85.838      -14.654       25.145       21.713       17.214      632.266      471.455      296.327        0.571        0.070       99.030       12.620        0.016      328.340       -5.618      859.585
12/05/2013  00:11:00      -11.752       56.174       -2.447       26.034       33.177       17.388      677.759     1100.712      302.347        0.269        0.104       57.390       15.014        0.068      328.416       -5.495      859.595
12/05/2013  00:12:00       27.573       32.399       15.375       29.519       29.262       22.843      871.358      856.241      521.787        0.215        0.112       42.544        9.215        0.047      328.411       -5.503      859.599
12/05/2013  00:13:00       49.759       96.639       -6.797       33.965       66.699       37.863     1153.598     4448.760     1433.636        0.945        0.352      108.697       39.303        0.131      328.270       -5.733      859.598
12/05/2013  00:14:00        0.230       42.872       -3.316       27.619       45.187       21.049      762.824     2041.908      443.067        0.255        0.162       42.872       24.085        0.316      328.275       -5.725      859.589
12/05/2013  00:15:00       -9.925        9.916       -6.072       24.110       13.090       12.885      581.278      171.359      166.033        0.058        0.046       14.030        7.553        0.290      328.378       -5.555      859.569
12/05/2013  00:16:00        6.710       20.425       -4.619       14.659       11.098       10.579      214.883      123.167      111.908        0.047        0.022       21.499        4.377        0.041      328.350       -5.604      859.552
12/05/2013  00:17:00        7.234       58.250       -5.270       17.954       29.051       13.310      322.334      843.961      177.166        0.241        0.067       58.698        7.728        0.017      328.305       -5.677      859.552
12/05/2013  00:18:00       18.262       42.535      -11.071       11.487       27.502       10.948      131.948      756.365      119.848        0.164        0.050       46.289        6.556        0.020      328.244       -5.776      859.552
12/05/2013  00:19:00       11.678       12.471        1.506       10.263       14.389       12.699      105.324      207.047      161.267        0.038        0.024       17.085       11.959        0.490      328.281       -5.715      859.551
12/05/2013  00:20:00       22.982       -8.577       21.254       24.570       24.795       12.997      603.675      614.804      168.911        0.122        0.069       24.530       10.858        0.196      328.307       -5.673      859.546
12/05/2013  00:21:00       16.202        1.456       20.984       17.757       19.922       12.162      315.319      396.897      147.922        0.078        0.043       16.267        8.342        0.263      328.366       -5.577      859.538
12/05/2013  00:22:00       17.435       35.232       -5.230       21.588       13.577       15.148      466.044      184.348      229.461        0.123        0.044       39.310       11.580        0.087      328.322       -5.649      859.536
12/05/2013  00:23:00       29.128       72.776       -3.611       17.791       41.844       23.567      316.533     1750.887      555.390        0.439        0.131       78.389       28.285        0.130      328.292       -5.697      859.523
12/05/2013  00:24:00       32.280       40.868        5.713       22.424       31.594       23.333      502.856      998.159      544.435        0.239        0.102       52.079       20.766        0.159      328.307       -5.673      859.516
12/05/2013  00:25:00       47.286       59.747       -3.727       22.600       29.543       25.545      510.755      872.805      652.567        0.393        0.102       76.195       20.569        0.073      328.261       -5.746      859.511
12/05/2013  00:26:00       49.539       90.508      -17.442       28.772       48.406       27.893      827.801     2343.179      778.008        0.745        0.197      103.179       23.110        0.050      328.212       -5.827      859.501
12/05/2013  00:27:00       68.154       72.971        8.052       45.208       40.066       29.093     2043.733     1605.247      846.431        0.726        0.225       99.848       21.876        0.048      328.260       -5.748      859.494
12/05/2013  00:28:00       34.275       71.036        6.728       42.294       52.361       41.650     1788.819     2741.635     1734.692        0.626        0.313       78.873       35.741        0.205      328.226       -5.804      859.483
12/05/2013  00:29:00       18.148       76.245      -11.257       28.387       54.170       26.888      805.800     2934.409      722.955        0.537        0.223       78.375       30.052        0.147      328.200       -5.847      859.478
12/05/2013  00:30:00       21.160       60.688       -5.633       32.186       26.919       21.321     1035.922      724.612      454.601        0.319        0.111       64.271       18.874        0.086      328.216       -5.820      859.468
12/05/2013  00:31:00       22.181       32.571       -0.477       29.917       22.468       17.977      895.019      504.799      323.174        0.164        0.086       39.407       11.698        0.088      328.285       -5.709      859.457
12/05/2013  00:32:00      -11.899       67.722       -2.139       20.218       49.646       18.634      408.759     2464.699      347.207        0.398        0.161       68.760       26.080        0.144      328.319       -5.654      859.449
12/05/2013  00:33:00       -8.004       86.818       -5.229       17.010       34.254       18.926      289.343     1173.324      358.203        0.472        0.091       87.186       16.259        0.035      328.239       -5.784      859.444
12/05/2013  00:34:00      -34.513       62.611       -5.942       25.466       30.601       22.280      648.535      936.450      496.399        0.361        0.104       71.494       17.982        0.063      328.276       -5.722      859.432
12/05/2013  00:35:00      -58.296       62.419      -15.545       25.386       26.015       18.283      644.469      676.771      334.268        0.460        0.083       85.408       15.353        0.032      328.272       -5.729      859.428
12/05/2013  00:36:00      -24.138       93.510      -12.910       52.830       34.514       24.010     2790.967     1191.250      576.461        0.703        0.228       96.575       15.867        0.027      328.286       -5.708      859.425
12/05/2013  00:37:00     -112.713       89.324      -26.222       23.051       26.046       15.536      531.362      678.399      241.370        1.141        0.073      143.816       14.768        0.011      328.193       -5.858      859.421
12/05/2013  00:38:00      -57.692       47.768      -12.802       26.084       23.406       14.456      680.356      547.856      208.989        0.361        0.072       74.901       10.672        0.020      328.297       -5.689      859.422
12/05/2013  00:39:00      -68.301       54.965      -13.549       21.216       26.475       13.518      450.108      700.934      182.739        0.460        0.067       87.671       13.512        0.024      328.290       -5.700      859.414
12/05/2013  00:40:00      -88.363       80.799      -17.444       26.424       35.134       20.098      698.247     1234.376      403.912        0.849        0.117      119.735       14.529        0.015      328.268       -5.736      859.413
12/05/2013  00:41:00      -71.155       97.818      -27.524       25.035       32.387       16.298      626.764     1048.943      265.636        0.866        0.097      120.960       13.430        0.012      328.167       -5.900      859.414
12/05/2013  00:42:00      -80.680       19.927      -12.880       35.607       27.234       12.573     1267.869      741.705      158.089        0.462        0.108       83.104        3.464        0.002      328.237       -5.786      859.412
12/05/2013  00:43:00      -89.886       72.036      -23.101       16.874       24.298       14.403      284.728      590.411      207.443        0.744        0.054      115.190       11.899        0.011      328.216       -5.821      859.407
12/05/2013  00:44:00      -74.581       47.505      -13.674       16.556       25.646       14.680      274.090      657.726      215.516        0.458        0.057       88.426        7.560        0.007      328.247       -5.770      859.398
12/05/2013  00:45:00      -79.944       78.096      -27.120       21.558       35.176       14.852      464.745     1237.377      220.592        0.757        0.096      111.759       10.318        0.009      328.233       -5.794      859.379
12/05/2013  00:46:00      -52.350        9.607       -7.229       25.685       23.604       18.141      659.713      557.155      329.094        0.222        0.077       53.224       13.885        0.068      328.214       -5.824      859.361
12/05/2013  00:47:00      -50.902       67.242      -14.524       30.898       35.325       19.997      954.700     1247.853      399.887        0.496        0.130       84.336       24.715        0.086      328.278       -5.720      859.340
12/05/2013  00:48:00      -43.297       12.970        4.677       17.470       15.694       13.561      305.186      246.308      183.903        0.140        0.037       45.198        7.760        0.029      328.213       -5.825      859.316
12/05/2013  00:49:00       -0.903        9.911        5.685       17.775       13.554       12.046      315.940      183.699      145.105        0.039        0.032        9.952        7.016        0.497      328.325       -5.644      859.299
12/05/2013  00:50:00       -1.306       53.046        3.002       43.364       37.624       26.022     1880.463     1415.557      677.152        0.340        0.199       53.062       20.040        0.143      328.357       -5.590      859.293
12/05/2013  00:51:00       27.938       32.640        1.052       33.352       28.363       21.974     1112.379      804.443      482.865        0.212        0.120       42.964       17.971        0.175      328.235       -5.789      859.301
12/05/2013  00:52:00       25.811      108.778      -13.250       22.499       39.530       19.900      506.226     1562.597      396.022        0.757        0.123      111.798       19.598        0.031      328.163       -5.907      859.309
12/05/2013  00:53:00       24.440       58.396        5.353       22.055       44.189       26.314      486.434     1952.703      692.415        0.358        0.157       63.304       26.352        0.173      328.166       -5.902      859.324
12/05/2013  00:54:00       35.403       38.535        1.566       37.661       32.361       24.382     1418.319     1047.265      594.468        0.290        0.153       52.329       19.656        0.141      328.184       -5.875      859.324
12/05/2013  00:55:00       47.540       54.045       -5.502       27.956       23.961       23.116      781.517      574.112      534.332        0.355        0.094       71.979       18.994        0.070      328.163       -5.908      859.328
12/05/2013  00:56:00       48.811       39.941        4.521       48.500       27.707       21.606     2352.263      767.657      466.838        0.379        0.179       63.070       12.794        0.041      328.162       -5.908      859.334
12/05/2013  00:57:00       26.145       56.075       -1.253       25.842       35.010       22.088      667.806     1225.692      487.893        0.310        0.119       61.870       24.627        0.158      328.163       -5.909      859.338
12/05/2013  00:58:00       31.313       48.382       -1.604       30.315       29.179       13.455      919.020      851.433      181.050        0.264        0.098       57.631        9.503        0.027      328.167       -5.901      859.351
12/05/2013  00:59:00       28.459       33.758       -5.391       29.969       20.834       16.905      898.167      434.042      285.793        0.180        0.081       44.153       13.188        0.089      328.194       -5.858      859.365
12/05/2013  01:00:00       42.138       25.382        6.443       28.552       21.491       19.482      815.231      461.870      379.534        0.206        0.083       49.192       13.700        0.078      328.228       -5.801      859.375
12/05/2013  01:01:00       46.997       27.518        1.093       25.404       18.103       19.343      645.375      327.723      374.166        0.216        0.067       54.461       13.560        0.062      328.258       -5.751      859.380
12/05/2013  01:02:00       22.733       48.418        1.004       34.082       24.349       23.121     1161.562      592.885      534.564        0.258        0.114       53.489       13.819        0.067      328.204       -5.840      859.370
12/05/2013  01:03:00       72.776       32.818        7.120       34.086       23.622       22.073     1161.826      557.984      487.237        0.432        0.110       79.833       18.010        0.051      328.214       -5.826      859.361
12/05/2013  01:04:00       87.734       44.298        9.039       44.262       28.746       26.666     1959.132      826.319      711.075        0.662        0.175       98.283       18.821        0.037      328.194       -5.855      859.349
12/05/2013  01:05:00       90.713       65.806        8.946       38.499       37.023       28.647     1482.210     1370.678      820.666        0.816        0.184      112.068       22.337        0.040      328.103       -6.006      859.346
12/05/2013  01:06:00      114.790       71.882        6.710       47.730       30.900       25.610     2278.112      954.822      655.888        1.114        0.194      135.439       12.576        0.009      328.078       -6.047      859.341
12/05/2013  01:07:00      165.917      101.431       10.265       36.295       37.258       33.352     1317.361     1388.171     1112.356        2.087        0.191      194.465       17.111        0.008      327.940       -6.269      859.348
12/05/2013  01:08:00      113.075       78.653        4.631       34.636       33.935       24.392     1199.643     1151.591      594.992        1.097        0.147      137.740       11.862        0.007      327.997       -6.179      859.364
12/05/2013  01:09:00       87.860       65.759       13.989       57.404       40.687       27.590     3295.216     1655.426      761.221        0.897        0.286      109.744       19.347        0.031      328.015       -6.147      859.385
12/05/2013  01:10:00       84.564       45.067       11.356       37.397       31.887       31.985     1398.557     1016.751     1023.060        0.637        0.172       95.823       15.609        0.027      328.036       -6.115      859.416
12/05/2013  01:11:00       86.010       57.358        5.172       58.632       41.567       25.374     3437.659     1727.846      643.829        0.826        0.290      103.382       16.796        0.026      327.978       -6.208      859.430
12/05/2013  01:12:00       62.317       89.585       -8.120       40.552       49.282       34.015     1644.443     2428.690     1157.026        0.860        0.262      109.128       30.502        0.078      327.964       -6.231      859.434
12/05/2013  01:13:00       41.149       81.388       -3.662       44.102       54.105       30.894     1945.016     2927.338      954.451        0.708        0.291       91.199       35.922        0.155      327.958       -6.242      859.428
12/05/2013  01:14:00       38.551      121.751      -15.419       31.114       41.366       31.292      968.093     1711.140      979.207        1.010        0.183      127.709       22.240        0.030      327.948       -6.256      859.426
12/05/2013  01:15:00       32.902       50.397       -2.424       35.311       40.393       29.055     1246.844     1631.573      844.187        0.367        0.186       60.186       25.370        0.178      327.975       -6.215      859.425
12/05/2013  01:16:00       17.920      110.001       -8.364       40.790       46.767       26.384     1663.852     2187.136      696.102        0.852        0.227      111.451       20.998        0.035      328.014       -6.150      859.433
12/05/2013  01:17:00       29.142       92.395      -16.155       23.380       29.180       18.812      546.635      851.497      353.874        0.570        0.088       96.882       15.828        0.027      328.019       -6.141      859.420
12/05/2013  01:18:00        0.457      126.610      -19.277       22.343       28.924       15.095      499.226      836.609      227.872        0.898        0.078      126.611       11.859        0.009      328.014       -6.152      859.409
12/05/2013  01:19:00       20.215      109.163      -15.935       23.469       55.065       26.206      550.775     3032.122      686.777        0.842        0.213      111.019       33.124        0.089      328.054       -6.084      859.409
12/05/2013  01:20:00       17.714       87.173       -8.555       26.774       30.031       18.083      716.869      901.872      326.984        0.497        0.097       88.954       15.572        0.031      328.072       -6.056      859.418
12/05/2013  01:21:00       37.444      101.253      -12.830       24.363       29.654       21.473      593.577      879.367      461.103        0.688        0.097      107.955       19.084        0.031      328.024       -6.133      859.429
12/05/2013  01:22:00        3.277       98.091       -8.321       25.288       28.827       24.382      639.489      830.969      594.460        0.588        0.103       98.146       20.605        0.044      328.032       -6.121      859.444
12/05/2013  01:23:00       -6.899      109.495      -11.798       32.842       37.702       17.131     1078.624     1421.438      293.486        0.748        0.140      109.712       19.024        0.030      328.088       -6.028      859.456
12/05/2013  01:24:00       -1.516      135.933      -16.111       18.073       19.759       14.476      326.651      390.399      209.551        0.983        0.046      135.942        5.839        0.002      328.079       -6.046      859.461
12/05/2013  01:25:00       -5.122      144.424      -18.257       30.309       32.051       21.510      918.613     1027.267      462.691        1.181        0.120      144.515       20.900        0.021      328.119       -5.978      859.455
12/05/2013  01:26:00      -13.987      139.100      -20.605       21.289       23.557       13.415      453.205      554.931      179.959        1.058        0.059      139.802        8.309        0.004      328.069       -6.060      859.441
12/05/2013  01:27:00       -7.677      134.829      -11.307       14.749       22.242       17.075      217.523      494.729      291.540        0.968        0.050      135.047       10.932        0.007      328.047       -6.096      859.425
12/05/2013  01:28:00       21.452       45.626        1.062       25.541       37.665       24.965      652.355     1418.682      623.261        0.262        0.135       50.417       22.550        0.200      328.122       -5.974      859.417
12/05/2013  01:29:00      -24.967      140.759      -20.350       18.574       28.900       15.084      344.996      835.197      227.528        1.113        0.070      142.956       12.286        0.007      328.128       -5.963      859.420
12/05/2013  01:30:00      -23.252      119.381      -16.770       37.984       37.092       18.890     1442.812     1375.808      356.849        0.912        0.159      121.625       17.037        0.020      328.180       -5.879      859.430
12/05/2013  01:31:00      -11.874      152.070      -20.039       23.367       38.291       20.403      546.014     1466.213      416.277        1.305        0.121      152.533       17.352        0.013      328.128       -5.965      859.442
12/05/2013  01:32:00      -34.047      174.192      -18.215       25.405       29.214       15.873      645.416      853.450      251.967        1.679        0.088      177.488       10.930        0.004      328.027       -6.129      859.451
12/05/2013  01:33:00      -50.203      139.813      -16.872       27.739       30.908       22.049      769.448      955.328      486.158        1.228        0.111      148.553       13.767        0.009      328.278       -5.721      859.462
12/05/2013  01:34:00      -56.981      102.660      -11.833       46.927       50.741       26.154     2202.162     2574.669      684.007        0.969        0.273      117.413       20.964        0.032      328.201       -5.847      859.472
12/05/2013  01:35:00      -64.259      127.235      -18.820       36.652       42.978       23.549     1343.379     1847.070      554.536        1.221        0.187      142.541       23.807        0.028      328.227       -5.803      859.463
12/05/2013  01:36:00      -94.599      161.629      -24.284       33.998       42.283       24.996     1155.860     1787.811      624.821        1.961        0.178      187.278       14.803        0.006      328.145       -5.938      859.457
12/05/2013  01:37:00      -95.960      157.363      -28.162       33.757       37.655       27.025     1139.563     1417.865      730.360        1.903        0.164      184.313       20.651        0.013      328.048       -6.095      859.446
12/05/2013  01:38:00      -33.157       99.840       -6.888       35.122       57.330       28.766     1233.538     3286.745      827.455        0.823        0.267      105.202       30.182        0.082      328.214       -5.825      859.442
12/05/2013  01:39:00      -11.318      115.273       -6.429       29.946       37.998       20.891      896.769     1443.852      436.418        0.812        0.139      115.827       15.851        0.019      328.141       -5.942      859.443
12/05/2013  01:40:00      -19.077      221.630      -26.619       22.796       35.300       16.571      519.653     1246.111      274.597        2.612        0.102      222.450       10.560        0.002      327.952       -6.253      859.431
12/05/2013  01:41:00      -28.688      157.635      -15.202       26.697       38.651       23.173      712.710     1493.894      537.007        1.432        0.137      160.224       18.158        0.013      328.058       -6.077      859.431
12/05/2013  01:42:00      -19.432      148.784      -14.540       25.547       50.052       22.870      652.642     2505.165      523.045        1.320        0.184      150.048       24.878        0.027      328.031       -6.122      859.426
12/05/2013  01:43:00      -22.076      148.431       -5.639       32.153       52.565       25.902     1033.792     2763.064      670.939        1.351        0.223      150.063       28.587        0.036      328.011       -6.154      859.429
12/05/2013  01:44:00      -21.759      179.144      -16.389       21.136       30.685       16.838      446.735      941.568      283.531        1.725        0.084      180.460       12.596        0.005      327.927       -6.292      859.440
12/05/2013  01:45:00      -27.180      157.033      -18.557       32.159       43.296       21.424     1034.174     1874.519      459.006        1.455        0.168      159.368       11.762        0.005      328.088       -6.029      859.453
12/05/2013  01:46:00      -33.586      180.565      -17.713       23.688       27.016       20.083      561.107      729.885      403.324        1.787        0.085      183.662       14.870        0.007      327.924       -6.298      859.445
12/05/2013  01:47:00      -15.841      169.434      -15.110       27.726       46.742       21.987      768.726     2184.805      483.414        1.631        0.172      170.173       25.715        0.023      327.892       -6.350      859.424
12/05/2013  01:48:00      -42.965       96.770       -8.866       35.600       63.839       25.526     1267.365     4075.432      651.584        0.864        0.300      105.879       28.753        0.074      328.083       -6.038      859.411
12/05/2013  01:49:00      -67.737       73.351      -15.092       39.437       36.785       25.645     1555.298     1353.106      657.665        0.688        0.178       99.843       24.466        0.060      328.003       -6.167      859.401
12/05/2013  01:50:00      -73.209       53.199      -16.620       22.685       32.771       19.318      514.622     1073.959      373.202        0.521        0.098       90.496       12.178        0.018      327.975       -6.213      859.418
12/05/2013  01:51:00      -60.357        6.481       -8.907       30.440       41.671       17.600      926.574     1736.473      309.752        0.337        0.149       60.704       11.881        0.038      328.038       -6.110      859.430
12/05/2013  01:52:00      -32.400       28.409      -16.557       36.544       28.021       20.704     1335.495      785.175      428.660        0.234        0.127       43.091        4.678        0.012      327.944       -6.263      859.447
12/05/2013  01:53:00       36.293       15.045        6.141       26.624       25.824       22.654      708.825      666.888      513.195        0.173        0.094       39.288       10.905        0.077      328.081       -6.041      859.456
12/05/2013  01:54:00      -30.542       61.486        6.061       42.598       58.427       31.264     1814.626     3413.772      977.419        0.548        0.310       68.654       31.932        0.216      327.979       -6.208      859.475
12/05/2013  01:55:00      -26.563       68.889       -0.628       27.093       35.391       20.570      734.039     1252.547      423.139        0.393        0.120       73.833       17.582        0.057      327.989       -6.190      859.495
12/05/2013  01:56:00       20.123       43.594       14.573       28.943       26.986       28.366      837.685      728.222      804.650        0.244        0.119       48.014       12.569        0.069      327.954       -6.250      859.518
12/05/2013  01:57:00       40.375       36.055       22.914       41.086       18.610       26.000     1688.060      346.314      675.974        0.308        0.136       54.131       25.687        0.225      327.961       -6.234      859.529
12/05/2013  01:58:00       95.877       33.947        9.648       47.748       33.975       32.130     2279.893     1154.294     1032.309        0.745        0.223      101.709       23.476        0.053      327.842       -6.430      859.534
12/05/2013  01:59:00      129.636       68.745        2.834       45.103       31.480       25.885     2034.241      991.004      670.025        1.262        0.185      146.735       18.494        0.016      327.738       -6.599      859.542
12/05/2013  02:00:00       56.492       55.597       -4.137       58.962       48.102       30.637     3476.517     2313.811      938.595        0.651        0.336       79.261       28.602        0.130      327.741       -6.594      859.543
12/05/2013  02:01:00        8.784       92.231      -12.904       23.425       41.522       18.741      548.734     1724.087      351.234        0.569        0.131       92.648       18.773        0.041      327.713       -6.639      859.541
12/05/2013  02:02:00       25.796       97.001      -15.798       30.073       41.633       26.989      904.360     1733.297      728.393        0.684        0.168      100.373       21.784        0.047      327.681       -6.692      859.536
12/05/2013  02:03:00       72.386       42.097       -0.400       22.170       22.692       19.887      491.521      514.934      395.491        0.421        0.070       83.737       13.007        0.024      327.674       -6.704      859.532
12/05/2013  02:04:00       43.633       21.274       -3.457       24.841       23.626       17.181      617.094      558.169      295.197        0.192        0.074       48.543       16.674        0.118      327.756       -6.571      859.534
12/05/2013  02:05:00       32.813       18.060       -1.214       16.550       26.954       12.637      273.907      726.545      159.694        0.128        0.058       37.455       10.238        0.075      327.813       -6.477      859.535
12/05/2013  02:06:00       27.422       88.393      -16.911       19.251       41.221       15.209      370.608     1699.131      231.314        0.558        0.115       92.549       13.139        0.020      327.731       -6.611      859.548
12/05/2013  02:07:00        9.449       33.362       12.757       28.560       28.688       21.439      815.648      822.992      459.629        0.173        0.105       34.674       18.057        0.271      327.816       -6.472      859.556
12/05/2013  02:08:00      -24.488      147.623      -12.282       20.136       30.785       20.229      405.472      947.698      409.218        1.215        0.088      149.640        8.653        0.003      327.843       -6.429      859.556
12/05/2013  02:09:00      -40.198      103.741      -11.080       35.446       43.570       23.472     1256.438     1898.336      550.956        0.810        0.185      111.257       28.327        0.065      327.759       -6.565      859.553
12/05/2013  02:10:00      -92.555      128.499      -31.695       33.231       39.989       18.577     1104.286     1599.159      345.122        1.457        0.152      158.361       18.695        0.014      327.763       -6.559      859.548
12/05/2013  02:11:00      -20.180      118.360      -14.314       34.319       45.420       23.514     1177.826     2062.955      552.890        0.921        0.190      120.068       20.519        0.029      327.855       -6.408      859.543
12/05/2013  02:12:00      -46.364      136.760      -16.883       47.191       46.586       24.574     2226.973     2170.238      603.880        1.307        0.250      144.405       23.357        0.026      327.802       -6.495      859.530
12/05/2013  02:13:00      -23.778      153.810      -17.196       37.540       42.249       27.033     1409.245     1784.975      730.792        1.422        0.196      155.637       22.171        0.020      327.731       -6.611      859.527
12/05/2013  02:14:00      -30.563      176.321      -22.071       23.266       35.924       18.207      541.289     1290.518      331.485        1.734        0.108      178.950       16.239        0.008      327.638       -6.763      859.521
12/05/2013  02:15:00       -8.175      118.366      -13.626       21.318       26.033       16.519      454.444      677.710      272.867        0.783        0.070      118.648        5.399        0.002      327.660       -6.726      859.513
12/05/2013  02:16:00      -21.335      142.859      -16.258       21.782       26.302       17.035      474.464      691.790      290.185        1.129        0.073      144.444       10.402        0.005      327.627       -6.779      859.504
12/05/2013  02:17:00       -8.907      115.146       -3.657       30.647       31.952       25.509      939.238     1020.918      650.699        0.798        0.131      115.490       20.260        0.031      327.785       -6.523      859.496
12/05/2013  02:18:00      -11.412      143.723      -11.217       27.187       33.523       27.414      739.141     1123.781      751.514        1.176        0.131      144.175       21.054        0.021      327.717       -6.634      859.484
12/05/2013  02:19:00      -18.649      151.085      -16.616       19.658       43.142       24.002      386.426     1861.221      576.116        1.314        0.141      152.232       19.836        0.017      327.717       -6.634      859.467
12/05/2013  02:20:00      -65.904       66.688       -8.775       43.386       34.820       28.176     1882.386     1212.415      793.869        0.638        0.194       93.758       20.055        0.046      327.815       -6.475      859.461
12/05/2013  02:21:00      -14.687       96.252       -3.710       37.210       53.899       23.113     1384.610     2905.114      534.219        0.716        0.241       97.366       23.141        0.056      327.786       -6.522      859.461
12/05/2013  02:22:00      -69.407       79.375      -13.229       34.169       40.756       22.391     1167.532     1661.015      501.371        0.731        0.166      105.440       21.354        0.041      327.750       -6.579      859.467
12/05/2013  02:23:00       -8.235       54.145        6.378       27.814       35.669       21.773      773.612     1272.260      474.047        0.278        0.126       54.767       23.016        0.177      327.898       -6.339      859.480
12/05/2013  02:24:00      -49.180       25.256        1.795       29.773       22.057       20.772      886.430      486.533      431.485        0.243        0.090       55.286       19.066        0.119      327.820       -6.467      859.497
12/05/2013  02:25:00      -11.728       49.196       -7.346       29.595       35.594       17.917      875.855     1266.922      321.009        0.254        0.123       50.575        8.697        0.030      327.865       -6.394      859.508
12/05/2013  02:26:00      -15.031       86.775       -1.268       21.603       30.669       25.600      466.711      940.593      655.368        0.491        0.103       88.067       24.236        0.076      327.841       -6.431      859.506
12/05/2013  02:27:00       -6.418       65.859      -16.862       11.927       19.275        9.206      142.251      371.517       84.745        0.263        0.030       66.171        3.245        0.002      327.709       -6.644      859.496
12/05/2013  02:28:00        2.600       51.386       -2.189       10.235       22.964       14.895      104.746      527.329      221.853        0.175        0.043       51.451       15.456        0.090      327.772       -6.544      859.486
12/05/2013  02:29:00       15.704       25.507       -1.857       13.263       14.584       10.323      175.900      212.695      106.558        0.070        0.025       29.954        6.885        0.053      327.765       -6.556      859.469
12/05/2013  02:30:00       10.747       41.552       -3.813       12.545       15.153       13.180      157.386      229.612      173.720        0.121        0.028       42.919        7.983        0.035      327.740       -6.595      859.455
12/05/2013  02:31:00        8.401       48.139       -7.686       25.211       34.920       19.439      635.603     1219.378      377.888        0.234        0.112       48.866       23.080        0.223      327.764       -6.556      859.442
12/05/2013  02:32:00      -63.884       47.681      -12.301       19.267       31.270       16.507      371.210      977.790      272.476        0.406        0.081       79.716       18.736        0.055      327.756       -6.572      859.418
12/05/2013  02:33:00      -27.454       81.985      -14.622       35.298       35.950       20.521     1245.960     1292.420      421.099        0.532        0.148       86.459       19.893        0.053      327.794       -6.507      859.389
12/05/2013  02:34:00        0.971       87.977       -9.989       12.817       16.933       11.377      164.287      286.710      129.442        0.421        0.029       87.982        5.060        0.003      327.682       -6.688      859.370
12/05/2013  02:35:00       12.395       13.667       -2.327       13.832       30.346       14.389      191.317      920.887      207.048        0.083        0.066       18.450       10.656        0.334      327.752       -6.575      859.358
12/05/2013  02:36:00       -5.423       13.177        1.722       14.786       17.507       14.965      218.631      306.505      223.962        0.048        0.037       14.249       13.203        0.859      327.815       -6.474      859.350
12/05/2013  02:37:00       14.074       62.849        3.064       27.931       21.945       17.929      780.145      481.594      321.436        0.287        0.079       64.406       11.786        0.033      327.759       -6.566      859.357
12/05/2013  02:38:00       18.098       42.350       -5.206       18.594       40.543       14.853      345.755     1643.695      220.602        0.218        0.111       46.055       21.059        0.209      327.832       -6.446      859.360
12/05/2013  02:39:00       33.858       25.279        7.918       20.303       26.177       16.985      412.222      685.217      288.481        0.162        0.069       42.254        8.887        0.044      327.846       -6.424      859.368
12/05/2013  02:40:00        7.451       17.061       23.438       16.797       17.341       15.632      282.141      300.705      244.371        0.086        0.041       18.617       10.397        0.312      327.894       -6.346      859.383
12/05/2013  02:41:00        9.595       11.924        0.623       13.564       11.350        7.668      183.988      128.819       58.795        0.030        0.019       15.305        4.111        0.072      327.839       -6.435      859.388
12/05/2013  02:42:00        5.716       12.443        3.066       19.683       17.485       12.089      387.408      305.741      146.136        0.052        0.042       13.693       11.645        0.723      327.881       -6.367      859.396
12/05/2013  02:43:00       15.868       81.349      -11.584       18.559       15.986       14.556      344.451      255.542      211.879        0.391        0.041       82.882       10.491        0.016      327.779       -6.532      859.397
12/05/2013  02:44:00        8.838       31.032       -0.097        9.194       26.809       12.436       84.528      718.710      154.663        0.100        0.048       32.266       14.405        0.199      327.795       -6.506      859.400
12/05/2013  02:45:00        2.923       38.593        1.535       14.082       31.974       12.589      198.307     1022.361      158.478        0.144        0.069       38.704       14.840        0.147      327.843       -6.429      859.411
12/05/2013  02:46:00      -29.815       39.573       -1.808       27.751       31.832       12.429      770.091     1013.280      154.490        0.220        0.097       49.548       10.649        0.046      327.819       -6.468      859.422
12/05/2013  02:47:00      -12.165       84.243       -5.991       20.343       49.161       18.718      413.839     2416.819      350.354        0.523        0.159       85.117       24.534        0.083      327.843       -6.428      859.432
12/05/2013  02:48:00      -10.441      128.782      -15.338       26.247       25.830       16.634      688.905      667.198      276.682        0.928        0.082      129.205       11.367        0.008      327.772       -6.544      859.444
12/05/2013  02:49:00      -10.576      106.311       -4.047       25.370       36.469       20.745      643.641     1329.971      430.373        0.692        0.120      106.836       21.919        0.042      327.825       -6.458      859.443
12/05/2013  02:50:00       -1.042      144.221      -14.096       14.386       28.572       16.928      206.957      816.382      286.551        1.115        0.065      144.225       13.845        0.009      327.718       -6.634      859.449
12/05/2013  02:51:00       -5.611       89.177       -3.446       26.113       33.177       16.903      681.874     1100.728      285.713        0.503        0.103       89.354       11.406        0.016      327.798       -6.501      859.454
12/05/2013  02:52:00       43.175       47.485       -4.960       27.285       31.764       23.662      744.460     1008.942      559.909        0.323        0.116       64.179       21.171        0.109      327.813       -6.478      859.456
12/05/2013  02:53:00       30.308       91.253       -6.587       24.896       48.807       23.923      619.823     2382.138      572.291        0.643        0.179       96.154       28.942        0.091      327.728       -6.617      859.469
12/05/2013  02:54:00       17.415       81.534       -5.992       23.969       27.073       24.239      574.534      732.968      587.512        0.444        0.095       83.373       18.439        0.049      327.739       -6.597      859.485
12/05/2013  02:55:00       34.257       64.032       -7.251       26.760       24.458       21.061      716.073      598.205      443.555        0.354        0.088       72.620       18.059        0.062      327.751       -6.579      859.500
12/05/2013  02:56:00       -2.930      116.572      -13.851       25.511       31.362       16.029      650.812      983.547      256.944        0.784        0.095      116.609       15.628        0.018      327.754       -6.574      859.511
12/05/2013  02:57:00       12.084       73.296       -2.277       29.368       49.330       21.467      862.497     2433.405      460.825        0.464        0.188       74.286       22.612        0.093      327.820       -6.467      859.498
12/05/2013  02:58:00       -0.434       69.411       -0.908       40.428       58.786       16.302     1634.397     3455.805      265.755        0.509        0.268       69.413       16.242        0.055      327.830       -6.451      859.480
12/05/2013  02:59:00       46.714       66.138       -3.942       44.161       32.729       27.682     1950.187     1071.173      766.288        0.518        0.189       80.972       18.408        0.052      327.849       -6.419      859.466
12/05/2013  03:00:00       40.539       68.632       -9.361       28.269       38.474       20.896      799.109     1480.286      436.662        0.458        0.136       79.710       22.020        0.076      327.770       -6.547      859.460
12/05/2013  03:01:00       48.227       62.568        2.334       51.594       33.241       26.839     2661.918     1104.983      720.331        0.537        0.224       78.998       19.847        0.063      327.800       -6.499      859.447
12/05/2013  03:02:00       33.959       63.546        5.476       43.566       43.813       33.859     1897.965     1919.604     1146.445        0.509        0.248       72.051       22.595        0.098      327.767       -6.553      859.437
12/05/2013  03:03:00       29.453       41.952        2.137       32.079       27.144       24.138     1029.092      736.788      582.664        0.249        0.117       51.258       15.157        0.087      327.787       -6.519      859.423
12/05/2013  03:04:00       31.412       32.434        4.952       42.450       27.449       22.516     1802.011      753.457      506.959        0.256        0.153       45.152       16.953        0.141      327.793       -6.509      859.403
12/05/2013  03:05:00       35.104       19.101        7.191       63.752       34.713       24.280     4064.295     1204.966      589.503        0.375        0.293       39.964       13.053        0.107      327.776       -6.538      859.390
12/05/2013  03:06:00       17.370       55.821       -1.908       25.773       30.992       22.142      664.273      960.486      490.249        0.277        0.106       58.461       21.416        0.134      327.782       -6.529      859.399
12/05/2013  03:07:00       45.785       59.232        2.039       28.560       25.476       28.251      815.648      649.002      798.107        0.394        0.113       74.865       14.797        0.039      327.740       -6.596      859.413
12/05/2013  03:08:00       30.269       69.838       -9.951       26.998       37.730       20.684      728.907     1423.521      427.832        0.424        0.129       76.115       22.674        0.089      327.763       -6.557      859.422
12/05/2013  03:09:00       74.080      110.187      -12.943       60.933       61.554       29.495     3712.859     3788.872      869.939        1.308        0.419      132.774       32.439        0.060      327.750       -6.580      859.428
12/05/2013  03:10:00       13.287       98.945       -9.793       39.498       50.155       33.996     1560.100     2515.527     1155.757        0.765        0.262       99.834       34.137        0.117      327.742       -6.593      859.430
12/05/2013  03:11:00       87.507       54.727       11.435       47.954       26.155       27.420     2299.568      684.104      751.844        0.726        0.187      103.211       16.925        0.027      327.738       -6.600      859.428
12/05/2013  03:12:00       54.247       24.178        4.306       28.488       20.618       22.851      811.574      425.099      522.156        0.265        0.088       59.391       16.494        0.077      327.759       -6.565      859.427
12/05/2013  03:13:00        5.521       42.320       -5.337       28.184       28.404       21.070      794.351      806.809      443.934        0.195        0.102       42.679       19.815        0.216      327.751       -6.577      859.423
12/05/2013  03:14:00       12.160       83.892      -11.279       22.299       42.207       15.230      497.238     1781.426      231.942        0.491        0.126       84.768       10.854        0.016      327.756       -6.571      859.431
12/05/2013  03:15:00       12.277       95.478      -12.561       17.727       26.209       16.522      314.260      686.890      272.971        0.535        0.064       96.264       14.091        0.021      327.741       -6.594      859.435
12/05/2013  03:16:00       54.209       45.536       -3.074       31.710       26.346       26.120     1005.499      694.108      682.250        0.370        0.119       70.796       15.734        0.049      327.743       -6.590      859.436
12/05/2013  03:17:00       18.829       56.117       -4.833       24.447       25.416       23.302      597.672      645.988      542.982        0.266        0.089       59.192       20.119        0.116      327.762       -6.559      859.440
12/05/2013  03:18:00       26.678       53.576       -4.673       24.751       23.710       19.950      612.619      562.169      398.020        0.259        0.079       59.851       16.235        0.074      327.770       -6.549      859.445
12/05/2013  03:19:00       20.962       39.647       -0.651       21.542       22.334       20.597      464.049      498.826      424.223        0.170        0.069       44.847       15.074        0.113      327.783       -6.525      859.442
12/05/2013  03:20:00       29.602       62.225       10.627       34.444       40.843       33.744     1186.355     1668.190     1138.625        0.443        0.200       68.908       27.175        0.156      327.743       -6.591      859.428
12/05/2013  03:21:00       31.804       91.755       -9.869       24.171       32.107       22.897      584.242     1030.848      524.274        0.583        0.107       97.111       21.408        0.049      327.729       -6.613      859.416
12/05/2013  03:22:00       38.724       68.330       -5.282       37.517       29.707       20.954     1407.519      882.485      439.050        0.446        0.136       78.541       19.550        0.062      327.729       -6.613      859.404
12/05/2013  03:23:00       29.883      105.786      -17.655       32.580       76.098       27.187     1061.425     5790.888      739.160        0.999        0.380      109.926       36.161        0.108      327.713       -6.640      859.404
12/05/2013  03:24:00        6.783      142.016      -15.586       32.786       43.112       31.041     1074.896     1858.678      963.538        1.218        0.195      142.178       28.835        0.041      327.708       -6.649      859.406
12/05/2013  03:25:00       -2.810      123.630      -18.322       30.550       54.258       14.122      933.324     2943.982      199.421        0.985        0.204      123.662       16.960        0.019      327.734       -6.607      859.416
12/05/2013  03:26:00       14.183      107.870      -15.872       32.434       35.737       21.238     1051.939     1277.103      451.046        0.743        0.139      108.799       19.716        0.033      327.742       -6.592      859.422
12/05/2013  03:27:00        4.203       75.208      -12.838       18.139       24.347       15.941      329.020      592.795      254.119        0.351        0.059       75.325       16.040        0.045      327.771       -6.546      859.418
12/05/2013  03:28:00       38.147       50.623       -9.564       35.287       33.527       21.249     1245.158     1124.057      451.513        0.346        0.141       63.386       16.807        0.070      327.774       -6.540      859.405
12/05/2013  03:29:00       17.648       77.385       -2.609       30.626       63.589       32.148      937.971     4043.557     1033.489        0.616        0.301       79.372       35.724        0.203      327.750       -6.580      859.391
12/05/2013  03:30:00       31.807       78.193       -9.318       29.064       58.910       29.542      844.706     3470.386      872.720        0.620        0.259       84.414       30.973        0.135      327.741       -6.595      859.380
12/05/2013  03:31:00       10.817      108.516       -4.438       35.680       47.681       30.611     1273.046     2273.430      937.034        0.820        0.224      109.054       29.063        0.071      327.716       -6.635      859.375
12/05/2013  03:32:00       49.043       55.979       -3.799       44.635       30.521       22.187     1992.243      931.507      492.267        0.448        0.171       74.423       16.534        0.049      327.774       -6.542      859.382
12/05/2013  03:33:00       80.814       51.724       10.354       44.174       37.551       29.009     1951.322     1410.087      841.512        0.676        0.210       95.950       10.814        0.013      327.752       -6.576      859.397
12/05/2013  03:34:00       34.361       47.691       -0.829       24.617       29.897       19.364      605.990      893.839      374.971        0.266        0.094       58.780       17.842        0.092      327.716       -6.634      859.412
12/05/2013  03:35:00       27.048       32.164        0.173       16.919       15.366       13.087      286.249      236.105      171.282        0.123        0.035       42.025        9.476        0.051      327.704       -6.655      859.426
12/05/2013  03:36:00       35.774       38.574       -1.554       15.948       21.925       14.241      254.324      480.702      202.810        0.185        0.047       52.609       11.717        0.050      327.738       -6.601      859.434
12/05/2013  03:37:00       57.412       52.086       -6.820       13.782       14.653       13.116      189.944      214.718      172.025        0.332        0.029       77.519        4.718        0.004      327.794       -6.507      859.440
12/05/2013  03:38:00       90.167       75.011        0.657       45.767       30.606       30.912     2094.588      936.726      955.569        0.887        0.199      117.289       19.684        0.028      327.694       -6.669      859.435
12/05/2013  03:39:00       73.291       75.283        6.671       50.169       49.156       41.356     2516.960     2416.269     1710.348        0.886        0.332      105.068       33.297        0.100      327.699       -6.665      859.417
12/05/2013  03:40:00       89.179       59.684        6.924       28.891       21.246       20.771      834.717      451.373      431.415        0.664        0.086      107.309        7.867        0.005      327.670       -6.709      859.414
12/05/2013  03:41:00       24.694       73.309       -6.717       21.636       27.009       18.736      468.118      729.501      351.038        0.379        0.077       77.357       15.472        0.040      327.690       -6.679      859.417
12/05/2013  03:42:00       12.244       60.765        3.858       25.798       31.768       23.857      665.532     1009.193      569.172        0.305        0.112       61.987       23.498        0.144      327.690       -6.677      859.425
12/05/2013  03:43:00       38.058       28.215        1.415       11.553       19.145       14.100      133.470      366.513      198.818        0.147        0.035       47.377       13.623        0.083      327.710       -6.646      859.422
12/05/2013  03:44:00       53.042       49.034        3.713       34.944       22.115       20.966     1221.065      489.076      439.570        0.369        0.107       72.234       17.706        0.060      327.684       -6.689      859.416
12/05/2013  03:45:00       89.122       63.143       26.653       32.112       30.619       22.480     1031.155      937.503      505.372        0.756        0.124      109.223       11.593        0.011      327.683       -6.689      859.411
12/05/2013  03:46:00       76.273       52.324       29.168       37.715       22.450       23.937     1422.403      503.998      572.991        0.595        0.125       92.495       16.540        0.032      327.709       -6.648      859.386
12/05/2013  03:47:00       42.678       44.789       -0.403       36.160       24.975       21.105     1307.542      623.755      445.423        0.310        0.119       61.867       12.323        0.040      327.746       -6.585      859.370
12/05/2013  03:48:00       46.472       46.312        7.607       25.378       23.466       24.158      644.055      550.671      583.627        0.307        0.089       65.608       15.339        0.055      327.739       -6.597      859.354
12/05/2013  03:49:00       23.025       72.531      -10.388       28.343       40.317       18.816      803.339     1625.444      354.057        0.434        0.139       76.097       20.396        0.072      327.697       -6.665      859.343
12/05/2013  03:50:00       10.376       83.537       -7.751       31.088       41.257       19.705      966.465     1702.133      388.275        0.510        0.153       84.179       18.564        0.049      327.729       -6.613      859.339
12/05/2013  03:51:00       55.167       83.001      -11.348       39.985       58.998       33.732     1598.766     3480.736     1137.878        0.814        0.311       99.662       31.093        0.097      327.665       -6.719      859.337
12/05/2013  03:52:00       25.107       94.046      -12.650       32.592       62.735       23.879     1062.215     3935.625      570.213        0.760        0.278       97.339       28.857        0.088      327.660       -6.727      859.338
12/05/2013  03:53:00       34.343       88.979      -11.340       32.029       47.549       23.021     1025.855     2260.929      529.957        0.652        0.191       95.377       26.670        0.078      327.685       -6.686      859.333
12/05/2013  03:54:00       89.197       68.457        6.221       49.281       36.883       34.850     2428.570     1360.330     1214.530        0.884        0.250      112.439       22.852        0.041      327.665       -6.719      859.331
12/05/2013  03:55:00       38.294      125.820       -7.631       39.992       51.516       34.217     1599.364     2653.885     1170.817        1.139        0.271      131.518       32.390        0.061      327.671       -6.709      859.333
12/05/2013  03:56:00       44.511      101.564       -8.863       46.900       42.687       36.715     2199.654     1822.179     1347.988        0.887        0.268      110.890       27.624        0.062      327.635       -6.768      859.342
12/05/2013  03:57:00       52.884       51.210       13.318       50.304       30.457       37.270     2530.494      927.633     1389.046        0.522        0.242       73.615       23.142        0.099      327.645       -6.752      859.344
12/05/2013  03:58:00       16.023       93.506      -11.695       40.652       68.003       28.684     1652.595     4624.415      822.785        0.812        0.355       94.869       32.121        0.115      327.630       -6.776      859.344
12/05/2013  03:59:00       33.582      109.100      -12.446       31.452       52.981       32.538      989.237     2807.011     1058.727        0.902        0.243      114.152       32.832        0.083      327.655       -6.735      859.341
12/05/2013  04:00:00       53.959       96.961       -8.563       46.591       45.061       28.746     2170.748     2030.503      826.313        0.871        0.251      110.964       19.782        0.032      327.659       -6.728      859.334
12/05/2013  04:01:00       85.680       56.914       10.874       40.168       32.337       28.583     1613.441     1045.676      817.011        0.709        0.174      102.861       20.680        0.040      327.659       -6.727      859.331
12/05/2013  04:02:00       81.729       57.592        7.471       54.663       31.453       20.849     2987.997      989.298      434.688        0.723        0.221       99.983       11.929        0.014      327.634       -6.768      859.330
12/05/2013  04:03:00       54.450       50.932        6.897       36.017       34.200       32.117     1297.193     1169.640     1031.496        0.455        0.175       74.558       25.436        0.116      327.698       -6.665      859.313
12/05/2013  04:04:00       62.962       78.380       -4.733       42.764       35.161       24.003     1828.796     1236.307      576.135        0.688        0.182      100.537       17.533        0.030      327.645       -6.750      859.290
12/05/2013  04:05:00       49.678       76.208       -0.059       45.196       34.621       31.270     2042.689     1198.593      977.808        0.625        0.211       90.970       29.514        0.105      327.605       -6.816      859.273
12/05/2013  04:06:00       41.143       73.064       -1.222       33.984       50.548       34.431     1154.916     2555.118     1185.497        0.596        0.245       83.852       31.023        0.137      327.632       -6.773      859.259
12/05/2013  04:07:00       31.840      135.587      -19.972       32.306       46.923       29.415     1043.654     2201.722      865.220        1.195        0.206      139.275       26.955        0.037      327.585       -6.847      859.245
12/05/2013  04:08:00       23.866       56.996       -4.150       35.377       48.042       27.188     1251.542     2308.041      739.172        0.407        0.215       61.791       29.891        0.234      327.639       -6.761      859.243
12/05/2013  04:09:00       34.348       52.859       -3.693       29.250       41.486       26.369      855.557     1721.074      695.312        0.363        0.164       63.038       21.660        0.118      327.628       -6.780      859.246
12/05/2013  04:10:00       24.101       42.075       -4.122       27.535       38.045       18.247      758.193     1447.427      332.938        0.245        0.127       48.489       16.093        0.110      327.627       -6.781      859.254
12/05/2013  04:11:00        8.764       17.983        2.454       19.014       14.679       13.385      361.514      215.477      179.154        0.058        0.038       20.004       14.403        0.518      327.672       -6.707      859.254
12/05/2013  04:12:00      -14.848       86.345      -11.545       20.997       35.906       17.346      440.876     1289.240      300.886        0.492        0.102       87.612        7.079        0.007      327.636       -6.767      859.250
12/05/2013  04:13:00      -11.180       82.464       -8.444       12.129       23.705       12.624      147.114      561.939      159.371        0.393        0.043       83.219        9.146        0.012      327.629       -6.777      859.252
12/05/2013  04:14:00       -0.235       19.147        4.701        8.594       23.274        9.691       73.851      541.659       93.915        0.055        0.035       19.149        7.867        0.169      327.687       -6.684      859.249
12/05/2013  04:15:00      -20.494       17.964        3.956       21.979       14.152       21.632      483.086      200.281      467.964        0.095        0.058       27.253       15.361        0.318      327.691       -6.675      859.247
12/05/2013  04:16:00      -26.449       27.451       -1.149       31.312       53.463       15.977      980.456     2858.317      255.250        0.277        0.205       38.120       19.312        0.257      327.658       -6.730      859.243
12/05/2013  04:17:00      -11.460       11.167       31.139       16.230       15.799       12.053      263.415      249.607      145.283        0.094        0.033       16.001        5.989        0.140      327.759       -6.566      859.242
12/05/2013  04:18:00      -33.244       28.254       12.631       31.849       20.590       21.158     1014.360      423.953      447.642        0.197        0.094       43.629        9.249        0.045      327.697       -6.665      859.248
12/05/2013  04:19:00      -36.060       28.319       -1.303       22.646       24.120       19.627      512.831      581.777      385.220        0.179        0.074       45.851       15.494        0.114      327.651       -6.742      859.254
12/05/2013  04:20:00      -59.377       14.225      -11.389       17.679       22.140       14.387      312.544      490.198      206.978        0.243        0.050       61.057        9.398        0.024      327.656       -6.733      859.245
12/05/2013  04:21:00      -52.022       75.469      -22.838       19.785       26.485       13.118      391.459      701.432      172.085        0.509        0.063       91.662        8.067        0.008      327.705       -6.654      859.240
12/05/2013  04:22:00        6.969       88.374      -10.903       17.883       33.396       17.984      319.800     1115.326      323.430        0.487        0.088       88.648       15.949        0.032      327.710       -6.645      859.230
12/05/2013  04:23:00      -15.237      132.794      -18.188       28.124       43.376       17.563      790.979     1881.506      308.457        1.059        0.149      133.665       18.942        0.020      327.611       -6.806      859.228
12/05/2013  04:24:00       -8.235       66.521       -1.259       26.926       25.783       20.201      724.995      664.749      408.100        0.315        0.090       67.029       15.715        0.055      327.686       -6.685      859.224
12/05/2013  04:25:00       49.795       45.478       14.889       42.387       32.992       21.471     1796.694     1088.447      461.017        0.406        0.167       67.437       19.037        0.080      327.645       -6.751      859.221
12/05/2013  04:26:00       20.672       93.239        3.355       30.517       44.558       29.739      931.286     1985.406      884.435        0.647        0.190       95.503       30.683        0.103      327.647       -6.748      859.218
12/05/2013  04:27:00       23.671       67.198       -8.691       20.953       37.932       24.868      439.030     1438.865      618.425        0.382        0.125       71.245       19.083        0.072      327.620       -6.792      859.210
12/05/2013  04:28:00       58.092       41.167       -2.210       20.354       18.701       19.686      414.285      349.721      387.547        0.311        0.058       71.200       11.471        0.026      327.602       -6.819      859.206
12/05/2013  04:29:00       80.324       51.280       -4.200       24.002       23.030       15.417      576.085      530.384      237.674        0.522        0.067       95.298       13.088        0.019      327.606       -6.815      859.192
12/05/2013  04:30:00       76.288       53.917        5.121       28.013       14.950       20.744      784.744      223.490      430.327        0.510        0.072       93.418        9.328        0.010      327.599       -6.827      859.184
12/05/2013  04:31:00       93.700       55.955       10.352       18.778       17.509       23.869      352.614      306.576      569.717        0.662        0.061      109.136        9.977        0.008      327.689       -6.680      859.178
12/05/2013  04:32:00       69.963       50.199       18.950       36.309       18.258       20.759     1318.334      333.350      430.957        0.493        0.104       86.109       14.944        0.030      327.687       -6.683      859.175
12/05/2013  04:33:00       78.986       53.996       13.694       26.998       25.114       22.392      728.898      630.722      501.397        0.560        0.093       95.679       17.371        0.033      327.674       -6.703      859.168
12/05/2013  04:34:00       62.173       40.820       -1.592       20.428       20.441       19.474      417.316      417.825      379.220        0.337        0.061       74.375       15.035        0.041      327.634       -6.769      859.154
12/05/2013  04:35:00       65.203       49.600       -9.170       26.307       24.286       21.455      692.042      589.807      460.310        0.427        0.087       81.924       17.688        0.047      327.662       -6.722      859.145
12/05/2013  04:36:00       46.151       38.822       -0.358       25.695       19.585       17.423      660.208      383.564      303.547        0.249        0.067       60.308       12.191        0.041      327.650       -6.744      859.138
12/05/2013  04:37:00       85.357       47.848        4.299       29.756       22.256       18.459      885.407      495.346      340.719        0.566        0.086       97.853       10.743        0.012      327.649       -6.744      859.126
12/05/2013  04:38:00       86.335       49.006       -6.405       26.256       28.711       17.608      689.376      824.344      310.030        0.586        0.091       99.274       10.058        0.010      327.641       -6.758      859.126
12/05/2013  04:39:00       67.409       50.751        4.974       34.873       25.965       19.028     1216.150      674.181      362.071        0.470        0.113       84.378       12.818        0.023      327.631       -6.774      859.117
12/05/2013  04:40:00       24.839       74.477       -4.747       30.343       37.545       24.583      920.691     1409.602      604.317        0.456        0.147       78.510       22.663        0.083      327.602       -6.821      859.111
12/05/2013  04:41:00       22.179       50.417       -1.569       23.163       27.741       16.977      536.532      769.561      288.210        0.231        0.080       55.079       15.059        0.075      327.607       -6.812      859.105
12/05/2013  04:42:00        9.009        4.459        6.447       27.745       20.489       16.205      769.800      419.782      262.601        0.080        0.073       10.052        9.445        0.883      327.625       -6.783      859.098
12/05/2013  04:43:00        8.989       86.969       -4.186       32.978       41.865       20.547     1087.541     1752.695      422.191        0.546        0.163       87.433       22.659        0.067      327.648       -6.745      859.101
12/05/2013  04:44:00       14.227       76.048       -2.987       26.772       50.703       25.149      716.739     2570.797      632.452        0.496        0.196       77.368       31.195        0.163      327.629       -6.777      859.103
12/05/2013  04:45:00       28.661       60.468       -4.281       27.407       49.727       22.864      751.171     2472.736      522.759        0.412        0.187       66.916       25.688        0.147      327.643       -6.754      859.096
12/05/2013  04:46:00       36.839       32.080        1.783       34.952       24.911       23.577     1221.637      620.552      555.852        0.239        0.120       48.849       17.373        0.126      327.574       -6.865      859.095
12/05/2013  04:47:00       25.195       30.757       -3.618       26.487       20.017       15.009      701.568      400.661      225.264        0.146        0.066       39.759        9.119        0.053      327.552       -6.901      859.090
12/05/2013  04:48:00       13.175       53.350       -5.425       28.426       24.119       19.362      808.031      581.733      374.902        0.241        0.088       54.953       11.280        0.042      327.629       -6.777      859.095
12/05/2013  04:49:00        1.594       46.216      -20.843       20.359       22.585        9.780      414.481      510.071       95.656        0.180        0.051       46.244        5.957        0.017      327.550       -6.901      859.104
12/05/2013  04:50:00       -4.712       -2.611      -12.692       13.141       22.664        8.563      172.677      513.634       73.319        0.047        0.038        5.387        5.404        1.006      327.569       -6.873      859.097
12/05/2013  04:51:00      -22.593       -3.908      -13.001       19.700       12.161       10.142      388.082      147.887      102.870        0.067        0.032       22.928        5.438        0.056      327.673       -6.704      859.100
12/05/2013  04:52:00      -53.712       26.338      -10.778        8.393        8.458        8.304       70.438       71.535       68.959        0.195        0.011       59.822        4.735        0.006      327.575       -6.865      859.107
12/05/2013  04:53:00        0.343       16.715       12.979       24.461       10.901       12.099      598.318      118.823      146.392        0.066        0.043       16.719       12.948        0.600      327.595       -6.831      859.111
12/05/2013  04:54:00       32.628       27.635       24.253       11.598        9.665       14.213      134.522       93.421      202.015        0.142        0.021       42.758        8.343        0.038      327.602       -6.820      859.110
12/05/2013  04:55:00       23.428       40.113        0.719       28.877       14.407       14.922      833.879      207.573      222.678        0.171        0.063       46.454       15.682        0.114      327.609       -6.807      859.109
12/05/2013  04:56:00       39.056       54.327        8.766       17.906       14.841       20.106      320.623      220.253      404.237        0.275        0.047       66.909       10.704        0.026      327.590       -6.839      859.095
12/05/2013  04:57:00       15.006       42.191        4.490       27.483       25.971       19.834      755.289      674.476      393.405        0.192        0.091       44.781       13.222        0.087      327.586       -6.846      859.082
12/05/2013  04:58:00        3.715       35.280       -9.137       21.212       29.943       13.788      449.953      896.585      190.111        0.144        0.077       35.475       13.039        0.135      327.557       -6.891      859.078
12/05/2013  04:59:00       -0.393      -14.873       16.674        7.567       15.867       11.129       57.265      251.765      123.857        0.047        0.022       14.878        8.951        0.362      327.690       -6.678      859.069
12/05/2013  05:00:00      -41.135       51.109      -13.463       25.434       34.828       15.975      646.879     1212.973      255.188        0.330        0.106       65.606       19.643        0.090      327.629       -6.775      859.072
12/05/2013  05:01:00      -63.350       59.479      -10.979       37.186       35.716       19.857     1382.767     1275.660      394.303        0.536        0.153       86.897       18.900        0.047      327.617       -6.797      859.081
12/05/2013  05:02:00       -0.709       82.210       -6.392       22.647       19.583       17.731      512.899      383.507      314.399        0.401        0.061       82.214       12.545        0.023      327.636       -6.766      859.084
12/05/2013  05:03:00        3.786       76.795       -1.413       17.970       34.282       18.478      322.907     1175.275      341.447        0.388        0.092       76.888       20.437        0.071      327.570       -6.872      859.075
12/05/2013  05:04:00        9.904       93.086       -7.296       22.699       31.162       19.970      515.230      971.066      398.810        0.535        0.094       93.611       17.315        0.034      327.556       -6.893      859.064
12/05/2013  05:05:00       -7.044       60.337        1.371       21.470       24.163       19.129      460.965      583.836      365.931        0.255        0.071       60.747       14.761        0.059      327.639       -6.759      859.053
12/05/2013  05:06:00       -6.389       15.409        5.983       26.963       21.271       17.067      727.000      452.473      291.292        0.089        0.074       16.681       14.314        0.736      327.627       -6.779      859.041
12/05/2013  05:07:00       46.212       46.268       -3.732       29.916       12.899       13.277      894.952      166.396      176.280        0.276        0.062       65.394        8.559        0.017      327.575       -6.863      859.038
12/05/2013  05:08:00       43.695       23.293        5.392       32.594       20.810       17.073     1062.354      433.073      291.481        0.213        0.089       49.516        9.211        0.035      327.549       -6.904      859.045
12/05/2013  05:09:00       14.182       -1.948        3.318       11.700       11.434       16.248      136.897      130.734      263.994        0.037        0.027       14.315        8.267        0.333      327.582       -6.851      859.055
12/05/2013  05:10:00       28.884       24.421       -2.114       10.736       13.853        9.045      115.255      191.912       81.819        0.091        0.019       37.824        4.591        0.015      327.563       -6.881      859.056
12/05/2013  05:11:00       11.650        6.994       -3.289        9.549        7.580        8.124       91.182       57.456       65.995        0.021        0.011       13.588        3.334        0.060      327.557       -6.891      859.062
12/05/2013  05:12:00        1.205       14.658        3.725        5.129        9.908        6.223       26.304       98.170       38.721        0.020        0.008       14.707        6.581        0.200      327.566       -6.879      859.065
12/05/2013  05:13:00      -29.919       -5.447        3.491       24.552       15.199        7.688      602.796      231.007       59.110        0.091        0.045       30.411        7.642        0.063      327.631       -6.772      859.064
12/05/2013  05:14:00      -45.250      -28.869        1.746       20.208       17.265       15.007      408.380      298.071      225.208        0.191        0.047       53.674        4.508        0.007      327.726       -6.617      859.074
12/05/2013  05:15:00      -35.394      -28.329        1.369       21.230       15.402       11.862      450.729      237.230      140.711        0.144        0.041       45.335        9.673        0.046      327.767       -6.551      859.078
12/05/2013  05:16:00      -12.758       -7.465        4.309       18.562       18.622       10.954      344.548      346.777      119.981        0.052        0.041       14.782       12.088        0.669      327.744       -6.591      859.077
12/05/2013  05:17:00        2.046       30.779        0.187       13.881       17.452        6.711      192.694      304.587       45.035        0.075        0.027       30.847        5.536        0.032      327.604       -6.817      859.077
12/05/2013  05:18:00       -0.645       42.474       -1.273       13.433       16.470       11.242      180.455      271.268      126.378        0.119        0.029       42.479       11.217        0.070      327.593       -6.834      859.074
12/05/2013  05:19:00      -53.208        9.301       -6.547       16.314        8.511        7.782      266.132       72.432       60.567        0.168        0.020       54.015        3.795        0.005      327.597       -6.827      859.068
12/05/2013  05:20:00      -45.270       15.441       -3.253       14.786       13.486       11.380      218.631      181.862      129.504        0.141        0.026       47.831        8.997        0.035      327.590       -6.841      859.059
12/05/2013  05:21:00      -50.674       23.994        0.807       14.125       10.751       11.644      199.508      115.586      135.572        0.180        0.023       56.067        8.512        0.023      327.527       -6.942      859.045
12/05/2013  05:22:00      -22.619       16.993        6.671       36.438       18.623       16.949     1327.692      346.823      287.268        0.140        0.098       28.291       18.990        0.451      327.542       -6.918      859.028
12/05/2013  05:23:00      -14.074       18.031        3.097       18.620       16.114       18.040      346.705      259.661      325.428        0.073        0.047       22.874       13.076        0.327      327.533       -6.932      859.013
12/05/2013  05:24:00       -6.373       85.843       -8.714       27.292       33.856       18.781      744.832     1146.234      352.726        0.486        0.112       86.079       14.816        0.030      327.589       -6.840      859.006
12/05/2013  05:25:00      -15.933       94.387       -2.018       25.385       47.594       18.819      644.397     2265.209      354.145        0.621        0.163       95.723       19.697        0.042      327.511       -6.969      859.011
12/05/2013  05:26:00      -67.960       47.728       -9.254       20.614       22.947       16.696      424.957      526.577      278.764        0.411        0.062       83.046       12.655        0.023      327.584       -6.850      859.018
12/05/2013  05:27:00      -79.754       37.927      -11.684       18.993       14.917       12.942      360.725      222.522      167.501        0.434        0.038       88.313        6.901        0.006      327.531       -6.935      859.035
12/05/2013  05:28:00      -67.681       48.376       -9.522       25.527       21.692       14.597      651.643      470.528      213.065        0.417        0.067       83.192       10.365        0.016      327.562       -6.885      859.044
12/05/2013  05:29:00      -51.824       17.068       -5.434       23.992       19.314       15.322      575.632      373.042      234.764        0.209        0.059       54.562       18.031        0.109      327.581       -6.854      859.049
12/05/2013  05:30:00      -18.887       16.990        2.696       24.855       16.450       14.591      617.782      270.611      212.890        0.088        0.055       25.405       14.614        0.331      327.642       -6.756      859.051
12/05/2013  05:31:00       -8.828        9.116       -1.088       13.747       19.690        9.506      188.993      387.685       90.370        0.041        0.033       12.690       10.337        0.664      327.587       -6.844      859.060
12/05/2013  05:32:00      -46.000       40.142      -10.397       20.087       20.931       10.656      403.501      438.094      113.541        0.240        0.048       61.053       11.654        0.036      327.581       -6.853      859.071
12/05/2013  05:33:00      -64.020       36.972      -14.558       17.502       20.525       10.781      306.317      421.274      116.238        0.326        0.042       73.929       10.679        0.021      327.625       -6.783      859.083
12/05/2013  05:34:00     -114.005       12.455      -10.712       24.673       26.099       17.757      608.736      681.181      315.323        0.744        0.080      114.683        9.764        0.007      327.570       -6.872      859.096
12/05/2013  05:35:00      -99.400        6.903      -15.492       26.963       28.016       16.363      726.988      784.908      267.741        0.597        0.089       99.639       14.127        0.020      327.545       -6.914      859.110
12/05/2013  05:36:00      -98.057      -13.850       -9.615       16.074       25.474       14.908      258.374      648.926      222.242        0.551        0.056       99.031        4.678        0.002      327.567       -6.878      859.115
12/05/2013  05:37:00      -64.285       -9.841        0.040       36.754       30.143       15.631     1350.862      908.572      244.341        0.337        0.125       65.034       18.922        0.085      327.542       -6.919      859.128
12/05/2013  05:38:00      -58.186      -36.384        3.603       31.473       24.370       19.647      990.558      593.896      386.008        0.335        0.099       68.625       20.906        0.093      327.540       -6.922      859.141
12/05/2013  05:39:00      -74.226       -9.109       -3.974       43.985       29.024       15.271     1934.662      842.365      233.213        0.431        0.151       74.783       14.638        0.038      327.598       -6.827      859.155
12/05/2013  05:40:00     -104.511      -30.548       -5.928       26.666       26.826       17.872      711.094      719.651      319.423        0.682        0.088      108.884       12.328        0.013      327.686       -6.684      859.169
12/05/2013  05:41:00     -150.585      -37.642       -6.477       32.420       33.980       20.059     1051.036     1154.654      402.358        1.337        0.130      155.219       17.645        0.013      327.523       -6.948      859.190
12/05/2013  05:42:00     -150.877      -18.224      -17.392       45.947       41.655       23.039     2111.141     1735.145      530.791        1.389        0.219      151.973       20.513        0.018      327.433       -7.094      859.202
12/05/2013  05:43:00     -190.286      -50.641      -21.462       31.667       35.077       23.728     1002.811     1230.410      563.023        2.101        0.140      196.910       13.103        0.004      327.402       -7.146      859.217
12/05/2013  05:44:00     -106.374       -6.882       -3.983       44.830       39.824       23.024     2009.705     1585.967      530.084        0.775        0.206      106.597       15.453        0.021      327.420       -7.117      859.232
12/05/2013  05:45:00     -156.522       21.240      -16.207       59.960       37.093       30.395     3595.198     1375.896      923.846        1.555        0.295      157.957       31.081        0.039      327.314       -7.289      859.250
12/05/2013  05:46:00     -185.181       39.212      -11.959       41.854       19.764       19.186     1751.773      390.612      368.097        1.924        0.126      189.287       16.113        0.007      327.285       -7.337      859.255
12/05/2013  05:47:00     -143.254       12.093      -12.478       29.182       33.119       18.422      851.579     1096.838      339.374        1.156        0.114      143.763       10.510        0.005      327.297       -7.316      859.271
12/05/2013  05:48:00      -85.562        8.189       -8.171       33.378       24.538       18.458     1114.102      602.113      340.680        0.476        0.103       85.953       19.741        0.053      327.314       -7.288      859.273
12/05/2013  05:49:00      -94.847       49.551      -12.823       53.751       39.127       24.067     2889.171     1530.904      579.200        0.831        0.250      107.011       11.193        0.011      327.309       -7.298      859.274
12/05/2013  05:50:00      -76.100       27.478      -16.226       20.737       25.673       15.510      430.018      659.097      240.574        0.407        0.066       80.909        8.023        0.010      327.340       -7.245      859.271
12/05/2013  05:51:00      -84.654       75.114      -17.607       48.270       42.983       26.894     2330.018     1847.558      723.308        0.901        0.245      113.174       25.745        0.052      327.312       -7.293      859.267
12/05/2013  05:52:00     -113.231      105.286      -24.492       22.711       30.681       17.519      515.781      941.326      306.909        1.313        0.088      154.617       14.229        0.008      327.293       -7.322      859.277
12/05/2013  05:53:00      -88.232      120.136      -30.316       29.500       32.617       17.346      870.243     1063.884      300.900        1.269        0.112      149.055       14.852        0.010      327.290       -7.328      859.296
12/05/2013  05:54:00      -84.931      107.576      -26.631       25.741       24.238       13.853      662.599      587.484      191.894        1.047        0.072      137.061        8.763        0.004      327.326       -7.268      859.307
12/05/2013  05:55:00      -78.851       97.701      -21.472       28.226       36.314       18.215      796.715     1318.730      331.797        0.934        0.122      125.551       18.148        0.021      327.472       -7.031      859.309
12/05/2013  05:56:00      -85.192      133.732      -31.770       30.604       28.765       22.346      936.620      827.436      499.341        1.421        0.113      158.562       18.225        0.013      327.351       -7.227      859.316
12/05/2013  05:57:00      -81.440       96.722      -25.786       32.744       42.851       22.253     1072.196     1836.217      495.195        1.003        0.170      126.443       25.179        0.040      327.381       -7.179      859.310
12/05/2013  05:58:00      -21.266       65.968        0.083       34.646       39.107       23.982     1200.369     1529.342      575.133        0.405        0.165       69.311       22.644        0.107      327.449       -7.068      859.302
12/05/2013  05:59:00      -23.230       94.407       -2.333       29.673       46.582       21.882      880.476     2169.919      478.834        0.649        0.176       97.223       21.785        0.050      327.372       -7.193      859.305
12/05/2013  06:00:00      -67.442       35.901      -13.015       27.420       35.084       20.705      751.859     1230.899      428.692        0.421        0.121       76.402       17.559        0.053      327.419       -7.117      859.312
12/05/2013  06:01:00      -36.834       24.425       -7.592       28.122       26.187       20.464      790.834      685.746      418.793        0.195        0.095       44.197       14.298        0.105      327.442       -7.081      859.328
12/05/2013  06:02:00      -47.047       31.276       -3.099       18.433       21.546       14.582      339.786      464.237      212.623        0.211        0.051       56.494        9.366        0.027      327.365       -7.206      859.348
12/05/2013  06:03:00      -31.520      -18.319        7.097       33.788       19.692       18.807     1141.657      387.763      353.686        0.163        0.094       36.457       21.133        0.336      327.415       -7.125      859.363
12/05/2013  06:04:00      -35.883      -47.343        1.041       35.433       23.849       23.894     1255.476      568.785      570.947        0.296        0.120       59.405       14.154        0.057      327.336       -7.251      859.401
12/05/2013  06:05:00       12.948      -38.262        1.001       24.613       32.480       20.228      605.780     1054.983      409.179        0.185        0.103       40.394       19.121        0.224      327.293       -7.321      859.421
12/05/2013  06:06:00      -41.630      -32.123        1.872       28.121       23.688       22.472      790.816      561.134      504.996        0.231        0.093       52.583       12.875        0.060      327.195       -7.482      859.430
12/05/2013  06:07:00      -73.720      -26.711       -0.596       32.283       34.681       17.270     1042.178     1202.749      298.253        0.435        0.127       78.410       11.720        0.022      327.178       -7.509      859.446
12/05/2013  06:08:00      -75.726      -37.768       11.099       49.583       35.174       25.269     2458.445     1237.200      638.515        0.581        0.217       84.622       29.778        0.124      327.095       -7.644      859.467
12/05/2013  06:09:00      -57.869      -45.225        4.649       37.292       31.509       21.386     1390.714      992.828      457.357        0.413        0.142       73.445       16.365        0.050      327.204       -7.466      859.480
12/05/2013  06:10:00     -104.115      -53.886        1.061       42.701       27.250       21.691     1823.388      742.589      470.488        0.839        0.152      117.234       22.795        0.038      327.171       -7.520      859.482
12/05/2013  06:11:00     -123.697      -54.668       -6.083       24.610       18.608       16.444      605.637      346.242      270.408        0.977        0.061      135.239       14.196        0.011      327.134       -7.581      859.486
12/05/2013  06:12:00      -82.963      -29.468      -11.158       45.546       27.653       17.052     2074.417      764.679      290.783        0.550        0.156       88.041       18.105        0.042      327.190       -7.489      859.482
12/05/2013  06:13:00     -107.127      -29.014       -7.920       31.427       24.081       18.206      987.626      579.913      331.462        0.714        0.095      110.987       15.900        0.021      327.143       -7.566      859.489
12/05/2013  06:14:00      -85.693        1.060       -9.661       30.932       25.470       13.847      956.774      648.707      191.741        0.462        0.090       85.699       14.246        0.028      327.183       -7.501      859.484
12/05/2013  06:15:00      -96.864       12.972      -17.746       31.302       30.445       21.231      979.816      926.905      450.743        0.611        0.118       97.729       14.956        0.023      327.134       -7.581      859.486
12/05/2013  06:16:00     -100.013       22.720      -15.501       45.074       24.035       20.236     2031.661      577.696      409.509        0.689        0.151      102.561       19.964        0.038      327.296       -7.318      859.487
12/05/2013  06:17:00     -110.828       14.707       -9.820       30.580       19.616       16.866      935.115      384.775      284.454        0.710        0.080      111.800        8.783        0.006      327.274       -7.354      859.487
12/05/2013  06:18:00      -90.131       73.112      -23.018       19.499       27.224       15.406      380.205      741.142      237.346        0.768        0.068      116.056       12.533        0.012      327.234       -7.417      859.493
12/05/2013  06:19:00      -73.568       77.666      -25.202       18.534       23.115       14.400      343.505      534.318      207.348        0.658        0.054      106.978        9.797        0.008      327.254       -7.386      859.497
12/05/2013  06:20:00      -92.308      110.856      -27.431       22.980       28.491       14.556      528.084      811.731      211.873        1.156        0.078      144.256       12.976        0.008      327.249       -7.395      859.496
12/05/2013  06:21:00      -94.158      100.201      -23.452       24.590       27.054       18.189      604.675      731.916      330.823        1.056        0.083      137.499       15.150        0.012      327.217       -7.446      859.498
12/05/2013  06:22:00      -81.619      102.670      -26.956       26.228       34.819       19.159      687.893     1212.384      367.075        1.010        0.113      131.159       19.286        0.022      327.233       -7.419      859.505
12/05/2013  06:23:00      -76.398       52.270      -16.039       24.474       26.703       16.619      598.957      713.044      276.195        0.521        0.079       92.568       11.132        0.014      327.183       -7.502      859.506
12/05/2013  06:24:00      -50.164       75.992      -23.371       34.743       27.442       16.855     1207.109      753.041      284.081        0.554        0.112       91.056       17.420        0.037      327.115       -7.611      859.512
12/05/2013  06:25:00      -35.500       36.988       -3.000       16.816       24.958       15.611      282.775      622.909      243.703        0.189        0.057       51.267       14.381        0.079      327.199       -7.476      859.528
12/05/2013  06:26:00      -37.214        9.521        1.140       18.772       17.423       16.648      352.400      303.560      277.147        0.120        0.047       38.413       14.384        0.140      327.203       -7.468      859.549
12/05/2013  06:27:00      -43.773        1.284       -7.149       15.304       17.425        9.945      234.203      303.636       98.903        0.130        0.032       43.792        4.928        0.013      327.225       -7.434      859.562
12/05/2013  06:28:00      -36.237        1.111       -0.261       15.500       17.528       11.029      240.246      307.233      121.636        0.099        0.033       36.254        6.450        0.032      327.286       -7.333      859.565
12/05/2013  06:29:00       -2.750      -21.618        6.671       25.631       30.580       12.911      656.964      935.151      166.686        0.114        0.088       21.792        9.251        0.180      327.295       -7.320      859.569
12/05/2013  06:30:00      -26.473      -28.430       10.702       42.401       26.705       21.256     1797.856      713.141      451.803        0.229        0.148       38.847       18.341        0.223      327.224       -7.436      859.565
12/05/2013  06:31:00     -118.725      -41.886      -15.034       29.354       28.776       14.880      861.638      828.034      221.410        0.899        0.096      125.897       10.808        0.007      327.146       -7.561      859.576
12/05/2013  06:32:00      -45.851      -36.098       -2.476       48.746       30.270       18.446     2376.135      916.279      340.239        0.352        0.182       58.356       25.528        0.191      327.199       -7.474      859.582
12/05/2013  06:33:00     -120.283       58.241      -27.659       39.746       46.284       24.460     1579.770     2142.212      598.295        1.147        0.216      133.641       23.667        0.031      327.113       -7.614      859.608
12/05/2013  06:34:00      -11.857      -36.844        0.868       34.307       26.956       17.292     1176.989      726.643      299.016        0.185        0.110       38.705        8.165        0.045      327.110       -7.618      859.635
12/05/2013  06:35:00     -111.506      -71.119        0.147       79.426       46.059       25.119     6308.567     2121.422      630.946        1.327        0.453      132.255       29.321        0.049      327.184       -7.500      859.649
12/05/2013  06:36:00     -160.090      -81.989      -10.194       46.405       43.810       27.970     2153.420     1919.301      782.319        1.865        0.243      179.864       30.104        0.028      327.060       -7.702      859.667
12/05/2013  06:37:00     -106.225      -61.521       -3.105       52.192       37.181       27.673     2723.956     1382.396      765.815        0.997        0.244      122.754       29.055        0.056      327.127       -7.592      859.676
12/05/2013  06:38:00     -112.966      -27.891       -2.817       52.183       39.432       26.326     2723.048     1554.909      693.061        0.926        0.249      116.358       24.084        0.043      327.175       -7.514      859.678
12/05/2013  06:39:00     -125.738      -50.892        0.337       45.840       48.984       23.703     2101.310     2399.413      561.813        1.173        0.253      135.646       11.285        0.007      327.171       -7.522      859.683
12/05/2013  06:40:00     -135.016      -41.392        2.440       35.860       36.971       19.466     1285.973     1366.833      378.943        1.149        0.152      141.218       16.638        0.014      327.090       -7.653      859.693
12/05/2013  06:41:00      -95.358      -50.143        1.196       55.519       41.860       25.352     3082.408     1752.232      642.704        0.854        0.274      107.738       28.605        0.070      327.147       -7.560      859.702
12/05/2013  06:42:00     -125.368       14.432       -3.621       43.183       51.565       28.477     1864.743     2658.958      810.934        1.064        0.267      126.196       21.936        0.030      327.162       -7.537      859.710
12/05/2013  06:43:00      -50.528       27.631        4.348       44.322       48.585       36.583     1964.475     2360.467     1338.320        0.450        0.283       57.590       26.265        0.208      327.182       -7.503      859.718
12/05/2013  06:44:00     -114.645       61.978      -21.046       36.532       36.269       23.669     1334.582     1315.459      560.213        1.032        0.161      130.325       22.516        0.030      327.118       -7.607      859.735
12/05/2013  06:45:00      -47.351      130.141      -16.078       30.881       50.748       23.910      953.659     2575.370      571.702        1.177        0.205      138.488       14.874        0.012      327.131       -7.585      859.753
12/05/2013  06:46:00        1.811       70.794       -7.194       45.669       21.164       20.891     2085.640      447.934      436.422        0.402        0.148       70.817       17.119        0.058      327.099       -7.637      859.762
12/05/2013  06:47:00       45.143       29.669       -7.520       28.115       21.191       21.458      790.459      449.041      460.457        0.234        0.085       54.020        8.423        0.024      327.110       -7.620      859.766
12/05/2013  06:48:00       41.360       45.470        6.714       16.713       16.533       19.272      279.329      273.336      371.429        0.237        0.046       61.467       13.964        0.052      327.113       -7.614      859.762
12/05/2013  06:49:00       12.185       65.752       -5.152       18.433       18.523       14.113      339.766      343.112      199.166        0.269        0.044       66.872       11.440        0.029      327.109       -7.620      859.766
12/05/2013  06:50:00        7.885       29.023        3.783       13.081       28.432       12.986      171.105      808.381      168.644        0.103        0.057       30.075       15.689        0.272      327.163       -7.535      859.781
12/05/2013  06:51:00       29.303       22.583        0.520       24.209       13.496       13.060      586.096      182.147      170.572        0.115        0.047       36.996        9.105        0.061      327.109       -7.621      859.793
12/05/2013  06:52:00       20.772       22.194       11.408       14.157       10.127       14.235      200.409      102.564      202.646        0.078        0.025       30.398        7.958        0.069      327.128       -7.591      859.807
12/05/2013  06:53:00      -22.876       49.908       -2.529       32.289       40.172       20.513     1042.568     1613.767      420.765        0.305        0.154       54.901       20.040        0.133      327.179       -7.509      859.825
12/05/2013  06:54:00     -103.055       18.199      -11.151       47.333       38.036       15.737     2240.393     1446.761      247.637        0.750        0.197      104.650        8.399        0.006      326.992       -7.810      859.840
12/05/2013  06:55:00      -65.150       17.148       -2.431       35.273       26.468       16.934     1244.155      700.548      286.756        0.339        0.112       67.369       16.132        0.057      326.974       -7.840      859.850
12/05/2013  06:56:00      -83.565       33.919       -6.322       21.951       21.189       17.810      481.825      448.954      317.181        0.471        0.062       90.187        9.488        0.011      326.914       -7.937      859.862
12/05/2013  06:57:00      -53.640       -4.876        5.102       36.309       43.432       22.837     1318.339     1886.380      521.520        0.333        0.186       53.861       18.988        0.124      327.059       -7.701      859.857
12/05/2013  06:58:00       -2.034       48.323        5.146       24.800       33.753       30.229      615.053     1139.235      913.807        0.252        0.133       48.366       22.059        0.208      327.093       -7.648      859.852
12/05/2013  06:59:00       -6.402       34.391        3.771       27.793       21.042       18.418      772.450      442.785      339.216        0.140        0.078       34.982       13.954        0.159      327.141       -7.570      859.848
12/05/2013  07:00:00        5.214       32.241        5.794       23.928       30.602       19.353      572.538      936.490      374.543        0.149        0.094       32.660       19.850        0.369      327.051       -7.715      859.834
12/05/2013  07:01:00        9.565      109.463        4.037       34.438       32.758       28.834     1185.967     1073.091      831.396        0.759        0.155      109.880       20.485        0.035      326.988       -7.816      859.814
12/05/2013  07:02:00        5.041      127.651      -12.940       23.304       45.384       27.024      543.098     2059.695      730.298        0.991        0.167      127.751       28.678        0.050      326.856       -8.033      859.811
12/05/2013  07:03:00      -25.874      139.495       -6.937       28.984       48.094       23.634      840.080     2313.073      558.574        1.194        0.186      141.874       23.990        0.029      326.910       -7.944      859.812
12/05/2013  07:04:00       -3.705       71.264       -3.737       32.625       39.332       23.428     1064.412     1547.034      548.871        0.413        0.158       71.360       22.043        0.095      326.923       -7.923      859.812
12/05/2013  07:05:00        1.699      118.803      -16.522       17.220       18.784       12.481      296.530      352.848      155.776        0.760        0.040      118.816        6.107        0.003      326.711       -8.267      859.794
12/05/2013  07:06:00      -17.339      118.910       -9.385       32.723       39.990       17.285     1070.768     1599.187      298.782        0.875        0.148      120.167        8.523        0.005      326.885       -7.983      859.780
12/05/2013  07:07:00      -59.227       10.746       -2.468       17.272       29.589       18.423      298.335      875.482      339.418        0.257        0.076       60.194       14.967        0.062      326.916       -7.935      859.773
12/05/2013  07:08:00     -132.815       -5.224       -4.370       20.914       36.565       15.758      437.411     1337.005      248.301        0.985        0.101      132.918        9.405        0.005      326.895       -7.969      859.766
12/05/2013  07:09:00      -88.849       12.329       -6.414       41.620       29.191       20.780     1732.237      852.087      431.821        0.555        0.151       89.700       15.831        0.031      326.836       -8.065      859.763
12/05/2013  07:10:00     -102.922        2.294       -8.291       32.319       19.971       11.623     1044.528      398.823      135.087        0.612        0.079      102.948       12.828        0.016      326.776       -8.162      859.777
12/05/2013  07:11:00      -61.317       36.836       -8.238       28.222       40.978       17.586      796.484     1679.159      309.272        0.398        0.139       71.531       23.299        0.106      326.930       -7.912      859.795
12/05/2013  07:12:00      -85.293       79.616      -25.354       14.979       22.379       12.845      224.363      500.822      165.003        0.757        0.045      116.677        8.028        0.005      326.831       -8.071      859.804
12/05/2013  07:13:00      -77.836       61.627      -11.718       19.181       30.784       18.058      367.915      947.644      326.107        0.582        0.082       99.279       14.765        0.022      326.854       -8.033      859.815
12/05/2013  07:14:00      -74.320       36.904      -12.213       20.797       21.874       17.167      432.508      478.493      294.690        0.412        0.060       82.979       10.215        0.015      326.887       -7.981      859.830
12/05/2013  07:15:00      -78.236       91.030      -26.988       22.408       29.644       15.664      502.099      878.783      245.377        0.838        0.081      120.030       11.843        0.010      326.928       -7.915      859.835
12/05/2013  07:16:00      -75.958      116.576      -22.706       34.080       30.376       21.835     1161.468      922.722      476.761        1.122        0.128      139.139       17.948        0.017      326.900       -7.961      859.846
12/05/2013  07:17:00      -97.536       86.817      -24.542       40.733       37.036       19.505     1659.158     1371.632      380.430        1.053        0.171      130.578       22.349        0.029      326.917       -7.933      859.866
12/05/2013  07:18:00      -77.312       79.103      -18.488       37.808       27.791       19.067     1429.410      772.347      363.552        0.757        0.128      110.609       19.488        0.031      326.954       -7.873      859.884
12/05/2013  07:19:00     -107.869       64.743      -25.824       29.286       26.590       17.850      857.692      707.015      318.625        0.919        0.094      125.807       14.888        0.014      326.993       -7.809      859.893
12/05/2013  07:20:00     -104.823       -8.609      -18.554       25.791       29.030       13.650      665.164      842.734      186.310        0.655        0.085      105.176       14.496        0.019      326.961       -7.861      859.897
12/05/2013  07:21:00     -109.521      -18.621       -4.731       38.183       38.448       19.986     1457.928     1478.218      399.434        0.785        0.167      111.093       17.446        0.025      327.001       -7.798      859.899
12/05/2013  07:22:00      -91.801      -10.039       -5.484       21.935       37.824       16.266      481.155     1430.664      264.593        0.537        0.109       92.349        9.693        0.011      327.043       -7.729      859.905
12/05/2013  07:23:00      -82.904       -6.961       -3.239       25.772       26.281       20.908      664.197      690.691      437.144        0.436        0.090       83.196       15.144        0.033      327.128       -7.590      859.910
12/05/2013  07:24:00      -38.614      -33.453        1.606       48.501       38.479       26.833     2352.337     1480.604      719.995        0.358        0.228       51.090       23.683        0.215      327.118       -7.607      859.919
12/05/2013  07:25:00      -60.015      -59.078        3.147       43.022       25.775       17.396     1850.850      664.340      302.611        0.496        0.141       84.214       19.030        0.051      326.986       -7.819      859.928
12/05/2013  07:26:00      -80.989      -39.285       -7.755       26.691       25.226       13.683      712.393      636.370      187.216        0.485        0.077       90.014       15.522        0.030      326.964       -7.855      859.924
12/05/2013  07:27:00      -29.798      -23.738        0.632       34.530       26.426       19.224     1192.339      698.350      369.557        0.186        0.113       38.097       13.671        0.129      327.161       -7.539      859.916
12/05/2013  07:28:00      -24.832      -27.881        8.283       45.492       22.617       21.238     2069.527      511.538      451.044        0.225        0.152       37.337       26.513        0.504      327.183       -7.500      859.910
12/05/2013  07:29:00      -25.442      -22.927        4.068       54.604       35.010       25.491     2981.575     1225.691      649.790        0.302        0.243       34.248       23.218        0.460      327.135       -7.579      859.908
12/05/2013  07:30:00      -30.722      -18.550        0.807       49.725       36.962       23.026     2472.526     1366.215      530.214        0.283        0.218       35.888       20.307        0.320      327.152       -7.553      859.908
12/05/2013  07:31:00      -74.777      -32.856        4.171       24.331       35.704       18.597      591.980     1274.800      345.861        0.445        0.111       81.677       14.024        0.029      327.007       -7.787      859.909
12/05/2013  07:32:00      -99.524      -37.369        0.721       32.384       41.528       19.711     1048.695     1724.581      388.538        0.723        0.158      106.309       19.259        0.033      326.943       -7.891      859.900
12/05/2013  07:33:00     -105.808        8.453       -9.092       25.652       31.442       16.343      658.002      988.607      267.108        0.663        0.096      106.145        8.776        0.007      326.920       -7.928      859.894
12/05/2013  07:34:00     -122.157       22.385      -16.064       34.868       30.285       21.151     1215.746      917.210      447.386        0.913        0.129      124.191       15.383        0.015      326.905       -7.953      859.901
12/05/2013  07:35:00     -115.606       27.352      -11.015       22.846       25.220       16.862      521.928      636.040      284.338        0.784        0.072      118.798        9.345        0.006      326.967       -7.852      859.919
12/05/2013  07:36:00     -150.081       31.402      -21.109       21.764       20.791       14.650      473.655      432.263      214.609        1.254        0.056      153.331        8.896        0.003      326.909       -7.947      859.929
12/05/2013  07:37:00     -134.888       25.677      -21.315       30.626       21.749       14.983      937.951      473.007      224.503        1.047        0.082      137.310       11.144        0.007      326.924       -7.922      859.927
12/05/2013  07:38:00      -58.295       19.374       -8.615       20.959       25.841       11.738      439.293      667.747      137.792        0.255        0.062       61.430        5.304        0.007      327.041       -7.733      859.920
12/05/2013  07:39:00      -73.512       65.823      -11.473       23.916       31.276       17.878      571.995      978.198      319.627        0.587        0.093       98.675       12.330        0.016      327.140       -7.571      859.925
12/05/2013  07:40:00      -67.199       73.524      -16.586       28.397       31.110       18.477      806.372      967.822      341.400        0.616        0.106       99.606       10.238        0.011      327.128       -7.590      859.935
12/05/2013  07:41:00      -67.780       48.383      -15.329       31.916       29.789       18.106     1018.625      887.410      327.827        0.470        0.112       83.277       17.471        0.044      326.983       -7.826      859.954
12/05/2013  07:42:00      -47.283       14.992       -7.670       14.982       21.199        9.774      224.453      449.410       95.540        0.164        0.038       49.603        8.086        0.027      326.978       -7.834      859.968
12/05/2013  07:43:00      -52.723       46.938      -17.681       15.533       25.724       16.719      241.273      661.717      279.519        0.324        0.059       70.590       13.437        0.036      327.029       -7.751      859.982
12/05/2013  07:44:00      -33.483       20.238      -14.813       24.380       26.346       12.938      594.383      694.108      167.385        0.160        0.073       39.124       16.444        0.177      327.054       -7.712      859.990
12/05/2013  07:45:00      -59.287        3.296       -6.399       13.595       12.470       12.983      184.835      155.501      168.547        0.204        0.025       59.379        7.671        0.017      327.026       -7.756      859.993
12/05/2013  07:46:00      -52.869        1.759       -5.695       35.643       19.653       10.927     1270.398      386.225      119.401        0.230        0.089       52.898       11.095        0.044      327.049       -7.719      860.001
12/05/2013  07:47:00      -74.845      -55.767       -7.292       39.788       26.330       13.763     1583.092      693.244      189.424        0.561        0.123       93.337       11.735        0.016      327.076       -7.675      860.005
12/05/2013  07:48:00      -43.054       14.468       -0.849       33.709       27.708       20.707     1136.315      767.714      428.798        0.220        0.117       45.419       15.353        0.114      327.111       -7.618      860.000
12/05/2013  07:49:00      -91.700       41.742      -12.600       18.485       13.635       11.889      341.700      185.912      141.352        0.549        0.033      100.753        7.173        0.005      326.998       -7.802      860.004
12/05/2013  07:50:00      -66.815       14.897       -5.441       14.786       11.831        8.966      218.624      139.968       80.389        0.258        0.022       68.455        5.832        0.007      327.069       -7.688      860.008
12/05/2013  07:51:00      -14.782       37.531        0.326       24.846       28.187       15.234      617.316      794.513      232.065        0.164        0.082       40.337       14.083        0.122      327.226       -7.431      860.001
12/05/2013  07:52:00        4.895       82.065       -2.331       17.118       36.989       15.350      293.024     1368.192      235.615        0.433        0.095       82.211       18.746        0.052      327.098       -7.639      859.999
12/05/2013  07:53:00      -10.388      111.175        7.590       25.939       35.867       20.678      672.811     1286.464      427.599        0.746        0.119      111.660       20.962        0.035      327.145       -7.563      860.012
12/05/2013  07:54:00      -27.210       76.677       -5.354       32.374       41.286       22.470     1048.092     1704.511      504.886        0.495        0.163       81.362       19.393        0.057      327.298       -7.315      860.014
12/05/2013  07:55:00      -94.066      142.043      -22.112       24.543       23.934       18.864      602.349      572.844      355.864        1.552        0.077      170.366       11.488        0.005      327.005       -7.790      860.026
12/05/2013  07:56:00      -95.706      134.493      -24.119       22.517       40.121       22.488      507.016     1609.666      505.695        1.523        0.131      165.069       14.364        0.008      327.027       -7.754      860.046
12/05/2013  07:57:00     -126.973      154.379      -39.349       31.665       30.560       21.516     1002.681      933.941      462.957        2.195        0.120      199.887       17.958        0.008      326.973       -7.843      860.052
12/05/2013  07:58:00     -104.811      121.028      -32.728       34.509       27.426       18.619     1190.875      752.184      346.668        1.450        0.114      160.104       14.194        0.008      327.039       -7.735      860.071
12/05/2013  07:59:00      -93.908      120.499      -28.501       34.527       32.547       20.074     1192.127     1059.303      402.956        1.340        0.133      152.770       12.770        0.007      327.081       -7.666      860.075
12/05/2013  08:00:00      -98.876      133.714      -29.573       32.439       42.018       25.383     1052.282     1765.508      644.283        1.600        0.173      166.301       12.055        0.005      327.035       -7.742      860.082
12/05/2013  08:01:00      -71.832       57.680      -17.981       22.886       38.109       17.054      523.784     1452.329      290.822        0.554        0.113       92.124       17.845        0.038      327.150       -7.554      860.080
12/05/2013  08:02:00      -46.962       33.732      -10.611       24.770       32.039       16.568      613.545     1026.514      274.494        0.268        0.096       57.821       16.770        0.084      327.226       -7.433      860.083
12/05/2013  08:03:00      -69.534       16.497      -16.201       26.751       36.506       14.855      715.598     1332.686      220.658        0.382        0.113       71.464       12.519        0.031      327.314       -7.289      860.088
12/05/2013  08:04:00      -22.008      -14.815       -4.536       42.084       36.934       13.544     1771.023     1364.122      183.431        0.202        0.166       26.530       12.152        0.210      327.271       -7.359      860.080
12/05/2013  08:05:00      -26.189       49.853       -7.241       23.029       18.191       16.030      530.324      330.927      256.949        0.217        0.056       56.314        8.882        0.025      327.391       -7.163      860.094
12/05/2013  08:06:00      -18.464       11.385       17.272       36.671       31.121       20.085     1344.735      968.487      403.419        0.174        0.136       21.692       12.686        0.342      327.464       -7.045      860.098
12/05/2013  08:07:00       15.996        5.292        5.483       18.452       35.971       17.908      340.474     1293.928      320.697        0.113        0.098       16.849       12.242        0.528      327.368       -7.202      860.099
12/05/2013  08:08:00        0.282       -6.214        9.382       27.369       20.863       18.117      749.088      435.272      328.227        0.082        0.076        6.220       17.042        7.507      327.466       -7.041      860.117
12/05/2013  08:09:00       -9.971       14.281       16.934       39.101       28.095       20.216     1528.919      789.347      408.695        0.166        0.136       17.417       17.526        1.013      327.439       -7.086      860.131
12/05/2013  08:10:00        1.128      145.744      -13.249       17.973       26.346       19.028      323.036      694.131      362.068        1.140        0.069      145.749       11.790        0.007      327.050       -7.717      860.164
12/05/2013  08:11:00      -13.897      111.008       -7.702       16.568       19.752       14.774      274.488      390.157      218.265        0.673        0.044      111.874       10.102        0.008      327.207       -7.462      860.192
12/05/2013  08:12:00      -51.148       64.856       -2.368       29.473       33.144       20.790      868.660     1098.522      432.224        0.461        0.120       82.598       11.983        0.021      327.326       -7.269      860.212
12/05/2013  08:13:00      -69.047       62.981      -19.119       24.102       43.087       22.402      580.918     1856.515      501.833        0.602        0.147       93.456       17.550        0.035      327.256       -7.383      860.232
12/05/2013  08:14:00      -29.985       59.967       -5.298       37.154       19.653       19.784     1380.456      386.227      391.403        0.334        0.108       67.046       21.865        0.106      327.147       -7.560      860.242
12/05/2013  08:15:00      -12.535       62.008        6.184       32.910       41.288       26.288     1083.061     1704.664      691.062        0.376        0.174       63.262       27.556        0.190      327.270       -7.359      860.240
12/05/2013  08:16:00      -44.428       83.299       -0.110       29.249       29.942       22.268      855.481      896.544      495.851        0.558        0.112       94.407       17.722        0.035      327.304       -7.306      860.237
12/05/2013  08:17:00      -59.817       76.136       -4.459       29.779       39.532       24.108      886.788     1562.813      581.200        0.621        0.152       96.823       21.706        0.050      327.307       -7.300      860.249
12/05/2013  08:18:00      -66.989      111.430      -23.146       36.578       25.737       22.560     1337.951      662.403      508.963        0.997        0.125      130.016       14.961        0.013      327.159       -7.539      860.254
12/05/2013  08:19:00      -58.113       76.491       -9.537       38.318       36.313       20.052     1468.267     1318.667      402.069        0.625        0.159       96.063       20.922        0.047      327.251       -7.392      860.269
12/05/2013  08:20:00      -37.205       22.870       -4.582       25.239       26.832       16.671      637.008      719.952      277.916        0.178        0.082       43.672       13.792        0.100      327.444       -7.078      860.271
12/05/2013  08:21:00      -71.851       13.621       -5.371       24.050       21.760       18.676      578.383      473.518      348.784        0.339        0.070       73.130        6.536        0.008      327.300       -7.311      860.282
12/05/2013  08:22:00      -37.363       20.671        1.921       41.918       15.450       24.537     1757.147      238.690      602.072        0.221        0.130       42.700       24.113        0.319      327.419       -7.117      860.292
12/05/2013  08:23:00     -112.506      -11.895      -10.248       30.213       37.140       25.738      912.854     1379.393      662.421        0.793        0.148      113.133       16.106        0.020      327.190       -7.490      860.310
12/05/2013  08:24:00      -42.462      -45.227        3.616       37.207       32.057       20.750     1384.380     1027.649      430.573        0.335        0.142       62.037       19.308        0.097      327.305       -7.302      860.323
12/05/2013  08:25:00      -75.740      -29.511       -9.020       35.614       22.946       19.386     1268.381      526.517      375.812        0.443        0.109       81.286       11.046        0.018      327.251       -7.391      860.329
12/05/2013  08:26:00      -64.362      -27.677        1.510       49.050       45.952       18.870     2405.862     2111.616      356.058        0.489        0.244       70.060       15.956        0.052      327.372       -7.193      860.337
12/05/2013  08:27:00     -144.178       19.720      -19.042       27.872       22.684       16.239      776.831      514.553      263.690        1.155        0.078      145.521       12.965        0.008      327.131       -7.587      860.340
12/05/2013  08:28:00     -130.911        9.006      -19.803       22.304       26.507       16.886      497.474      702.642      285.141        0.955        0.074      131.220        7.570        0.003      327.122       -7.601      860.344
12/05/2013  08:29:00     -100.207       20.778       -9.393       29.294       22.690       16.469      858.139      514.853      271.226        0.610        0.082      102.338       13.544        0.018      327.173       -7.518      860.327
12/05/2013  08:30:00      -73.176       45.348      -19.245       28.075       50.511       16.148      788.179     2551.347      260.763        0.569        0.180       86.088       14.629        0.029      327.206       -7.464      860.317
12/05/2013  08:31:00      -96.283      101.213      -29.006       28.888       38.980       22.513      834.530     1519.450      506.830        1.161        0.143      139.694       23.603        0.029      327.192       -7.488      860.307
12/05/2013  08:32:00     -108.261       55.938      -20.910       25.510       28.484       16.148      650.745      811.356      260.767        0.850        0.086      121.858       14.179        0.014      327.217       -7.445      860.320
12/05/2013  08:33:00     -115.173       -3.228       -9.967       28.633       24.581       17.877      819.836      604.215      319.587        0.756        0.087      115.218       14.598        0.016      327.153       -7.551      860.326
12/05/2013  08:34:00      -34.234        8.807      -10.876       33.707       40.149       26.637     1136.182     1611.935      709.510        0.241        0.173       35.349       16.051        0.206      327.258       -7.380      860.344
12/05/2013  08:35:00      -72.882      -28.289       -5.083       38.577       26.766       25.351     1488.214      716.403      642.665        0.449        0.142       78.179       24.870        0.101      327.270       -7.360      860.351
12/05/2013  08:36:00      -43.179       57.849       -4.246       16.654       34.870       20.518      277.358     1215.889      420.982        0.357        0.096       72.187       19.199        0.071      327.401       -7.146      860.369
12/05/2013  08:37:00      -29.278       66.727        3.015       25.868       35.155       25.888      669.156     1235.840      670.183        0.395        0.129       72.867       19.528        0.072      327.470       -7.036      860.381
12/05/2013  08:38:00      -43.750       42.298        3.514       22.017       22.776       23.472      484.749      518.755      550.935        0.263        0.078       60.854       15.648        0.066      327.408       -7.136      860.388
12/05/2013  08:39:00      -16.807       10.722        5.364       29.593       16.380       21.751      875.756      268.306      473.114        0.102        0.081       19.936        7.947        0.159      327.460       -7.051      860.399
12/05/2013  08:40:00      -38.600        5.460      -12.471       30.415       16.851       11.909      925.047      283.961      141.821        0.151        0.068       38.985        4.253        0.012      327.362       -7.210      860.398
12/05/2013  08:41:00      -14.981       40.419       -6.178       21.063       30.671       19.708      443.670      940.695      388.414        0.183        0.089       43.106       21.573        0.250      327.400       -7.148      860.394
12/05/2013  08:42:00      -49.353       22.023        2.477       22.362       21.235       18.292      500.057      450.928      334.604        0.211        0.064       54.044       15.456        0.082      327.341       -7.244      860.384
12/05/2013  08:43:00      -26.193      -18.737        9.279       24.100       20.183       14.817      580.827      407.340      219.555        0.117        0.060       32.205       13.592        0.178      327.478       -7.023      860.387
12/05/2013  08:44:00      -26.262       23.100        1.455       28.554       32.870       17.549      815.328     1080.449      307.982        0.171        0.110       34.976       11.962        0.117      327.590       -6.839      860.390
12/05/2013  08:45:00      -57.787       26.296       -6.043       19.741       17.617       19.050      389.689      310.351      362.891        0.256        0.053       63.488       12.522        0.039      327.510       -6.971      860.403
12/05/2013  08:46:00      -62.076       46.761       -6.318       27.251       30.072       13.928      742.639      904.345      193.978        0.396        0.092       77.717       10.573        0.019      327.467       -7.040      860.419
12/05/2013  08:47:00      -30.763       74.107       -4.286       21.969       35.700       21.223      482.631     1274.464      450.409        0.433        0.110       80.239       19.627        0.060      327.475       -7.027      860.432
12/05/2013  08:48:00      -45.048       21.543        6.638       57.265       37.193       28.053     3279.267     1383.354      786.992        0.399        0.272       49.934       33.068        0.439      327.591       -6.839      860.449
12/05/2013  08:49:00     -105.521       16.542       -3.120       27.475       25.963       20.163      754.896      674.059      406.553        0.663        0.092      106.810       16.084        0.023      327.311       -7.293      860.458
12/05/2013  08:50:00      -69.242      -25.599        1.631       33.392       33.067       19.818     1115.004     1093.431      392.769        0.403        0.130       73.822       19.865        0.072      327.345       -7.237      860.466
12/05/2013  08:51:00      -44.034        9.604        0.187       29.860       28.558       19.208      891.624      815.541      368.954        0.205        0.104       45.069       19.848        0.194      327.482       -7.015      860.465
12/05/2013  08:52:00      -24.027       61.817       10.483       31.339       47.110       29.713      982.137     2219.362      882.883        0.430        0.204       66.322       22.824        0.118      327.745       -6.589      860.474
12/05/2013  08:53:00       19.193       96.359        5.911       53.509       66.293       37.102     2863.181     4394.784     1376.570        0.916        0.432       98.252       38.747        0.156      327.519       -6.956      860.471
12/05/2013  08:54:00      -34.376       84.345       -4.370       41.300       43.014       26.689     1705.703     1850.237      712.289        0.629        0.213       91.081       26.103        0.082      327.683       -6.689      860.492
12/05/2013  08:55:00      -12.900      158.579      -20.723       36.973       40.631       24.432     1366.977     1650.908      596.903        1.468        0.181      159.103       12.041        0.006      327.482       -7.017      860.520
12/05/2013  08:56:00      -22.645      142.727      -11.506       35.341       37.707       28.275     1248.975     1421.816      799.449        1.224        0.174      144.512       25.534        0.031      327.555       -6.896      860.552
12/05/2013  08:57:00       -9.459      130.657      -14.764       33.704       57.869       20.472     1135.993     3348.823      419.106        1.114        0.245      130.999       25.473        0.038      327.413       -7.129      860.567
12/05/2013  08:58:00       27.321      131.416      -11.033       31.887       66.783       34.170     1016.803     4460.009     1167.599        1.239        0.332      134.225       40.202        0.090      327.437       -7.090      860.569
12/05/2013  08:59:00       -6.242      204.461      -20.592       32.406       45.841       24.112     1050.170     2101.436      581.402        2.300        0.187      204.556       23.019        0.013      327.328       -7.269      860.573
12/05/2013  09:00:00       -9.948       80.504       -2.490       29.286       42.117       21.911      857.681     1773.806      480.106        0.485        0.156       81.116       23.722        0.086      327.662       -6.722      860.573
12/05/2013  09:01:00       19.594       61.283        0.312       24.251       56.872       28.364      588.123     3234.480      804.540        0.438        0.231       64.339       30.104        0.219      327.669       -6.710      860.588
12/05/2013  09:02:00       14.684      119.872       -7.063       28.104       36.787       28.930      789.836     1353.292      836.968        0.881        0.149      120.768       21.238        0.031      327.510       -6.969      860.599
12/05/2013  09:03:00        6.490       71.883        2.434       32.081       42.948       29.697     1029.216     1844.508      881.886        0.448        0.188       72.175       28.708        0.158      327.576       -6.863      860.617
12/05/2013  09:04:00        7.467      145.067      -16.174       34.956       58.974       27.539     1221.937     3477.896      758.402        1.341        0.273      145.259       29.513        0.041      327.445       -7.074      860.625
12/05/2013  09:05:00      -44.254      163.475      -20.326       37.871       75.616       20.106     1434.216     5717.849      404.233        1.832        0.378      169.359       16.814        0.010      327.380       -7.183      860.647
12/05/2013  09:06:00       -2.839      124.388       -8.823       22.619       58.993       26.898      511.625     3480.136      723.498        1.014        0.236      124.421       33.441        0.072      327.496       -6.994      860.657
12/05/2013  09:07:00        0.924      154.428      -14.392       31.356       35.654       23.043      983.201     1271.226      530.973        1.342        0.139      154.430       22.511        0.021      327.455       -7.060      860.651
12/05/2013  09:08:00       -6.233      214.008      -25.833       29.884       35.300       21.715      893.059     1246.111      471.532        2.456        0.131      214.098       14.700        0.005      327.392       -7.164      860.644
12/05/2013  09:09:00      -33.226      207.543      -17.865       41.618       55.829       26.975     1732.052     3116.840      727.667        2.504        0.279      210.186       26.707        0.016      327.471       -7.035      860.637
12/05/2013  09:10:00      -44.468      179.576      -15.557       28.525       38.165       22.345      813.689     1456.578      499.300        1.862        0.138      185.000       16.527        0.008      327.486       -7.010      860.631
12/05/2013  09:11:00      -42.731      103.364       -7.110       43.956       59.316       29.041     1932.154     3518.389      843.385        0.943        0.315      111.848       24.633        0.049      327.683       -6.688      860.633
12/05/2013  09:12:00      -39.281       89.610        7.754       44.804       59.239       37.624     2007.415     3509.257     1415.602        0.828        0.347       97.841       37.579        0.148      327.736       -6.602      860.645
12/05/2013  09:13:00      -82.992      168.071      -23.897       44.092       54.221       34.332     1944.062     2939.899     1178.670        2.088        0.303      187.445       33.538        0.032      327.565       -6.882      860.656
12/05/2013  09:14:00      -40.681       60.398       14.977       52.166       49.986       35.028     2721.332     2498.619     1226.933        0.599        0.322       72.821       38.812        0.284      327.706       -6.651      860.668
12/05/2013  09:15:00        4.715       12.799        1.299       21.679       32.232       19.873      469.965     1038.886      394.923        0.105        0.095       13.640       20.506        2.260      327.845       -6.425      860.667
12/05/2013  09:16:00      -52.485      123.302      -25.397       42.905       43.875       23.331     1840.855     1925.049      544.326        1.146        0.216      134.007       16.536        0.015      327.537       -6.926      860.666
12/05/2013  09:17:00      -95.944      149.757      -28.583       34.435       55.684       29.270     1185.788     3100.653      856.730        1.880        0.257      177.855       18.950        0.011      327.552       -6.903      860.662
12/05/2013  09:18:00      -26.831       71.695      -10.964       46.788       59.704       26.443     2189.127     3564.547      699.210        0.622        0.323       76.551       33.498        0.191      327.668       -6.713      860.657
12/05/2013  09:19:00       29.649       83.119       -7.076       35.016       58.499       31.298     1226.092     3422.089      979.556        0.673        0.281       88.248       35.905        0.166      327.606       -6.814      860.653
12/05/2013  09:20:00       18.349      170.815      -18.054       27.604       41.599       31.381      761.962     1730.514      984.787        1.666        0.174      171.798       20.746        0.015      327.513       -6.967      860.664
12/05/2013  09:21:00       -2.812      220.534      -32.109       22.765       27.166       16.889      518.268      737.988      285.254        2.561        0.077      220.552       12.946        0.003      327.372       -7.196      860.676
12/05/2013  09:22:00        7.709      187.069      -29.237       22.340       35.252       19.574      499.077     1242.717      383.154        1.902        0.106      187.228       18.086        0.009      327.450       -7.068      860.690
12/05/2013  09:23:00        3.014      122.105       -9.432       32.895       38.969       29.431     1082.054     1518.590      866.177        0.924        0.173      122.142       24.756        0.041      327.597       -6.827      860.701
12/05/2013  09:24:00       30.745       76.613        6.565       50.610       38.699       33.249     2561.405     1497.604     1105.464        0.601        0.258       82.552       28.567        0.120      327.704       -6.655      860.703
12/05/2013  09:25:00       13.705       75.973       -0.824       37.039       51.894       26.176     1371.883     2692.942      685.163        0.535        0.237       77.199       18.779        0.059      327.712       -6.642      860.686
12/05/2013  09:26:00        2.396      142.395       -2.128       34.361       49.013       37.740     1180.688     2402.251     1424.303        1.265        0.250      142.415       36.695        0.066      327.647       -6.747      860.687
12/05/2013  09:27:00       -6.069      148.446      -13.328       20.899       61.203       22.168      436.774     3745.759      491.434        1.346        0.234      148.570       26.540        0.032      327.570       -6.873      860.688
12/05/2013  09:28:00      -22.090      130.240      -21.054       22.183       34.734       16.877      492.064     1206.431      284.836        0.994        0.099      132.100       10.555        0.006      327.492       -6.999      860.710
12/05/2013  09:29:00        0.647      101.195       -8.429       21.873       48.790       23.936      478.423     2380.416      572.941        0.687        0.172      101.197       25.922        0.066      327.668       -6.714      860.731
12/05/2013  09:30:00       27.651      117.947      -11.961       31.559       33.937       26.974      995.987     1151.732      727.619        0.885        0.144      121.144       24.044        0.039      327.584       -6.848      860.744
12/05/2013  09:31:00       26.923       94.849       -2.239       41.654       45.399       33.065     1735.086     2061.043     1093.278        0.731        0.244       98.596       31.249        0.100      327.582       -6.853      860.758
12/05/2013  09:32:00       -4.578      138.515      -14.688       24.403       37.387       25.964      595.489     1397.777      674.136        1.104        0.133      138.591       25.187        0.033      327.559       -6.890      860.750
12/05/2013  09:33:00       24.448       81.306       -6.627       27.460       32.004       24.121      754.076     1024.272      581.801        0.481        0.118       84.902       23.693        0.078      327.645       -6.750      860.752
12/05/2013  09:34:00       18.793      102.990      -13.622       34.830       35.229       27.719     1213.137     1241.048      768.343        0.718        0.161      104.690       19.044        0.033      327.807       -6.488      860.750
12/05/2013  09:35:00       32.352       95.984       -8.964       41.799       58.361       35.912     1747.177     3405.990     1289.638        0.839        0.322      101.290       33.352        0.108      327.716       -6.635      860.765
12/05/2013  09:36:00       10.401      121.515        2.072       45.750       59.282       41.660     2093.059     3514.405     1735.546        1.111        0.367      121.959       40.810        0.112      327.733       -6.607      860.771
12/05/2013  09:37:00       12.453      108.394       -1.277       33.341       64.520       32.908     1111.633     4162.860     1082.965        0.913        0.318      109.107       33.413        0.094      327.731       -6.611      860.768
12/05/2013  09:38:00       46.352       40.622       -0.014       54.315       32.222       35.151     2950.070     1038.283     1235.628        0.451        0.261       61.633       25.609        0.173      327.709       -6.646      860.758
12/05/2013  09:39:00       11.960       81.352       -4.543       40.235       55.848       24.293     1618.840     3118.944      590.168        0.605        0.266       82.226       27.835        0.115      327.739       -6.597      860.752
12/05/2013  09:40:00      -17.715      127.507      -13.682       41.146       38.782       25.754     1692.989     1504.012      663.259        1.031        0.193      128.731       15.890        0.015      327.811       -6.481      860.758
12/05/2013  09:41:00       39.020       65.178       -6.969       29.935       53.989       35.968      896.092     2914.797     1293.664        0.546        0.255       75.966       28.662        0.142      327.758       -6.565      860.759
12/05/2013  09:42:00       26.648       87.422      -11.079       33.432       37.199       20.208     1117.668     1383.790      408.378        0.569        0.145       91.393       19.597        0.046      327.688       -6.680      860.748
12/05/2013  09:43:00        6.413       84.556       -6.396       20.896       38.786       27.766      436.635     1504.321      770.949        0.497        0.136       84.799       25.525        0.091      327.768       -6.549      860.745
12/05/2013  09:44:00       29.036       39.972        2.849       51.645       42.409       22.200     2667.232     1798.549      492.823        0.370        0.248       49.405       22.706        0.211      327.772       -6.544      860.723
12/05/2013  09:45:00       33.967       31.156       12.432       40.258       40.163       26.464     1620.697     1613.098      700.326        0.311        0.197       46.092       24.691        0.287      327.909       -6.322      860.710
12/05/2013  09:46:00       29.600       91.726       -3.970       36.029       61.956       32.289     1298.116     3838.523     1042.599        0.774        0.309       96.383       34.176        0.126      327.911       -6.318      860.699
12/05/2013  09:47:00       -7.899       37.094       11.360       29.415       35.138       22.630      865.225     1234.712      512.095        0.209        0.131       37.925       20.399        0.289      328.107       -5.998      860.684
12/05/2013  09:48:00       55.906       44.509        3.126       39.208       40.319       25.757     1537.281     1625.643      663.412        0.447        0.191       71.460       19.795        0.077      328.020       -6.140      860.667
12/05/2013  09:49:00       26.625       69.593      -10.958       45.073       47.030       28.729     2031.609     2211.776      825.369        0.537        0.253       74.512       30.830        0.171      328.001       -6.170      860.663
12/05/2013  09:50:00      -24.724      101.864      -17.219       32.724       45.788       22.498     1070.832     2096.583      506.147        0.748        0.184      104.821       11.636        0.012      327.808       -6.486      860.657
12/05/2013  09:51:00       53.651       39.879        8.631       40.679       21.394       26.306     1654.756      457.716      691.997        0.367        0.140       66.849       12.825        0.037      327.797       -6.502      860.659
12/05/2013  09:52:00       -8.263       14.999        9.203       35.615       28.070       18.859     1268.453      787.948      355.653        0.139        0.121       17.124       14.701        0.737      328.116       -5.984      860.658
12/05/2013  09:53:00      -15.532       72.920      -10.273       33.640       63.388       26.823     1131.644     4017.985      719.480        0.577        0.293       74.556       28.502        0.146      328.053       -6.087      860.657
12/05/2013  09:54:00        7.270      122.893      -18.206       24.566       41.797       21.639      603.492     1747.016      468.235        0.915        0.141      123.107       23.385        0.036      327.869       -6.386      860.643
12/05/2013  09:55:00       20.723      124.946      -11.088       26.631       45.900       28.284      709.192     2106.769      799.961        0.989        0.181      126.653       27.550        0.047      327.866       -6.392      860.631
12/05/2013  09:56:00        7.983       93.836        2.457       26.198       75.942       31.856      686.313     5767.221     1014.836        0.817        0.373       94.175       40.758        0.187      328.078       -6.047      860.616
12/05/2013  09:57:00      -64.986       87.813      -10.009       27.526       56.340       23.198      757.696     3174.183      538.169        0.825        0.224      109.245       21.641        0.039      327.853       -6.413      860.623
12/05/2013  09:58:00      -41.032       43.960      -15.802       26.874       42.220       14.333      722.193     1782.556      205.447        0.329        0.136       60.133       17.879        0.088      327.766       -6.554      860.627
12/05/2013  09:59:00       -0.197       49.752        6.218       27.681       48.198       23.583      766.248     2323.008      556.167        0.308        0.182       49.752       26.184        0.277      328.114       -5.987      860.628
12/05/2013  10:00:00       22.291       65.951       -4.258       22.817       30.023       32.990      520.632      901.395     1088.359        0.369        0.126       69.616       22.149        0.101      327.858       -6.404      860.632
12/05/2013  10:01:00       57.551       69.720       11.073       77.582       45.628       30.729     6019.002     2081.905      944.298        0.867        0.452       90.404       23.539        0.068      327.975       -6.214      860.625
12/05/2013  10:02:00      132.934       57.405        0.498       34.673       25.434       29.448     1202.199      646.880      867.160        1.184        0.136      144.799       22.977        0.025      327.854       -6.411      860.610
12/05/2013  10:03:00       19.231       59.304       60.324       25.641       32.625       27.323      657.459     1064.413      746.525        0.500        0.123       62.344       20.237        0.105      328.212       -5.827      860.603
12/05/2013  10:04:00        2.658       93.543       12.631       27.310       59.195       41.513      745.817     3504.020     1723.340        0.744        0.299       93.581       42.210        0.203      328.117       -5.982      860.613
12/05/2013  10:05:00       31.667       80.389       -2.246       38.722       44.814       25.181     1499.425     2008.280      634.084        0.581        0.207       86.402       23.801        0.076      328.128       -5.965      860.624
12/05/2013  10:06:00       -8.132       52.008       -4.576       24.677       31.363       23.538      608.957      983.616      554.041        0.247        0.107       52.640       19.268        0.134      328.252       -5.762      860.626
12/05/2013  10:07:00       -3.043      162.587      -19.225       29.014       47.635       24.103      841.791     2269.081      580.969        1.525        0.185      162.616       16.971        0.011      327.944       -6.263      860.635
12/05/2013  10:08:00      -49.402      114.398      -16.026       43.318       49.807       25.401     1876.408     2480.696      645.198        1.039        0.250      124.609       24.662        0.039      328.048       -6.093      860.643
12/05/2013  10:09:00      -37.631       79.855       -5.216       44.380       69.442       33.045     1969.616     4822.235     1091.972        0.785        0.394       88.277       36.069        0.167      328.249       -5.765      860.638
12/05/2013  10:10:00      -29.099      192.438      -23.864       27.244       43.063       26.508      742.244     1854.404      702.684        2.087        0.165      194.625       17.289        0.008      327.830       -6.452      860.637
12/05/2013  10:11:00        6.571      163.393      -18.232       31.776      100.301       40.358     1009.737    10060.288     1628.794        1.988        0.635      163.525       55.419        0.115      328.015       -6.150      860.614
12/05/2013  10:12:00       30.006      119.469       -0.417       48.025       62.587       45.475     2306.378     3917.171     2067.938        1.173        0.415      123.179       42.851        0.121      328.018       -6.143      860.594
12/05/2013  10:13:00        9.176      161.697       -5.559       41.709       88.408       49.413     1739.617     7816.017     2441.632        1.913        0.600      161.958       56.837        0.123      327.901       -6.335      860.580
12/05/2013  10:14:00      -23.230      237.276      -23.974       34.614       36.312       29.797     1198.108     1318.586      887.883        3.041        0.170      238.411       19.021        0.006      327.767       -6.556      860.559
12/05/2013  10:15:00      -46.279      158.186      -13.120       34.527       51.237       29.540     1192.123     2625.206      872.628        1.601        0.234      164.816       25.235        0.023      328.120       -5.978      860.546
12/05/2013  10:16:00      -29.509      141.182      -12.471       34.286       50.736       29.998     1175.536     2574.126      899.905        1.280        0.232      144.233       28.720        0.040      328.154       -5.923      860.532
12/05/2013  10:17:00      -13.882      172.170      -21.170       19.566       47.091       22.188      382.824     2217.588      492.308        1.669        0.155      172.729       23.402        0.018      327.877       -6.373      860.521
12/05/2013  10:18:00       23.590       61.727        4.737       27.811       43.895       23.332      773.475     1926.763      544.377        0.382        0.162       66.081       21.766        0.108      328.249       -5.766      860.524
12/05/2013  10:19:00      -31.490      107.441       -9.087       39.967       40.523       28.715     1597.333     1642.148      824.579        0.834        0.203      111.961       22.765        0.041      328.344       -5.613      860.531
12/05/2013  10:20:00      -49.811      114.279      -13.563       55.642       53.014       34.824     3096.031     2810.502     1212.719        1.142        0.356      124.663       33.456        0.072      328.177       -5.884      860.548
12/05/2013  10:21:00      -94.428       94.476      -31.332       23.319       30.475       14.775      543.754      928.750      218.302        1.026        0.085      133.575       14.668        0.012      327.853       -6.412      860.564
12/05/2013  10:22:00      -46.574       33.789       -6.890       39.698       18.526       15.413     1575.937      343.229      237.569        0.276        0.108       57.539       15.454        0.072      328.252       -5.761      860.555
12/05/2013  10:23:00      -20.085       22.888       13.724       42.397       30.973       27.011     1797.502      959.312      729.572        0.230        0.174       30.452       24.239        0.634      328.621       -5.159      860.553
12/05/2013  10:24:00      -17.367       58.096        7.777       45.183       39.477       29.869     2041.508     1558.453      892.138        0.411        0.225       60.636       19.562        0.104      328.397       -5.526      860.542
12/05/2013  10:25:00        9.984       39.331       15.833       49.220       27.338       30.551     2422.561      747.354      933.339        0.300        0.205       40.578       23.785        0.344      328.571       -5.242      860.530
12/05/2013  10:26:00        8.405       78.575       -1.281       38.850       53.501       30.128     1509.338     2862.317      907.681        0.576        0.264       79.023       26.901        0.116      328.443       -5.452      860.505
12/05/2013  10:27:00       -4.427      173.361      -20.734       27.733       77.901       30.252      769.103     6068.564      915.212        1.913        0.388      173.418       36.058        0.043      328.047       -6.098      860.486
12/05/2013  10:28:00       10.161      109.645       -0.933       24.670       90.584       40.306      608.623     8205.443     1624.547        1.128        0.522      110.115       52.410        0.227      328.265       -5.743      860.447
12/05/2013  10:29:00       42.347       51.201       26.581       36.645       29.133       26.761     1342.830      848.757      716.142        0.401        0.145       66.444       19.077        0.082      328.203       -5.842      860.414
12/05/2013  10:30:00       91.688       66.141       23.889       52.462       25.405       32.746     2752.299      645.427     1072.290        0.891        0.224      113.055       17.636        0.024      328.213       -5.826      860.393
12/05/2013  10:31:00      104.853       89.214       10.449       66.440       42.393       43.927     4414.251     1797.177     1929.604        1.360        0.407      137.671       30.665        0.050      328.225       -5.806      860.389
12/05/2013  10:32:00       89.513       78.711        2.855       37.152       32.507       39.322     1380.259     1056.691     1546.193        0.910        0.199      119.197       23.912        0.040      328.254       -5.759      860.392
12/05/2013  10:33:00       34.518       52.269      -35.161       38.635       28.880       33.120     1492.687      834.065     1096.902        0.429        0.171       62.638       21.886        0.122      327.969       -6.223      860.395
12/05/2013  10:34:00       42.846        7.444       -3.311       26.504       20.793       24.787      702.487      432.352      614.416        0.183        0.087       43.488       12.419        0.082      328.141       -5.942      860.395
12/05/2013  10:35:00       73.995       77.807        5.301       36.906       34.941       34.460     1362.062     1220.854     1187.519        0.766        0.189      107.374       16.936        0.025      328.229       -5.800      860.407
12/05/2013  10:36:00       27.545       14.174        1.209       34.260       40.972       18.493     1173.742     1678.728      341.998        0.208        0.160       30.978       17.009        0.301      328.291       -5.697      860.408
12/05/2013  10:37:00      -13.805       66.520       -2.271       18.145       37.034       19.913      329.256     1371.484      396.543        0.336        0.105       67.937       17.112        0.063      328.354       -5.596      860.403
12/05/2013  10:38:00        2.757       92.882       -8.814       16.460       31.689       23.297      270.933     1004.217      542.740        0.526        0.091       92.923       16.220        0.030      328.313       -5.664      860.401
12/05/2013  10:39:00      -30.579       82.158      -12.417       33.017       43.656       25.003     1090.123     1905.882      625.163        0.573        0.181       87.664       20.523        0.055      328.219       -5.816      860.398
12/05/2013  10:40:00      -62.438       41.510      -13.755       25.744       46.083       20.576      662.758     2123.638      423.364        0.451        0.160       74.977       23.617        0.099      328.137       -5.950      860.390
12/05/2013  10:41:00       22.413       42.693       14.603       58.280       25.837       31.192     3396.542      667.554      972.944        0.379        0.252       48.218       35.126        0.531      328.641       -5.126      860.374
12/05/2013  10:42:00       85.719       43.855       17.030       34.928       33.474       30.309     1219.973     1120.512      918.626        0.641        0.163       96.286       15.190        0.025      328.473       -5.402      860.355
12/05/2013  10:43:00       -0.958       28.090       58.759       26.846       38.626       34.212      720.732     1491.940     1170.442        0.381        0.169       28.106       18.799        0.447      329.138       -4.317      860.325
12/05/2013  10:44:00       15.126       34.426       39.866       52.351       36.589       38.866     2740.587     1338.726     1510.535        0.430        0.279       37.602       22.140        0.347      329.071       -4.426      860.295
12/05/2013  10:45:00      132.957       84.595        8.137       70.463       47.071       44.413     4964.970     2215.648     1972.497        1.702        0.458      157.588       20.602        0.017      328.280       -5.716      860.270
12/05/2013  10:46:00       58.656       73.764       29.889       36.422       31.734       47.679     1326.533     1007.074     2273.264        0.719        0.230       94.242       21.017        0.050      328.335       -5.627      860.255
12/05/2013  10:47:00       57.932       67.001      104.052       41.100       44.748       21.618     1689.200     2002.413      467.348        1.141        0.208       88.573       13.401        0.023      328.469       -5.408      860.230
12/05/2013  10:48:00       20.717       -8.892       46.121       56.935       80.943       49.669     3241.611     6551.715     2466.996        0.745        0.613       22.545       52.702        5.465      328.277       -5.720      860.214
12/05/2013  10:49:00       18.260       51.567       44.030       45.655       55.924       35.071     2084.360     3127.481     1229.994        0.569        0.322       54.704       26.610        0.237      328.674       -5.074      860.185
12/05/2013  10:50:00       68.304       80.380       63.911       64.092       44.788       51.464     4107.799     2005.982     2648.536        1.198        0.438      105.481       47.173        0.200      328.384       -5.547      860.178
12/05/2013  10:51:00       41.356       -2.665       60.096       62.442       69.447       47.803     3898.973     4822.857     2285.145        0.817        0.550       41.441       56.523        1.860      328.660       -5.096      860.173
12/05/2013  10:52:00       45.729      -20.143       35.984       49.466       58.193       41.590     2446.853     3386.383     1729.692        0.568        0.378       49.969       40.148        0.646      328.519       -5.326      860.168
12/05/2013  10:53:00       64.188     -104.245       -8.162       41.079       44.302       30.738     1687.517     1962.655      944.809        0.982        0.230      122.422       26.242        0.046      328.373       -5.565      860.156
12/05/2013  10:54:00       34.521       34.462       60.106       46.892       50.711       51.343     2198.822     2571.648     2636.107        0.670        0.370       48.778       40.493        0.689      328.579       -5.230      860.145
12/05/2013  10:55:00       57.929      -49.168        2.530       51.222       75.252       55.959     2623.646     5662.934     3131.368        0.860        0.571       75.982       49.432        0.423      328.436       -5.463      860.135
12/05/2013  10:56:00       35.265      -20.666       35.220       45.043       52.425       41.410     2028.858     2748.356     1714.820        0.470        0.325       40.874       31.292        0.586      328.714       -5.009      860.112
12/05/2013  10:57:00       61.376      -98.133        0.586       35.444       66.486       38.594     1256.256     4420.394     1489.519        1.028        0.358      115.746       43.049        0.138      328.319       -5.654      860.097
12/05/2013  10:58:00       81.982        1.008       58.464       49.514      101.159       54.202     2451.588    10233.097     2937.838        1.288        0.781       81.988       69.852        0.726      328.487       -5.380      860.082
12/05/2013  10:59:00       80.828      -88.940       10.359       67.335       72.142       60.882     4533.981     5204.431     3706.597        1.400        0.672      120.182       55.194        0.211      328.627       -5.150      860.064
12/05/2013  11:00:00       78.481     -148.121      -24.601       51.359       64.677       33.127     2637.762     4183.093     1097.389        1.831        0.396      167.628       29.023        0.030      328.284       -5.711      860.081
12/05/2013  11:01:00       -0.516      -12.981       32.090       27.450       53.652       45.768      753.478     2878.510     2094.730        0.346        0.286       12.991       42.422       10.663      328.660       -5.097      860.087
12/05/2013  11:02:00       67.525       53.938       32.675       43.294       36.686       28.129     1874.369     1345.876      791.263        0.627        0.201       86.423       24.406        0.080      328.569       -5.246      860.094
12/05/2013  11:03:00      113.041       63.028       15.234       51.978       49.731       33.005     2701.710     2473.148     1089.341        1.162        0.313      129.425       11.654        0.008      328.374       -5.564      860.090
12/05/2013  11:04:00       53.820       41.087       -1.958       43.807       46.757       27.048     1919.084     2186.258      731.569        0.471        0.242       67.711       28.292        0.175      328.587       -5.216      860.072
12/05/2013  11:05:00       59.247       34.177       20.245       66.494       45.704       28.155     4421.500     2088.869      792.686        0.619        0.365       68.398       18.934        0.077      328.913       -4.685      860.049
12/05/2013  11:06:00       68.705       76.410       32.786       76.230       60.309       47.052     5810.965     3637.235     2213.877        1.165        0.583      102.756       51.175        0.248      328.870       -4.754      860.017
12/05/2013  11:07:00      105.503       97.374       40.842       91.745       54.779       67.171     8417.124     3000.726     4511.960        1.910        0.796      143.571       57.817        0.162      328.758       -4.938      860.008
12/05/2013  11:08:00      139.029       99.056        3.245       42.781       42.416       36.020     1830.197     1799.153     1297.440        1.704        0.246      170.707       28.775        0.028      328.516       -5.333      860.023
12/05/2013  11:09:00      129.981      107.309       20.534       42.515       25.900       33.167     1807.524      670.784     1100.074        1.620        0.179      168.553       27.312        0.026      328.212       -5.828      860.033
12/05/2013  11:10:00      137.210      102.371       11.271       42.112       40.799       35.037     1773.429     1664.583     1227.557        1.705        0.233      171.191       26.731        0.024      328.262       -5.747      860.025
12/05/2013  11:11:00      107.648      103.288       57.172       68.984       44.843       60.720     4758.849     2010.861     3686.948        1.799        0.523      149.186       56.849        0.145      328.434       -5.465      860.017
12/05/2013  11:12:00      128.116       80.496       69.683       59.284       54.195       37.950     3514.620     2937.138     1440.221        1.782        0.395      151.305       33.701        0.050      328.489       -5.378      860.006
12/05/2013  11:13:00      114.866       91.535       20.987       61.535       39.482       51.793     3786.561     1558.806     2682.554        1.502        0.401      146.877       44.681        0.093      328.464       -5.417      860.014
12/05/2013  11:14:00       98.197       65.711       31.899       41.899       36.722       38.439     1755.537     1348.511     1477.536        0.978        0.229      118.155       25.889        0.048      328.783       -4.896      860.007
12/05/2013  11:15:00      130.690       88.377       23.706       44.786       39.871       37.030     2005.788     1589.727     1371.246        1.521        0.248      157.767        2.951        0.000      328.529       -5.310      860.013
12/05/2013  11:16:00       57.336       83.627        8.620       54.846       38.248       35.332     3008.101     1462.922     1248.348        0.804        0.286      101.395       20.897        0.042      328.369       -5.571      860.013
12/05/2013  11:17:00       -9.030       65.150      -16.227       19.540       45.236       15.539      381.792     2046.329      241.447        0.363        0.133       65.773       10.994        0.028      328.336       -5.624      860.027
12/05/2013  11:18:00       18.823      103.744      -18.213       40.242       40.162       19.582     1619.422     1612.960      383.459        0.753        0.181      105.438       15.297        0.021      328.357       -5.591      860.039
12/05/2013  11:19:00       78.723       54.231       19.010       55.390       36.371       36.383     3067.999     1322.838     1323.688        0.761        0.286       95.595       32.649        0.117      328.679       -5.066      860.041
12/05/2013  11:20:00       56.561       62.752       31.213       38.181       33.214       40.748     1457.816     1103.185     1660.404        0.617        0.211       84.481       24.534        0.084      328.570       -5.245      860.030
12/05/2013  11:21:00       63.383       74.560       76.000       60.282       64.786       51.833     3633.963     4197.210     2686.692        1.293        0.526       97.860       53.571        0.300      328.505       -5.350      860.012
12/05/2013  11:22:00      137.222      130.172       69.009       57.430       51.420       68.382     3298.257     2644.036     4676.089        2.558        0.531      189.142       42.669        0.051      328.350       -5.604      860.008
12/05/2013  11:23:00       66.732       69.922       36.692       43.055       42.160       44.140     1853.701     1777.499     1948.336        0.813        0.279       96.656       22.625        0.055      328.412       -5.501      860.003
12/05/2013  11:24:00       90.690       70.253       19.010       22.925       26.698       26.487      525.558      712.777      701.550        0.773        0.097      114.718       12.255        0.011      328.279       -5.719      859.991
12/05/2013  11:25:00        8.196       34.478       -3.359       38.502       33.700       21.534     1482.387     1135.698      463.726        0.217        0.154       35.439       13.272        0.140      328.359       -5.588      859.980
12/05/2013  11:26:00       25.580       86.492       -4.873       32.641       61.777       24.841     1065.423     3816.354      617.068        0.683        0.275       90.195       34.047        0.142      328.425       -5.480      859.955
12/05/2013  11:27:00       16.365      150.965      -16.516       32.983       50.485       31.707     1087.883     2548.763     1005.336        1.399        0.232      151.850       30.824        0.041      328.349       -5.604      859.924
12/05/2013  11:28:00       28.356       70.738        0.294       42.136       48.757       27.734     1775.451     2377.268      769.165        0.536        0.246       76.209       26.446        0.120      328.440       -5.457      859.906
12/05/2013  11:29:00       87.685       36.561        6.606       36.411       31.304       21.217     1325.728      979.970      450.145        0.591        0.138       95.001       11.491        0.015      328.447       -5.444      859.895
12/05/2013  11:30:00      114.658       56.248       -1.778       49.789       38.994       27.255     2478.909     1520.537      742.857        1.053        0.237      127.712       17.905        0.020      328.472       -5.404      859.878
12/05/2013  11:31:00       36.205       46.060        0.106       44.417       43.123       24.853     1972.893     1859.602      617.657        0.394        0.223       58.586       23.946        0.167      328.786       -4.892      859.849
12/05/2013  11:32:00       10.726       80.043       -2.402       29.877       55.694       28.402      892.617     3101.788      806.679        0.566        0.240       80.758       31.996        0.157      328.759       -4.935      859.828
12/05/2013  11:33:00       64.555       41.122       27.425       36.182       31.488       29.309     1309.115      991.467      859.023        0.488        0.158       76.540       14.649        0.037      328.872       -4.751      859.815
12/05/2013  11:34:00      119.012       80.092        4.620       57.620       37.663       32.839     3320.039     1418.528     1078.403        1.321        0.291      143.452       17.842        0.015      329.045       -4.469      859.809
12/05/2013  11:35:00       97.798       87.360        3.992       62.692       54.069       47.322     3930.230     2923.470     2239.371        1.315        0.455      131.134       37.621        0.082      328.927       -4.662      859.810
12/05/2013  11:36:00       89.575       69.547      -10.341       58.710       44.353       38.131     3446.832     1967.208     1453.947        0.992        0.343      113.404       12.954        0.013      328.796       -4.876      859.797
12/05/2013  11:37:00       93.855       52.617       25.153       37.940       44.022       39.377     1439.460     1937.969     1550.529        0.857        0.246      107.598       17.450        0.026      329.072       -4.425      859.774
12/05/2013  11:38:00       71.532       58.749       17.947       38.404       36.374       40.273     1474.869     1323.036     1621.903        0.665        0.221       92.565       27.116        0.086      328.740       -4.967      859.769
12/05/2013  11:39:00       47.516       58.546       -3.175       36.552       39.925       33.868     1336.014     1594.025     1147.037        0.489        0.204       75.401       26.553        0.124      328.910       -4.690      859.745
12/05/2013  11:40:00      109.062       39.486        4.672       49.905       39.728       40.883     2490.485     1578.317     1671.441        0.961        0.287      115.990       15.385        0.018      329.105       -4.370      859.724
12/05/2013  11:41:00      120.722       69.135       10.291       75.726       43.732       43.758     5734.386     1912.451     1914.730        1.451        0.478      139.116       36.207        0.068      329.081       -4.411      859.717
12/05/2013  11:42:00      147.303       83.256        1.435       49.120       40.003       42.283     2412.804     1600.204     1787.884        1.722        0.290      169.203       18.950        0.013      328.809       -4.856      859.697
12/05/2013  11:43:00       77.093       56.700       10.470       56.557       46.468       40.293     3198.729     2159.292     1623.559        0.812        0.349       95.699       37.844        0.156      329.130       -4.330      859.684
12/05/2013  11:44:00      122.447       84.389       35.172       91.222       74.399       54.133     8321.380     5535.209     2930.430        2.007        0.839      148.711       47.582        0.102      329.234       -4.161      859.663
12/05/2013  11:45:00       95.983      109.748       -3.314       71.732       70.620       54.267     5145.414     4987.200     2944.865        1.717        0.654      145.799       37.991        0.068      328.818       -4.841      859.663
12/05/2013  11:46:00      116.247       50.428        4.868       60.799       35.191       37.914     3696.538     1238.394     1437.453        1.122        0.319      126.713       24.667        0.038      328.909       -4.691      859.649
12/05/2013  11:47:00       53.298       64.817       86.555       51.667       90.170       55.433     2669.483     8130.707     3072.766        1.420        0.694       83.916       60.963        0.528      329.232       -4.163      859.659
12/05/2013  11:48:00       17.562        8.188       31.801       65.416       47.901       37.125     4279.267     2294.553     1378.274        0.467        0.398       19.377       33.591        3.005      329.243       -4.144      859.650
12/05/2013  11:49:00      -16.860      -64.703        9.056       34.824       44.041       20.854     1212.745     1939.588      434.895        0.407        0.179       66.864       19.102        0.082      329.181       -4.247      859.640
12/05/2013  11:50:00       30.028        2.830       45.472       50.345       45.750       33.011     2534.665     2093.046     1089.731        0.435        0.286       30.161       22.545        0.559      329.616       -3.536      859.627
12/05/2013  11:51:00       17.853       -2.252       31.108       41.971       43.697       32.338     1761.566     1909.436     1045.747        0.300        0.236       17.995       28.836        2.568      329.479       -3.761      859.610
12/05/2013  11:52:00        6.397      -47.351        8.814       41.946       55.211       28.415     1759.476     3048.304      807.401        0.399        0.281       47.781       26.554        0.309      329.338       -3.990      859.600
12/05/2013  11:53:00      122.578     -178.778      -21.756       42.859       39.275       26.631     1836.872     1542.529      709.206        2.577        0.204      216.765       10.711        0.002      328.771       -4.917      859.595
12/05/2013  11:54:00      138.129       39.438       20.890       55.223       80.116       53.456     3049.537     6418.614     2857.551        1.670        0.616      143.649       55.897        0.151      328.727       -4.989      859.598
12/05/2013  11:55:00       61.455      -11.669       38.935       42.722       48.933       36.110     1825.205     2394.483     1303.959        0.548        0.276       62.554       16.426        0.069      328.897       -4.710      859.591
12/05/2013  11:56:00       63.961       10.842       41.257       31.063       19.857       28.006      964.904      394.281      784.311        0.403        0.107       64.873       16.799        0.067      328.756       -4.941      859.576
12/05/2013  11:57:00       74.471      -95.305      -12.744       62.874       73.869       43.327     3953.133     5456.599     1877.236        1.304        0.564      120.950       46.278        0.146      328.852       -4.785      859.545
12/05/2013  11:58:00       81.169      -97.323      -15.736       61.964       68.164       45.867     3839.589     4646.317     2103.810        1.345        0.529      126.729       38.798        0.094      328.812       -4.850      859.533
12/05/2013  11:59:00       60.100      -43.679       23.002       50.093       50.792       30.564     2509.290     2579.820      934.185        0.603        0.301       74.296       36.214        0.238      328.934       -4.649      859.528
12/05/2013  12:00:00       32.588       70.301       59.191       31.346       27.026       18.306      982.543      730.427      335.096        0.578        0.102       77.487       15.323        0.039      328.782       -4.897      859.513
12/05/2013  12:01:00       22.832       18.826       19.716       25.901       28.664       24.687      670.858      821.641      609.446        0.168        0.105       29.593       15.464        0.273      328.999       -4.545      859.485
12/05/2013  12:02:00       37.936       62.477       -5.143       33.453       36.137       28.038     1119.081     1305.873      786.121        0.429        0.161       73.092       25.400        0.121      328.772       -4.914      859.471
12/05/2013  12:03:00       19.733       10.461        0.595       17.676       21.310       17.534      312.458      454.112      307.430        0.079        0.054       22.335       12.822        0.330      328.935       -4.649      859.461
12/05/2013  12:04:00       23.339       24.167       17.246       33.598       24.770       17.948     1128.857      613.570      322.116        0.174        0.103       33.597       11.597        0.119      329.160       -4.282      859.450
12/05/2013  12:05:00       -3.113        4.335       15.972       12.427       27.207       18.362      154.428      740.232      337.160        0.076        0.062        5.337       14.922        7.818      329.654       -3.473      859.446
12/05/2013  12:06:00       74.969      103.251       97.532       73.065       38.231       43.306     5338.432     1461.646     1875.378        1.723        0.434      127.598       17.021        0.018      329.169       -4.267      859.433
12/05/2013  12:07:00      103.536       84.757       76.874       48.049       35.680       49.765     2308.669     1273.029     2476.590        1.493        0.303      133.804       36.107        0.073      328.821       -4.835      859.432
12/05/2013  12:08:00       39.576       -6.149       -0.154       28.078       30.321       16.336      788.400      919.354      266.862        0.179        0.099       40.050       14.438        0.130      328.769       -4.920      859.438
12/05/2013  12:09:00       29.587       43.945        4.544       48.269       36.753       25.286     2329.852     1350.800      639.376        0.357        0.216       52.977       24.180        0.208      329.093       -4.391      859.433
12/05/2013  12:10:00      111.867       72.957       17.795       40.562       32.147       37.144     1645.280     1033.449     1379.644        1.111        0.203      133.555       20.919        0.025      328.987       -4.564      859.411
12/05/2013  12:11:00       42.900       93.202       11.090       39.582       34.833       43.017     1566.737     1213.367     1850.435        0.764        0.232      102.601       23.596        0.053      329.339       -3.988      859.393
12/05/2013  12:12:00       31.610       55.086       -8.229       28.967       53.543       25.610      839.085     2866.810      655.852        0.423        0.218       63.511       26.037        0.168      329.355       -3.962      859.380
12/05/2013  12:13:00      115.483       71.810       23.082       70.662       42.272       42.309     4993.176     1786.944     1790.074        1.380        0.429      135.989       40.810        0.090      329.112       -4.359      859.344
12/05/2013  12:14:00      106.776       66.626       36.209       49.968       72.458       58.925     2496.812     5250.187     3472.195        1.418        0.561      125.858       27.204        0.047      328.954       -4.618      859.320
12/05/2013  12:15:00      126.368       94.178       14.089       62.359       55.801       44.179     3888.657     3113.754     1951.823        1.699        0.448      157.602       32.215        0.042      328.844       -4.798      859.288
12/05/2013  12:16:00      192.476      108.302       38.959       56.071       44.390       43.957     3143.990     1970.466     1932.179        2.867        0.352      220.853       11.568        0.003      328.748       -4.958      859.275
12/05/2013  12:17:00      135.868       49.889       37.579       77.529       65.582       50.317     6010.799     4300.942     2531.780        1.760        0.642      144.738       46.812        0.105      328.995       -4.551      859.279
12/05/2013  12:18:00       36.927     -132.310        2.953       47.721      110.410       52.123     2277.325    12190.469     2716.853        1.803        0.859      137.366       64.916        0.223      329.188       -4.237      859.292
12/05/2013  12:19:00       18.860       -5.662       68.855       45.514       82.569       45.435     2071.556     6817.558     2064.309        0.804        0.548       19.691       54.841        7.757      329.500       -3.726      859.292
12/05/2013  12:20:00       -2.883       24.774       49.401       25.025       59.492       39.984      626.230     3539.257     1598.753        0.441        0.288       24.941       33.601        1.815      329.645       -3.489      859.273
12/05/2013  12:21:00       26.673      -61.896       15.119       34.671       65.826       45.971     1202.101     4333.068     2113.304        0.621        0.382       67.399       45.763        0.461      329.658       -3.467      859.264
12/05/2013  12:22:00       87.879      -23.186       40.653      102.882       86.838       71.297    10584.675     7540.754     5083.213        1.656        1.160       90.886       59.446        0.428      329.505       -3.717      859.241
12/05/2013  12:23:00      136.043       24.962       53.785       75.867      109.237       67.382     5755.729    11932.752     4540.290        2.212        1.111      138.314       72.265        0.273      329.018       -4.516      859.253
12/05/2013  12:24:00      137.627       70.199       43.516       70.269       53.781       53.143     4937.777     2892.434     2824.180        1.821        0.533      154.496       39.894        0.067      328.955       -4.617      859.250
12/05/2013  12:25:00       69.232       78.156       82.879       67.129       54.517       42.059     4506.296     2972.049     1768.975        1.351        0.462      104.410       43.359        0.172      329.035       -4.486      859.246
12/05/2013  12:26:00       51.224       71.537       92.507       60.047       65.154       54.682     3605.700     4244.987     2990.154        1.357        0.542       87.985       52.948        0.362      329.314       -4.030      859.255
12/05/2013  12:27:00       91.518       57.686      116.868       90.868       79.773       68.064     8257.077     6363.713     4632.740        2.230        0.963      108.181       49.245        0.207      329.351       -3.971      859.250
12/05/2013  12:28:00       48.574      104.699      134.568      100.788       80.685       68.049    10158.257     6510.055     4630.714        2.636        1.065      115.418       72.476        0.394      329.104       -4.374      859.261
12/05/2013  12:29:00       61.491       41.276       95.067       86.280       97.780       73.722     7444.321     9560.975     5434.976        1.848        1.122       74.059       78.885        1.135      329.169       -4.267      859.258
12/05/2013  12:30:00       36.600       89.001      105.823       55.141       75.045       50.697     3040.526     5631.735     2570.218        1.585        0.562       96.233       53.847        0.313      329.065       -4.437      859.251
12/05/2013  12:31:00       23.736       14.958      -10.900       30.412       30.104       16.567      924.865      906.262      274.467        0.151        0.105       28.056       14.391        0.263      329.051       -4.458      859.240
12/05/2013  12:32:00       55.078      -45.900        5.141       50.952       77.653       28.721     2596.067     6029.979      824.917        0.731        0.473       71.697       35.512        0.245      329.338       -3.990      859.227
12/05/2013  12:33:00       82.375     -108.697       -2.887       63.482       68.047       41.429     4029.976     4630.440     1716.325        1.449        0.519      136.384       41.873        0.094      329.149       -4.299      859.210
12/05/2013  12:34:00       73.328       26.773       31.024       78.092       69.681       47.241     6098.311     4855.401     2231.685        1.012        0.659       78.063       15.193        0.038      329.547       -3.649      859.192
12/05/2013  12:35:00      165.723       79.842       22.016       49.686       51.022       39.456     2468.654     2603.220     1556.772        2.047        0.331      183.953       24.208        0.017      329.016       -4.518      859.177
12/05/2013  12:36:00      186.073       99.837       36.008       50.614       46.075       32.077     2561.728     2122.915     1028.951        2.580        0.286      211.165       19.305        0.008      328.929       -4.662      859.151
12/05/2013  12:37:00       57.305      -15.538       29.368       68.080       58.933       54.565     4634.864     3473.096     2977.330        0.773        0.554       59.374       24.030        0.164      329.416       -3.863      859.143
12/05/2013  12:38:00      130.708     -126.946        0.380       99.197      127.670       81.682     9839.955    16299.731     6671.951        3.300        1.641      182.208       80.862        0.197      329.334       -3.999      859.132
12/05/2013  12:39:00      147.606      -94.459        9.331       85.919      119.404       84.257     7382.006    14257.272     7099.276        2.976        1.437      175.243       88.841        0.257      329.119       -4.350      859.137
12/05/2013  12:40:00       22.496      -26.919       28.782       47.002       78.566       50.319     2209.143     6172.645     2531.977        0.648        0.546       35.081       57.842        2.719      329.366       -3.945      859.124
12/05/2013  12:41:00       11.343       75.037       94.206       53.436       88.825       77.387     2855.443     7889.838     5988.694        1.568        0.837       75.890       72.162        0.904      329.718       -3.370      859.109
12/05/2013  12:42:00       48.854       86.864      113.968       65.817       92.308       65.470     4331.900     8520.761     4286.372        2.003        0.857       99.660       63.060        0.400      329.282       -4.083      859.106
12/05/2013  12:43:00      147.812     -120.493        5.792       98.287      147.631       74.989     9660.311    21794.767     5623.390        3.673        1.854      190.701       97.568        0.262      329.029       -4.498      859.091
12/05/2013  12:44:00       79.307      -82.158       17.773       69.395       93.088       60.037     4815.654     8665.418     3604.408        1.522        0.854      114.191       55.529        0.236      329.260       -4.119      859.073
12/05/2013  12:45:00      106.439     -100.889       -5.022       99.222       88.578       58.198     9844.920     7846.125     3387.031        2.130        1.054      146.655       63.066        0.185      329.418       -3.862      859.057
12/05/2013  12:46:00       24.029      -95.800       16.171       60.530       93.260       56.169     3663.890     8697.346     3154.998        1.276        0.776       98.767       61.335        0.386      329.729       -3.351      859.038
12/05/2013  12:47:00       -7.917       10.273       39.500       56.232       52.107       52.883     3162.043     2715.145     2796.560        0.520        0.434       12.969       37.875        8.528      329.972       -2.953      859.028
12/05/2013  12:48:00       36.497      -55.976       40.902       49.417       72.906       52.247     2442.025     5315.283     2729.710        0.831        0.524       66.823       46.034        0.475      329.502       -3.722      859.014
12/05/2013  12:49:00       61.120      -28.198       37.129       73.528      113.768       60.992     5406.384    12943.104     3720.066        1.399        1.103       67.311       80.509        1.431      329.502       -3.724      859.014
12/05/2013  12:50:00       73.895      -71.011       33.062       75.549      114.461       52.471     5707.593    13101.338     2753.228        1.657        1.078      102.484       72.752        0.504      329.327       -4.009      859.012
12/05/2013  12:51:00      100.282     -142.266      -18.249       61.442       57.372       38.317     3775.176     3291.517     1468.177        1.958        0.427      174.058       25.674        0.022      329.031       -4.492      859.009
12/05/2013  12:52:00       79.695     -101.155      -11.324       57.399       56.621       30.695     3294.593     3205.883      942.161        1.208        0.372      128.778       28.138        0.048      329.357       -3.960      859.004
12/05/2013  12:53:00       24.378      -25.147       26.116       45.949       72.030       33.429     2111.269     5188.277     1117.515        0.516        0.421       35.024       34.301        0.959      329.736       -3.340      858.983
12/05/2013  12:54:00       14.688       -0.036       21.502       33.643       40.465       23.636     1131.867     1637.442      558.662        0.200        0.166       14.689       14.498        0.974      329.982       -2.936      858.970
12/05/2013  12:55:00       32.498       21.274       43.811       32.424       48.928       38.343     1051.316     2393.994     1470.183        0.417        0.246       38.842       38.402        0.977      330.065       -2.801      858.955
12/05/2013  12:56:00       28.408       -5.524       33.690       43.769       63.994       35.826     1915.755     4095.183     1283.486        0.463        0.365       28.940       38.775        1.795      329.831       -3.184      858.945
12/05/2013  12:57:00       34.028      -96.957        0.545       62.834       60.395       42.749     3948.173     3647.535     1827.469        0.999        0.471      102.755       36.198        0.124      329.638       -3.500      858.935
12/05/2013  12:58:00       21.015       29.929       61.228       48.974       82.172       55.475     2398.410     6752.280     3077.467        0.865        0.611       36.570       61.371        2.816      329.553       -3.638      858.919
12/05/2013  12:59:00        6.652       32.875       57.733       42.048       63.387       29.204     1768.005     4017.933      852.856        0.555        0.332       33.542       34.070        1.032      329.633       -3.507      858.912
12/05/2013  13:00:00       -7.718      -92.593       -7.298       58.626       55.651       42.305     3437.063     3097.030     1789.724        0.850        0.416       92.914       36.927        0.158      329.568       -3.615      858.909
12/05/2013  13:01:00       31.518      -42.657       24.112       74.126       83.194       51.028     5494.660     6921.303     2603.899        0.920        0.751       53.037       53.688        1.025      329.867       -3.125      858.893
12/05/2013  13:02:00       77.852      -60.075       46.378      100.437      118.328       85.359    10087.536    14001.483     7286.184        2.159        1.569       98.336       88.737        0.814      329.489       -3.745      858.866
12/05/2013  13:03:00       87.306     -131.189      -16.638       62.649       78.466       43.700     3924.871     6156.857     1909.654        1.855        0.600      157.584       52.020        0.109      329.170       -4.267      858.864
12/05/2013  13:04:00       59.196      -91.497       28.248       56.643      101.006       52.993     3208.384    10202.284     2808.250        1.444        0.811      108.976       58.525        0.288      329.418       -3.859      858.836
12/05/2013  13:05:00       49.417      -68.336       27.519       60.934       69.321       43.091     3712.966     4805.436     1856.852        0.912        0.519       84.331       35.625        0.178      329.688       -3.419      858.822
12/05/2013  13:06:00       84.937     -148.629      -14.647      101.667      108.456       53.670    10336.234    11762.796     2880.509        2.724        1.249      171.187       62.924        0.135      329.559       -3.629      858.836
12/05/2013  13:07:00      118.178      -84.844        9.043       68.725       62.484       58.074     4723.157     3904.312     3372.617        1.662        0.600      145.481       42.864        0.087      329.272       -4.098      858.855
12/05/2013  13:08:00       53.994       23.983       58.032       60.006       86.386       50.325     3600.754     7462.516     2532.616        1.022        0.680       59.080       57.750        0.955      329.471       -3.773      858.837
12/05/2013  13:09:00      101.893      125.463       96.248       77.387       46.179       60.119     5988.825     2132.479     3614.330        2.356        0.587      161.627       51.102        0.100      329.304       -4.049      858.816
12/05/2013  13:10:00       93.118       85.601       74.724       60.981       44.078       47.073     3718.641     1942.872     2215.893        1.473        0.394      126.485       38.069        0.091      329.250       -4.134      858.806
12/05/2013  13:11:00       93.692       61.277       57.625       50.653       53.579       40.235     2565.739     2870.732     1618.818        1.145        0.353      111.951       25.272        0.051      329.265       -4.110      858.792
12/05/2013  13:12:00       38.807       66.062       85.638       51.591       54.582       53.250     2661.681     2979.142     2835.589        1.084        0.424       76.617       36.670        0.229      329.449       -3.809      858.797
12/05/2013  13:13:00      119.963       80.378       69.816       89.048       61.180       45.699     7929.584     3742.934     2088.393        1.974        0.688      144.401       35.618        0.061      329.419       -3.858      858.798
12/05/2013  13:14:00      110.902     -190.760      -21.172       77.547       99.544       49.945     6013.520     9908.995     2494.486        3.377        0.921      220.655       64.873        0.086      329.311       -4.037      858.812
12/05/2013  13:15:00      100.473     -171.671      -36.702       50.407       64.740       35.010     2540.910     4191.221     1225.716        2.443        0.398      198.912       19.233        0.009      329.268       -4.108      858.822
12/05/2013  13:16:00       16.354      -74.725       22.307       57.017       90.037       63.154     3250.887     8106.627     3988.425        1.084        0.767       76.493       52.278        0.467      329.497       -3.731      858.823
12/05/2013  13:17:00       49.964       28.127       40.259       38.820       48.331       35.736     1507.028     2335.849     1277.087        0.501        0.256       57.337       35.669        0.387      329.268       -4.104      858.836
12/05/2013  13:18:00       18.641       54.813       73.007       36.772       34.732       33.870     1352.206     1206.320     1147.189        0.619        0.185       57.896       28.099        0.236      329.382       -3.918      858.809
12/05/2013  13:19:00       54.519       67.217       30.241       56.213       40.708       49.579     3159.950     1657.101     2458.083        0.784        0.364       86.548       43.201        0.249      329.402       -3.885      858.786
12/05/2013  13:20:00       34.800       46.762       64.791       42.642       39.114       31.506     1818.344     1529.900      992.658        0.597        0.217       58.290       25.090        0.185      329.557       -3.632      858.789
12/05/2013  13:21:00       53.864       40.565        2.537       32.039       32.204       21.625     1026.474     1037.114      467.656        0.354        0.127       67.430       16.217        0.058      329.208       -4.202      858.791
12/05/2013  13:22:00       61.098       36.116       47.607       59.245       62.004       48.398     3509.932     3844.516     2342.409        0.850        0.485       70.974       42.281        0.355      329.510       -3.709      858.781
12/05/2013  13:23:00      111.719       24.931       55.231       74.645       76.061       49.453     5571.833     5785.264     2445.596        1.498        0.690      114.467       54.737        0.229      329.405       -3.882      858.787
12/05/2013  13:24:00      120.367      107.993       85.929       93.704       49.588       55.758     8780.428     2458.924     3108.918        2.394        0.717      161.712       51.644        0.102      329.314       -4.031      858.778
12/05/2013  13:25:00       40.224       65.936       69.882       60.845       44.054       46.097     3702.093     1940.787     2124.958        0.931        0.388       77.237       43.410        0.316      329.549       -3.646      858.777
12/05/2013  13:26:00      116.184       66.784        6.656       53.776       45.683       40.761     2891.850     2086.955     1661.426        1.232        0.332      134.011       25.867        0.037      329.484       -3.752      858.773
12/05/2013  13:27:00       68.778       13.830       12.712       64.844       81.785       39.115     4204.697     6688.829     1529.977        0.875        0.621       70.155       35.569        0.257      329.627       -3.517      858.759
12/05/2013  13:28:00       44.797      -37.934       46.932       60.025       50.549       51.782     3602.980     2555.176     2681.327        0.724        0.442       58.700       39.353        0.449      329.864       -3.130      858.744
12/05/2013  13:29:00       84.973       72.557       90.367       70.468       79.531       52.094     4965.768     6325.238     2713.822        1.733        0.700      111.735       50.262        0.202      329.594       -3.572      858.736
12/05/2013  13:30:00      109.978       64.345       42.313       58.214       66.610       40.989     3388.882     4436.856     1680.080        1.376        0.475      127.418       36.216        0.081      329.212       -4.197      858.735
12/05/2013  13:31:00      106.647       28.213        4.665       56.766       41.055       35.105     3222.355     1685.492     1232.330        0.916        0.307      110.316       32.071        0.085      329.234       -4.160      858.715
12/05/2013  13:32:00      136.840      102.670       41.678       58.114       54.966       56.356     3377.230     3021.228     3176.018        2.029        0.479      171.074       38.803        0.051      329.388       -3.910      858.674
12/05/2013  13:33:00       87.190       76.294       35.921       53.878       54.887       55.801     2902.805     3012.591     3113.791        1.187        0.451      115.857       42.279        0.133      329.348       -3.974      858.647
12/05/2013  13:34:00       32.318        4.720       34.097       44.353       56.047       26.169     1967.160     3141.268      684.835        0.401        0.290       32.661       25.649        0.617      329.729       -3.350      858.640
12/05/2013  13:35:00      119.828       93.897       28.616       46.553       38.640       33.620     2167.145     1493.014     1130.273        1.439        0.240      152.235       16.825        0.012      329.259       -4.118      858.651
12/05/2013  13:36:00       56.290       55.418       12.438       47.807       30.708       32.594     2285.508      942.973     1062.338        0.534        0.215       78.992       27.817        0.124      329.419       -3.857      858.650
12/05/2013  13:37:00       52.095       83.094       78.714       59.212       40.305       39.896     3506.063     1624.497     1591.723        1.127        0.336       98.074       35.371        0.130      329.457       -3.796      858.650
12/05/2013  13:38:00       42.928       52.196       25.687       27.072       24.253       37.424      732.911      588.230     1400.563        0.397        0.136       67.582       17.094        0.064      329.428       -3.845      858.654
12/05/2013  13:39:00       13.191       20.688       52.684       23.652       39.452       16.006      559.417     1556.453      256.206        0.287        0.119       24.535       18.963        0.597      329.778       -3.271      858.636
12/05/2013  13:40:00       59.532       68.823       26.918       59.728       43.928       40.675     3567.420     1929.634     1654.465        0.808        0.358       90.998        9.131        0.010      329.726       -3.356      858.632
12/05/2013  13:41:00      105.610      106.351       97.180       57.731       74.278       59.390     3332.825     5517.252     3527.227        2.214        0.619      149.879       49.761        0.110      329.465       -3.783      858.630
12/05/2013  13:42:00      108.214       77.088       66.408       91.098       80.658       68.582     8298.870     6505.733     4703.475        2.078        0.975      132.864       63.969        0.232      329.413       -3.870      858.621
12/05/2013  13:43:00       98.340       63.542       70.933       52.244       49.171       40.678     2729.466     2417.771     1654.684        1.277        0.340      117.083       31.584        0.073      329.380       -3.922      858.619
12/05/2013  13:44:00       93.332       59.418       17.130       65.318       55.117       38.968     4266.379     3037.923     1518.501        1.068        0.441      110.641       19.063        0.030      329.520       -3.692      858.621
12/05/2013  13:45:00       65.444       68.245       79.412       79.667       66.802       75.541     6346.869     4462.529     5706.465        1.588        0.826       94.553       73.744        0.608      329.776       -3.275      858.629
12/05/2013  13:46:00       93.816       40.640       58.135       50.000       55.929       58.098     2499.980     3128.047     3375.432        1.142        0.450      102.240       38.622        0.143      329.444       -3.817      858.656
12/05/2013  13:47:00      103.030       62.981       51.376       51.319       65.135       45.219     2633.669     4242.512     2044.729        1.307        0.446      120.755       28.822        0.057      329.356       -3.962      858.638
12/05/2013  13:48:00       37.562       32.083       -5.160       38.384       39.804       17.098     1473.317     1584.373      292.326        0.291        0.168       49.398        5.597        0.013      329.493       -3.738      858.615
12/05/2013  13:49:00      118.254     -177.959      -14.515       43.550       51.342       34.436     1896.627     2636.046     1185.830        2.579        0.286      213.667       31.554        0.022      329.356       -3.964      858.600
12/05/2013  13:50:00      111.434      -98.294       -3.943       51.978       66.908       32.987     2701.661     4476.635     1088.130        1.518        0.413      148.591       26.935        0.033      329.542       -3.657      858.592
12/05/2013  13:51:00       32.770       45.893       67.727       57.771       62.951       51.934     3337.473     3962.812     2697.162        0.888        0.500       56.391       42.817        0.577      329.675       -3.439      858.604
12/05/2013  13:52:00       39.072     -115.547        3.139       29.548       48.979       29.305      873.090     2398.918      858.791        0.951        0.207      121.974       15.779        0.017      329.544       -3.653      858.605
12/05/2013  13:53:00       38.734       29.237       31.869       37.911       38.589       24.899     1437.206     1489.101      619.940        0.346        0.177       48.529       15.121        0.097      329.737       -3.337      858.605
12/05/2013  13:54:00      111.045       78.313       45.143       51.856       29.610       37.803     2689.082      876.745     1429.041        1.275        0.250      135.882       35.891        0.070      329.458       -3.795      858.595
12/05/2013  13:55:00       97.241       83.262       34.852       42.427       34.147       34.560     1800.092     1166.021     1194.412        1.088        0.208      128.017       12.245        0.009      329.481       -3.757      858.587
12/05/2013  13:56:00       87.082       82.653        5.786       39.001       48.119       39.187     1521.092     2315.425     1535.652        0.991        0.269      120.062       35.555        0.088      329.440       -3.823      858.581
12/05/2013  13:57:00       64.815       63.257       22.312       46.491       38.710       33.702     2161.422     1498.479     1135.855        0.675        0.240       90.567       27.792        0.094      329.419       -3.857      858.576
12/05/2013  13:58:00       31.524       37.904       14.248       26.540       30.882       25.104      704.358      953.677      630.233        0.246        0.114       49.299       15.657        0.101      329.475       -3.766      858.575
12/05/2013  13:59:00       16.823       -7.010       13.621       22.120       24.559       13.157      489.276      603.162      173.113        0.089        0.063       18.225        5.800        0.101      329.797       -3.239      858.571
12/05/2013  14:00:00       16.569       22.100       10.637       17.633       14.192       22.965      310.923      201.399      527.369        0.096        0.052       27.621        4.641        0.028      329.662       -3.460      858.560
12/05/2013  14:01:00      125.737       53.205       19.877       60.514       50.770       38.846     3661.915     2577.557     1508.997        1.339        0.387      136.530       18.941        0.019      329.611       -3.545      858.548
12/05/2013  14:02:00      141.826      101.030       54.653       74.644       45.132       47.614     5571.792     2036.918     2267.048        2.159        0.494      174.132       43.756        0.063      329.550       -3.644      858.526
12/05/2013  14:03:00      117.451       84.092       28.109       68.455       52.418       52.052     4686.037     2747.651     2709.367        1.590        0.507      144.451       35.426        0.060      329.619       -3.532      858.512
12/05/2013  14:04:00      121.359       80.949       37.358       67.506       54.729       34.510     4557.080     2995.246     1190.970        1.571        0.437      145.880       35.443        0.059      329.617       -3.535      858.519
12/05/2013  14:05:00      192.378      107.723        8.677       44.526       42.480       40.370     1982.526     1804.570     1629.759        2.705        0.271      220.485       22.603        0.011      329.356       -3.963      858.531
12/05/2013  14:06:00      183.500      110.894       14.905       43.112       38.155       38.374     1858.614     1455.830     1472.596        2.549        0.239      214.405       22.623        0.011      329.454       -3.803      858.542
12/05/2013  14:07:00       87.785       47.549       58.109       60.785       61.153       51.204     3694.772     3739.697     2621.854        1.170        0.503       99.836       41.764        0.175      329.724       -3.360      858.543
12/05/2013  14:08:00      105.833       48.695       48.411       63.229       52.529       40.345     3997.899     2759.328     1627.734        1.215        0.419      116.498       31.103        0.071      329.699       -3.401      858.544
12/05/2013  14:09:00       87.475       79.488       58.799       45.652       36.339       47.666     2084.066     1320.516     2272.068        1.155        0.284      118.195       28.638        0.059      329.669       -3.449      858.547
12/05/2013  14:10:00       95.168       74.271       46.042       29.015       20.618       29.201      841.869      425.119      852.716        0.941        0.106      120.719       17.842        0.022      329.404       -3.883      858.560
12/05/2013  14:11:00       32.574       28.375       69.791       56.532       50.267       40.021     3195.815     2526.727     1601.698        0.703        0.366       43.199       33.469        0.600      329.813       -3.212      858.554
12/05/2013  14:12:00       69.824       58.032       28.561       62.870       43.584       44.574     3952.627     1899.559     1986.815        0.845        0.392       90.791       32.831        0.131      329.712       -3.379      858.570
12/05/2013  14:13:00       78.063       91.279       -1.701       49.391       54.981       50.654     2439.478     3022.961     2565.795        1.123        0.401      120.107       42.729        0.127      329.540       -3.660      858.577
12/05/2013  14:14:00      111.410       70.354       20.141       54.694       34.589       35.997     2991.456     1196.366     1295.775        1.162        0.274      131.764       21.911        0.028      329.454       -3.801      858.582
12/05/2013  14:15:00       83.605       53.378        5.792       48.781       41.301       33.337     2379.590     1705.761     1111.377        0.753        0.260       99.192       19.735        0.040      329.578       -3.599      858.580
12/05/2013  14:16:00      132.994      106.635        1.146       33.798       29.681       25.175     1142.313      880.962      633.760        1.586        0.133      170.465       15.338        0.008      329.374       -3.932      858.579
12/05/2013  14:17:00       82.786       69.804       23.227       35.727       28.628       28.413     1276.429      819.568      807.275        0.758        0.145      108.288       18.926        0.031      329.601       -3.562      858.581
12/05/2013  14:18:00       81.540       57.394       43.267       43.527       31.308       34.492     1894.635      980.167     1189.693        0.794        0.203       99.714       26.546        0.071      329.613       -3.541      858.577
12/05/2013  14:19:00       12.773       -5.153       18.143       35.716       26.941       32.248     1275.603      725.835     1039.943        0.178        0.152       13.773       20.666        2.251      329.589       -3.580      858.578
12/05/2013  14:20:00       23.343       24.411       34.917       29.424       26.824       20.203      865.780      719.502      408.152        0.218        0.100       33.776       18.963        0.315      329.835       -3.177      858.564
12/05/2013  14:21:00       -1.821        3.255        5.596       20.351       13.446       16.888      414.153      180.790      285.204        0.046        0.044        3.730        9.076        5.920      329.847       -3.159      858.565
12/05/2013  14:22:00       43.849       17.424        1.544       30.348       29.994       25.016      921.006      899.667      625.799        0.234        0.122       47.184       16.720        0.126      329.696       -3.404      858.564
12/05/2013  14:23:00       31.413       25.295       48.632       46.944       38.786       30.521     2203.753     1504.342      931.531        0.431        0.232       40.331       29.792        0.546      329.836       -3.177      858.568
12/05/2013  14:24:00       43.062       19.550       42.310       33.378       38.925       25.463     1114.105     1515.129      648.361        0.365        0.164       47.292       11.040        0.054      329.810       -3.219      858.567
12/05/2013  14:25:00       13.254      107.426      104.238       37.587       40.621       21.618     1412.777     1650.052      467.344        1.306        0.177      108.241       18.436        0.029      329.643       -3.492      858.558
12/05/2013  14:26:00       73.736       87.860       65.547       47.590       39.288       41.470     2264.816     1543.531     1719.744        1.149        0.276      114.701       35.127        0.094      329.624       -3.523      858.547
12/05/2013  14:27:00       92.697       71.118       61.257       61.616       55.878       46.641     3796.552     3122.389     2175.401        1.325        0.455      116.835       34.476        0.087      329.570       -3.611      858.551
12/05/2013  14:28:00       39.952       18.633       44.446       47.267       31.139       32.810     2234.131      969.628     1076.507        0.410        0.214       44.084       24.956        0.320      329.741       -3.331      858.556
12/05/2013  14:29:00        9.078        1.878       24.403       40.756       33.136       25.473     1661.071     1098.012      648.880        0.204        0.170        9.271       27.874        9.041      329.778       -3.270      858.554
12/05/2013  14:30:00       59.459       41.304       21.212       58.034       47.803       29.726     3367.997     2285.099      883.619        0.611        0.327       72.397       21.798        0.091      329.750       -3.315      858.556
12/05/2013  14:31:00       56.580       57.637       23.293       43.330       28.211       29.752     1877.493      795.849      885.203        0.531        0.178       80.768       22.892        0.080      329.921       -3.036      858.550
12/05/2013  14:32:00       -5.179       16.503       28.704       26.340       28.816       21.046      693.788      830.337      442.951        0.154        0.098       17.297        4.001        0.054      330.202       -2.576      858.546
12/05/2013  14:33:00       13.278       14.674       18.728       19.900       28.555       20.576      396.028      815.403      423.352        0.119        0.082       19.789        9.430        0.227      330.055       -2.816      858.551
12/05/2013  14:34:00        3.103       95.893      -17.952       34.880       58.565       23.628     1216.634     3429.872      558.267        0.736        0.260       95.943       22.102        0.053      329.790       -3.252      858.553
12/05/2013  14:35:00       21.954      118.173      -17.102       19.651       46.357       22.177      386.173     2148.967      491.818        0.888        0.151      120.195       22.759        0.036      329.578       -3.597      858.557
12/05/2013  14:36:00       11.021      103.043      -17.380       20.869       23.859       18.860      435.506      569.272      355.682        0.620        0.068      103.631       16.230        0.025      329.521       -3.691      858.566
12/05/2013  14:37:00      -10.270       62.541        0.320       25.704       38.734       21.028      660.679     1500.332      442.182        0.331        0.130       63.379       23.565        0.138      329.765       -3.292      858.565
12/05/2013  14:38:00       -3.892       50.154      -10.377       23.324       24.732       20.467      544.014      611.668      418.880        0.211        0.079       50.304       20.478        0.166      329.619       -3.530      858.570
12/05/2013  14:39:00      -46.027       23.325      -11.123       15.248       39.490       17.472      232.493     1559.450      305.269        0.244        0.105       51.600       15.096        0.086      329.726       -3.356      858.563
12/05/2013  14:40:00      -55.852       51.270      -17.070       26.513       41.561       18.857      702.915     1727.338      355.571        0.441        0.139       75.816       14.842        0.038      329.850       -3.155      858.547
12/05/2013  14:41:00      -71.055       58.710       -8.319       26.507       27.973       19.423      702.630      782.512      377.267        0.521        0.093       92.172       10.616        0.013      329.879       -3.105      858.538
12/05/2013  14:42:00       -2.191       30.833        7.769       28.096       24.280       20.793      789.377      589.530      432.329        0.141        0.091       30.911       19.895        0.414      329.950       -2.988      858.537
12/05/2013  14:43:00       86.353       62.159       11.409       39.998       32.747       21.956     1599.830     1072.353      482.047        0.730        0.158      106.398       19.281        0.033      329.710       -3.382      858.532
12/05/2013  14:44:00       63.029       73.013       39.024       46.464       31.309       33.272     2158.888      980.278     1107.041        0.754        0.212       96.455       24.667        0.065      329.812       -3.214      858.512
12/05/2013  14:45:00      122.739       98.272       44.180       46.323       38.572       40.542     2145.804     1487.823     1643.680        1.597        0.264      157.233       27.174        0.030      329.721       -3.365      858.510
12/05/2013  14:46:00      103.087       82.729       38.228       61.602       47.238       55.226     3794.797     2231.426     3049.911        1.400        0.454      132.178       41.336        0.098      329.667       -3.452      858.509
12/05/2013  14:47:00      110.198      109.568       84.931       51.031       51.444       44.202     2604.120     2646.442     1953.802        1.928        0.360      155.399       33.084        0.045      329.568       -3.614      858.506
12/05/2013  14:48:00       85.862       75.919       52.094       59.256       47.369       37.439     3511.325     2243.795     1401.715        1.150        0.358      114.613       27.394        0.057      329.713       -3.377      858.511
12/05/2013  14:49:00       55.690       54.658       31.996       46.509       37.946       30.758     2163.106     1439.937      946.039        0.583        0.227       78.031       21.022        0.073      329.812       -3.215      858.510
12/05/2013  14:50:00       46.798       24.859       13.865       29.733       29.934       22.104      884.078      896.025      488.573        0.263        0.113       52.991       11.291        0.045      329.808       -3.221      858.505
12/05/2013  14:51:00       68.666       91.762       -9.734       57.828       56.011       31.679     3344.105     3137.191     1003.555        1.036        0.374      114.609       34.656        0.091      329.663       -3.459      858.502
12/05/2013  14:52:00       18.273      114.932       -1.067       34.617       61.766       34.912     1198.362     3815.083     1218.866        0.989        0.312      116.375       33.991        0.085      329.685       -3.423      858.505
12/05/2013  14:53:00       52.583       96.002       -4.566       45.349       40.237       33.168     2056.488     1618.993     1100.103        0.839        0.239      109.460       27.105        0.061      329.612       -3.541      858.500
12/05/2013  14:54:00        8.875       75.801      -10.628       20.746       21.637       20.513      430.401      468.160      420.797        0.363        0.066       76.319       12.894        0.029      329.691       -3.413      858.498
12/05/2013  14:55:00      -19.056       96.628      -13.611       27.030       38.394       22.669      730.627     1474.083      513.866        0.630        0.136       98.489       20.821        0.045      329.791       -3.249      858.488
12/05/2013  14:56:00       40.016       64.073        6.358       58.987       43.626       43.725     3479.505     1903.255     1911.838        0.652        0.365       75.542       29.981        0.158      329.771       -3.283      858.485
12/05/2013  14:57:00       86.570       68.115        8.480       59.501       38.336       31.778     3540.317     1469.673     1009.831        0.911        0.301      110.154       22.492        0.042      329.630       -3.514      858.490
12/05/2013  14:58:00      111.373       76.208        8.588       49.166       34.634       30.026     2417.296     1199.547      901.552        1.140        0.226      134.950       18.198        0.018      329.567       -3.616      858.490
12/05/2013  14:59:00      114.159       57.937       -8.331       30.263       18.011       19.556      915.824      324.394      382.428        0.904        0.081      128.019       13.390        0.011      329.578       -3.597      858.498
12/05/2013  15:00:00       76.417       42.157       10.979       21.758       20.281       14.552      473.416      411.324      211.746        0.442        0.055       87.274        7.624        0.008      329.597       -3.566      858.496
12/05/2013  15:01:00       35.781        9.861        5.973       18.046       28.740       15.921      325.670      825.976      253.486        0.141        0.070       37.115       13.491        0.132      329.755       -3.310      858.498
12/05/2013  15:02:00       60.320       56.722        1.102       50.907       32.260       31.137     2591.526     1040.727      969.512        0.573        0.230       82.800       21.408        0.067      329.763       -3.295      858.496
12/05/2013  15:03:00       90.700       76.829       18.111       77.060       58.552       54.992     5938.246     3428.305     3024.166        1.342        0.620      118.866       40.676        0.117      329.750       -3.317      858.507
12/05/2013  15:04:00       78.294       53.318       13.719       51.487       36.893       35.807     2650.953     1361.098     1282.141        0.723        0.265       94.725       19.606        0.043      329.818       -3.206      858.533
12/05/2013  15:05:00       31.626       46.838       43.172       47.988       50.838       35.406     2302.824     2584.498     1253.586        0.560        0.307       56.515       22.149        0.154      329.944       -2.998      858.556
12/05/2013  15:06:00       89.279       21.525       22.218       55.361       34.741       40.957     3064.881     1206.943     1677.485        0.744        0.297       91.837       32.412        0.125      329.876       -3.111      858.571
12/05/2013  15:07:00      117.858       75.368        8.898       61.534       52.322       33.921     3786.385     2737.625     1150.606        1.366        0.384      139.896       30.561        0.048      329.786       -3.259      858.566
12/05/2013  15:08:00       84.539      107.005       60.294       65.865       38.546       45.068     4338.221     1485.757     2031.096        1.504        0.393      136.370       44.047        0.104      329.836       -3.176      858.559
12/05/2013  15:09:00      128.999       90.164       59.923       86.271       52.067       58.342     7442.613     2710.986     3403.819        2.096        0.678      157.386       54.921        0.122      329.721       -3.364      858.540
12/05/2013  15:10:00       34.914        4.775       26.159       59.329       52.264       37.295     3519.977     2731.502     1390.933        0.478        0.382       35.239       28.623        0.660      329.911       -3.054      858.543
12/05/2013  15:11:00       47.681      -71.757       23.706       43.579       67.870       47.080     1899.121     4606.273     2216.499        0.835        0.436       86.154       40.559        0.222      329.857       -3.142      858.537
12/05/2013  15:12:00       86.841       53.198       54.492       52.433       62.294       37.076     2749.236     3880.498     1374.632        1.067        0.400      101.840       40.648        0.159      329.779       -3.269      858.541
12/05/2013  15:13:00       79.072       74.005       57.092       47.573       34.675       18.171     2263.196     1202.328      330.196        0.939        0.190      108.301        5.253        0.002      329.726       -3.356      858.531
12/05/2013  15:14:00       45.103      -75.402       11.024       51.654       60.926       26.420     2668.131     3711.937      697.999        0.746        0.354       87.862       34.586        0.155      329.898       -3.075      858.527
12/05/2013  15:15:00       24.254      -23.028       15.933       39.013       37.368       36.276     1521.978     1396.331     1315.933        0.280        0.212       33.445       28.398        0.721      329.902       -3.067      858.535
12/05/2013  15:16:00       14.670       -3.722       26.257       22.236       29.099       24.536      494.451      846.737      602.033        0.143        0.097       15.135       19.412        1.645      330.051       -2.824      858.546
12/05/2013  15:17:00       55.522       52.532       50.195       43.445       26.244       25.507     1887.465      688.758      650.629        0.579        0.161       76.435        7.926        0.011      329.747       -3.322      858.563
12/05/2013  15:18:00      116.793       53.460       29.132       62.682       42.819       45.205     3928.995     1833.471     2043.458        1.258        0.390      128.447       38.748        0.091      329.761       -3.298      858.567
12/05/2013  15:19:00       95.965       77.057       16.404       43.893       37.310       32.492     1926.633     1392.048     1055.750        0.989        0.219      123.073       25.772        0.044      329.755       -3.309      858.575
12/05/2013  15:20:00       48.129       36.758       28.040       47.443       44.145       34.628     2250.826     1948.814     1199.105        0.493        0.270       60.561       26.691        0.194      329.787       -3.256      858.584
12/05/2013  15:21:00       55.971       39.556       39.416       49.965       40.947       37.666     2496.519     1676.638     1418.751        0.592        0.280       68.538       28.696        0.175      329.760       -3.301      858.578
12/05/2013  15:22:00       60.047       68.872       64.796       47.427       50.848       41.567     2249.279     2585.472     1727.808        0.955        0.328       91.373       35.111        0.148      329.781       -3.266      858.557
12/05/2013  15:23:00       94.592       75.918       19.001       61.296       34.919       41.833     3757.258     1219.356     1750.040        1.090        0.336      121.290       37.248        0.094      329.729       -3.352      858.545
12/05/2013  15:24:00      126.894       81.516       13.883       46.722       36.244       32.805     2182.983     1313.616     1076.148        1.376        0.229      150.820       24.390        0.026      329.719       -3.368      858.528
12/05/2013  15:25:00      123.672       63.153       -3.960       65.179       59.088       32.583     4248.359     3491.376     1061.638        1.405        0.440      138.863       24.074        0.030      329.620       -3.530      858.529
12/05/2013  15:26:00       22.607       81.239       -4.771       37.203       49.530       30.102     1384.079     2453.254      906.125        0.594        0.237       84.326       32.153        0.145      329.617       -3.534      858.534
12/05/2013  15:27:00       39.936       30.150       15.351       28.528       23.142       20.587      813.824      535.568      423.819        0.226        0.089       50.039        6.656        0.018      329.676       -3.438      858.515
12/05/2013  15:28:00       45.840       54.949       17.155       42.040       40.051       29.766     1767.403     1604.109      886.001        0.484        0.213       71.559       20.067        0.079      329.622       -3.526      858.495
12/05/2013  15:29:00       59.790       58.417       38.856       46.130       39.965       30.601     2128.012     1597.229      936.393        0.658        0.233       83.591       12.944        0.024      329.685       -3.425      858.486
12/05/2013  15:30:00       19.203       84.300      -10.375       50.091       43.975       31.160     2509.138     1933.783      970.969        0.650        0.271       86.460       22.714        0.069      329.674       -3.440      858.500
12/05/2013  15:31:00       26.571      113.822      -12.515       31.991       45.623       24.800     1023.426     2081.426      615.048        0.877        0.186      116.882       20.360        0.030      329.609       -3.547      858.518
12/05/2013  15:32:00      102.556       59.554      -13.099       59.612       40.422       39.352     3553.586     1633.933     1548.555        1.048        0.337      118.594       17.201        0.021      329.595       -3.569      858.523
12/05/2013  15:33:00       56.914        7.902        6.143       36.073       26.311       26.600     1301.276      692.264      707.543        0.302        0.135       57.460       16.035        0.078      329.622       -3.526      858.521
12/05/2013  15:34:00       84.980       16.649       -4.789       40.848       31.305       26.563     1668.577      980.007      705.575        0.544        0.168       86.595       17.609        0.041      329.620       -3.529      858.516
12/05/2013  15:35:00       48.089       52.536        1.985       47.816       47.333       30.461     2286.375     2240.393      927.893        0.526        0.273       71.222       26.525        0.139      329.633       -3.507      858.516
12/05/2013  15:36:00       70.040       51.534        5.160       32.574       47.163       27.360     1061.081     2224.386      748.576        0.581        0.202       86.956       11.185        0.017      329.558       -3.629      858.518
12/05/2013  15:37:00       75.481       40.446        5.495       33.217       22.858       18.811     1103.393      522.506      353.859        0.467        0.099       85.634       10.045        0.014      329.561       -3.625      858.510
12/05/2013  15:38:00       34.135       38.725       13.047       35.436       30.126       31.600     1255.694      907.599      998.554        0.300        0.158       51.622       18.780        0.132      329.660       -3.464      858.503
12/05/2013  15:39:00       37.162       52.112        5.515       49.993       37.302       26.616     2499.268     1391.417      708.438        0.436        0.230       64.006       21.760        0.116      329.657       -3.469      858.504
12/05/2013  15:40:00       44.705       64.848       -9.983       35.840       48.154       22.104     1284.510     2318.783      488.572        0.520        0.205       78.764       22.095        0.079      329.579       -3.597      858.499
12/05/2013  15:41:00       52.758       50.969       10.782       31.879       28.794       22.945     1016.249      829.105      526.456        0.393        0.119       73.357       20.688        0.080      329.622       -3.525      858.501
12/05/2013  15:42:00       92.990       74.194        1.027       37.957       26.464       26.815     1440.762      700.349      719.053        0.851        0.143      118.962       15.369        0.017      329.601       -3.562      858.492
12/05/2013  15:43:00       51.184       46.581        7.331       46.361       31.006       26.537     2149.365      961.389      704.232        0.433        0.191       69.207       12.178        0.031      329.625       -3.521      858.494
12/05/2013  15:44:00       42.494       40.164       -4.753       40.731       39.180       29.749     1659.050     1535.053      885.022        0.376        0.204       58.471       23.483        0.161      329.695       -3.407      858.504
12/05/2013  15:45:00       56.672       53.178        6.583       36.220       36.299       27.750     1311.853     1317.612      770.052        0.474        0.170       77.715       18.642        0.058      329.640       -3.498      858.497
12/05/2013  15:46:00      120.987       80.522        4.154       57.044       35.610       31.966     3253.977     1268.054     1021.855        1.334        0.277      145.333       27.918        0.037      329.594       -3.572      858.491
12/05/2013  15:47:00       52.294       78.578       -0.957       53.645       39.791       23.436     2877.737     1583.295      549.250        0.696        0.251       94.388       12.173        0.017      329.579       -3.596      858.496
12/05/2013  15:48:00       27.220       79.210      -12.738       21.120       37.857       19.726      446.068     1433.155      389.114        0.472        0.113       83.756       21.351        0.065      329.614       -3.539      858.499
12/05/2013  15:49:00       94.640       56.187        7.264       64.083       30.907       25.158     4106.651      955.263      632.947        0.893        0.285      110.062       17.597        0.026      329.576       -3.600      858.481
12/05/2013  15:50:00      131.290       52.188        4.307       40.229       33.883       23.492     1618.391     1148.082      551.867        1.165        0.166      141.282       18.526        0.017      329.544       -3.653      858.471
12/05/2013  15:51:00       63.784       18.700        3.238       35.231       34.490       24.229     1241.238     1189.555      587.026        0.372        0.151       66.469       11.911        0.032      329.559       -3.629      858.484
12/05/2013  15:52:00       71.322       58.034       -3.628       49.768       30.629       15.125     2476.848      938.130      228.761        0.606        0.182       91.950       12.842        0.020      329.555       -3.635      858.497
12/05/2013  15:53:00       75.665       47.729        9.459       55.945       27.087       24.841     3129.787      733.708      617.063        0.629        0.224       89.461       22.565        0.064      329.559       -3.629      858.504
12/05/2013  15:54:00       94.473       45.583        5.822       28.884       34.496       25.657      834.292     1189.962      658.297        0.686        0.134      104.895       14.894        0.020      329.552       -3.639      858.506
12/05/2013  15:55:00       97.420       55.804        0.685       29.050       23.276       19.782      843.892      541.785      391.328        0.719        0.089      112.271       13.154        0.014      329.522       -3.689      858.522
12/05/2013  15:56:00       55.910       40.015        8.293       26.854       26.390       20.472      721.126      696.408      419.098        0.332        0.092       68.754       11.523        0.028      329.559       -3.629      858.535
12/05/2013  15:57:00       76.083       47.486        7.598       31.140       21.582       24.388      969.670      465.794      594.785        0.507        0.102       89.686       12.144        0.018      329.561       -3.625      858.536
12/05/2013  15:58:00       69.626       59.066       14.865       21.346       13.073       16.822      455.664      170.909      282.979        0.473        0.045       91.305        7.379        0.007      329.593       -3.574      858.543
12/05/2013  15:59:00       60.746       50.398       -6.567       19.885       17.422       15.754      395.405      303.534      248.173        0.361        0.047       78.931       12.536        0.025      329.553       -3.637      858.563
12/05/2013  16:00:00       60.916       39.129       10.761       35.710       20.027       20.786     1275.232      401.075      432.047        0.373        0.105       72.401       23.470        0.105      329.572       -3.605      858.568
12/05/2013  16:01:00       91.120       57.316       -0.218       60.763       36.672       19.825     3692.090     1344.823      393.015        0.851        0.271      107.648       12.425        0.013      329.528       -3.679      858.565
12/05/2013  16:02:00       47.554       75.160      -16.861       39.977       39.089       22.457     1598.158     1527.920      504.312        0.591        0.182       88.941       20.860        0.055      329.464       -3.785      858.550
12/05/2013  16:03:00       38.580       59.535        2.277       40.840       41.822       30.019     1667.906     1749.046      901.163        0.468        0.216       70.943       27.035        0.145      329.436       -3.829      858.514
12/05/2013  16:04:00       40.503       83.552       -3.527       33.262       43.824       31.662     1106.371     1920.540     1002.481        0.633        0.201       92.852       28.207        0.092      329.403       -3.885      858.510
12/05/2013  16:05:00       38.158      111.862       -9.252       38.450       49.523       30.836     1478.440     2452.576      950.864        0.947        0.244      118.191       27.058        0.052      329.400       -3.888      858.513
12/05/2013  16:06:00       41.020      105.808       -7.665       43.053       62.843       33.314     1853.578     3949.259     1109.826        0.992        0.346      113.481       35.588        0.098      329.394       -3.899      858.515
12/05/2013  16:07:00       59.477      145.860      -26.741       28.922       30.418       26.200      836.482      925.246      686.442        1.399        0.122      157.520       20.683        0.017      329.357       -3.960      858.520
12/05/2013  16:08:00       36.033       76.426       -0.268       36.779       44.967       27.678     1352.679     2022.013      766.074        0.564        0.207       84.495       24.255        0.082      329.391       -3.904      858.515
12/05/2013  16:09:00       19.361       68.776        1.782       38.851       34.419       29.350     1509.364     1184.683      861.438        0.433        0.178       71.449       25.683        0.129      329.428       -3.844      858.522
12/05/2013  16:10:00       36.618       90.621      -11.865       31.885       36.887       26.137     1016.680     1360.667      683.169        0.638        0.153       97.740       19.256        0.039      329.433       -3.835      858.545
12/05/2013  16:11:00       -3.916      115.810      -11.263       38.083       32.766       20.796     1450.304     1073.580      432.468        0.825        0.148      115.876       19.065        0.027      329.376       -3.927      858.559
12/05/2013  16:12:00       15.620       54.492       -8.917       23.871       22.591       16.595      569.823      510.362      275.403        0.232        0.068       56.686       13.823        0.059      329.405       -3.883      858.564
12/05/2013  16:13:00       60.122       65.856       -8.563       32.750       45.882       34.325     1072.588     2105.137     1178.229        0.619        0.218       89.172       31.267        0.123      329.334       -3.999      858.535
12/05/2013  16:14:00       37.635       95.229       -7.228       35.785       57.495       35.840     1280.566     3305.725     1284.505        0.820        0.294      102.396       35.455        0.120      329.276       -4.090      858.523
12/05/2013  16:15:00       42.560       79.857      -10.045       31.046       40.099       31.116      963.870     1607.967      968.220        0.591        0.177       90.491       25.652        0.080      329.300       -4.053      858.514
12/05/2013  16:16:00       10.608      159.156      -28.732       19.728       32.363       13.131      389.192     1047.381      172.428        1.394        0.080      159.509        9.723        0.004      329.317       -4.027      858.506
12/05/2013  16:17:00        4.455      113.102      -21.636       24.415       22.247       14.440      596.077      494.933      208.505        0.729        0.065      113.190       11.069        0.010      329.330       -4.003      858.503
12/05/2013  16:18:00      -13.521       84.960       -6.700       30.649       25.862       18.520      939.374      668.848      342.993        0.470        0.098       86.029       15.383        0.032      329.395       -3.896      858.513
12/05/2013  16:19:00      -19.137      150.882      -22.407       21.218       26.361       10.295      450.219      694.917      105.985        1.244        0.063      152.091        7.379        0.002      329.254       -4.125      858.526
12/05/2013  16:20:00       -1.936      102.006      -12.225       13.915       24.012       10.359      193.626      576.585      107.318        0.572        0.044      102.025       10.094        0.010      329.277       -4.088      858.528
12/05/2013  16:21:00        4.060      138.081      -19.390       15.251       35.405       14.427      232.593     1253.529      208.141        1.058        0.085      138.140       15.709        0.013      329.271       -4.100      858.507
12/05/2013  16:22:00      -12.596      147.736      -27.527       15.434       22.886       10.551      238.211      523.764      111.316        1.181        0.044      148.272        6.911        0.002      329.303       -4.046      858.496
12/05/2013  16:23:00       -2.638       94.293      -12.807       31.338       20.820       14.258      982.052      433.465      203.300        0.534        0.081       94.330        4.196        0.002      329.342       -3.985      858.501
12/05/2013  16:24:00       15.069      104.941      -13.516       34.261       49.693       26.024     1173.792     2469.390      677.237        0.787        0.216      106.018       27.615        0.068      329.337       -3.991      858.501
12/05/2013  16:25:00        6.231      118.835      -13.800       20.879       42.416       20.904      435.918     1799.085      436.963        0.851        0.134      118.999       24.081        0.041      329.273       -4.097      858.498
12/05/2013  16:26:00       19.888       72.780       -8.356       21.111       31.509       15.042      445.685      992.840      226.275        0.371        0.083       75.448       11.045        0.021      329.291       -4.066      858.493
12/05/2013  16:27:00       18.645       69.004      -10.212       19.979       30.893       19.310      399.152      954.351      372.880        0.347        0.086       71.479       17.212        0.058      329.273       -4.096      858.502
12/05/2013  16:28:00       22.413      119.907      -21.254       26.823       23.963       16.605      719.459      574.249      275.726        0.845        0.078      121.983       15.259        0.016      329.225       -4.173      858.506
12/05/2013  16:29:00        7.643      109.733      -16.123       23.615       54.869       22.782      557.662     3010.635      519.007        0.822        0.204      109.999       31.008        0.079      329.218       -4.185      858.511
12/05/2013  16:30:00        3.407      138.035      -20.302       18.799       33.580       13.369      353.411     1127.613      178.723        1.057        0.083      138.077        4.649        0.001      329.208       -4.203      858.508
12/05/2013  16:31:00       14.916      100.115      -16.442       23.732       33.152       13.664      563.223     1099.067      186.708        0.618        0.092      101.220       15.699        0.024      329.193       -4.227      858.500
12/05/2013  16:32:00       25.199      131.995      -18.301       23.293       31.798       16.668      542.573     1011.144      277.808        1.011        0.092      134.379       12.481        0.009      329.192       -4.229      858.498
12/05/2013  16:33:00       16.881      109.005      -16.680       26.590       32.853       19.170      707.046     1079.302      367.479        0.730        0.108      110.305       18.524        0.028      329.203       -4.211      858.495
12/05/2013  16:34:00       20.029       95.830      -12.208       25.684       26.811       19.951      659.679      718.821      398.035        0.575        0.089       97.901       17.133        0.031      329.171       -4.263      858.490
12/05/2013  16:35:00       16.572       81.742      -12.328       29.935       24.824       21.159      896.119      616.211      447.718        0.453        0.098       83.405       14.216        0.029      329.155       -4.289      858.498
12/05/2013  16:36:00        2.083      103.634       -5.044       33.473       32.320       22.218     1120.461     1044.577      493.621        0.671        0.133      103.655       19.531        0.036      329.168       -4.269      858.518
12/05/2013  16:37:00       15.828      128.890      -18.727       29.000       22.326       15.758      841.026      498.432      248.328        0.940        0.079      129.859       11.719        0.008      329.159       -4.283      858.528
12/05/2013  16:38:00       14.149      129.851      -14.920       21.563       47.632       25.835      464.949     2268.811      667.469        1.034        0.170      130.620       30.690        0.055      329.155       -4.290      858.522
12/05/2013  16:39:00       21.145      145.650      -20.398       18.168       24.721       18.328      330.078      611.106      335.932        1.168        0.064      147.177       15.946        0.012      329.162       -4.278      858.518
12/05/2013  16:40:00       22.198      128.246      -19.484       23.952       24.226       16.426      573.686      586.909      269.799        0.937        0.072      130.153        9.779        0.006      329.152       -4.294      858.521
12/05/2013  16:41:00        8.462      138.478      -22.491       20.368       28.159       12.713      414.854      792.918      161.632        1.056        0.068      138.737       10.715        0.006      329.163       -4.277      858.528
12/05/2013  16:42:00        7.436       99.724      -18.383       17.995       37.877       13.790      323.802     1434.678      190.165        0.614        0.097      100.001       17.984        0.032      329.139       -4.315      858.546
12/05/2013  16:43:00       16.982      134.844      -20.100       16.878       31.299       15.394      284.874      979.598      236.967        1.019        0.075      135.909       15.487        0.013      329.138       -4.318      858.550
12/05/2013  16:44:00        8.298      114.217      -19.312       21.194       18.615       12.004      449.171      346.509      144.092        0.721        0.047      114.518       10.169        0.008      329.169       -4.268      858.544
12/05/2013  16:45:00       17.832       77.834      -14.206       19.943       23.119       12.496      397.707      534.509      156.162        0.383        0.054       79.851       10.918        0.019      329.157       -4.289      858.544
12/05/2013  16:46:00       18.206       86.171       -9.622       25.350       28.404       13.251      642.614      806.782      175.595        0.474        0.081       88.074       11.277        0.016      329.155       -4.289      858.547
12/05/2013  16:47:00       45.717       44.309        3.191       28.538       26.329       23.341      814.392      693.222      544.811        0.306        0.103       63.666       19.285        0.092      329.111       -4.361      858.542
12/05/2013  16:48:00        2.307       52.200       -2.075       23.926       17.145       17.707      572.438      293.938      313.526        0.196        0.059       52.251        9.903        0.036      329.078       -4.415      858.536
12/05/2013  16:49:00       46.316       58.510       -0.445       25.041       17.064       20.708      627.059      291.187      428.829        0.346        0.067       74.623       15.026        0.041      329.096       -4.386      858.524
12/05/2013  16:50:00       46.402       35.676       12.232       40.773       29.266       28.114     1662.445      856.518      790.414        0.344        0.165       58.531       10.849        0.034      329.107       -4.367      858.522
12/05/2013  16:51:00       13.616       13.857        2.828       27.389       25.301       24.152      750.132      640.128      583.298        0.118        0.099       19.427       15.783        0.660      329.062       -4.442      858.526
12/05/2013  16:52:00        7.356       78.382      -13.673       29.638       43.791       11.654      878.393     1917.644      135.806        0.466        0.147       78.726       15.009        0.036      329.093       -4.389      858.535
12/05/2013  16:53:00       -3.164      110.058      -16.986       17.805       15.761       10.857      317.028      248.423      117.884        0.655        0.034      110.103        6.789        0.004      329.115       -4.355      858.532
12/05/2013  16:54:00        3.144      104.053      -17.757       27.492       30.221       15.202      755.835      913.285      231.108        0.653        0.095      104.101       11.755        0.013      329.134       -4.324      858.536
12/05/2013  16:55:00       -3.400      124.017      -20.255       15.138       20.779       14.501      229.154      431.757      210.277        0.834        0.044      124.063        7.940        0.004      329.138       -4.318      858.549
12/05/2013  16:56:00      -21.009       54.858       -2.158       32.912       27.577       16.390     1083.194      760.493      268.620        0.278        0.106       58.744       16.895        0.083      329.122       -4.342      858.563
12/05/2013  16:57:00      -41.171       34.570       -5.913       15.337       16.487       14.479      235.231      271.836      209.629        0.182        0.036       53.760        9.189        0.029      329.228       -4.170      858.559
12/05/2013  16:58:00      -36.114       14.102      -13.030       14.192       13.363       11.864      201.426      178.575      140.747        0.110        0.026       38.770        8.661        0.050      329.173       -4.259      858.555
12/05/2013  16:59:00      -27.749       37.316       -7.860       17.725       23.677       14.152      314.191      560.597      200.274        0.165        0.054       46.502       11.933        0.066      329.069       -4.431      858.557
12/05/2013  17:00:00      -27.974        5.565        2.259       25.289       30.544       19.643      639.545      932.928      385.861        0.139        0.098       28.523       13.505        0.224      328.927       -4.662      858.572
12/05/2013  17:01:00      -77.672       -8.651       -0.956       30.287       25.265       16.152      917.330      638.306      260.895        0.396        0.091       78.153       11.976        0.023      328.817       -4.841      858.579
12/05/2013  17:02:00     -100.747      -16.335       -8.401       18.832       20.841       18.162      354.630      434.351      329.876        0.580        0.056      102.062        7.657        0.006      328.671       -5.079      858.582
12/05/2013  17:03:00      -99.735      -15.329      -11.172       25.908       19.045       15.470      671.211      362.723      239.308        0.579        0.064      100.906        9.944        0.010      328.651       -5.112      858.576
12/05/2013  17:04:00     -100.885      -19.662       -9.501       21.736       15.254       13.464      472.432      232.673      181.289        0.577        0.044      102.783       10.260        0.010      328.672       -5.077      858.597
12/05/2013  17:05:00     -104.854      -10.159      -16.595       30.511       20.935       14.542      930.911      438.291      211.481        0.648        0.079      105.345       12.634        0.014      328.649       -5.116      858.612
12/05/2013  17:06:00     -104.053       -0.882      -12.792       36.820       22.986       20.016     1355.713      528.336      400.642        0.664        0.114      104.057       20.944        0.041      328.567       -5.248      858.612
12/05/2013  17:07:00     -101.753       -6.014      -10.076       26.451       19.217       17.181      699.666      369.296      295.201        0.593        0.068      101.931       15.119        0.022      328.495       -5.365      858.608
12/05/2013  17:08:00     -102.065        4.692      -12.790       29.213       25.683       19.266      853.403      659.609      371.161        0.624        0.094      102.172       17.431        0.029      328.504       -5.353      858.587
12/05/2013  17:09:00     -120.498        0.506      -14.826       28.908       21.372       17.092      835.646      456.776      292.146        0.816        0.079      120.499       13.710        0.013      328.430       -5.472      858.566
12/05/2013  17:10:00     -104.121      -11.725      -12.679       35.008       24.373       19.598     1225.536      594.021      384.065        0.667        0.110      104.779       20.092        0.037      328.460       -5.424      858.560
12/05/2013  17:11:00     -110.951        2.020      -11.869       38.761       22.007       18.310     1502.398      484.307      335.263        0.739        0.116      110.970       17.262        0.024      328.406       -5.512      858.567
12/05/2013  17:12:00     -106.422        4.240      -10.083       53.733       21.464       22.280     2887.213      460.694      496.377        0.764        0.192      106.506       27.940        0.069      328.386       -5.543      858.565
12/05/2013  17:13:00     -108.619      -15.627      -12.547       38.923       29.513       19.399     1514.964      871.040      376.326        0.748        0.138      109.737       14.967        0.019      328.424       -5.482      858.573
12/05/2013  17:14:00     -119.731      -14.006       -9.658       49.586       39.927       26.243     2458.754     1594.195      688.683        0.968        0.237      120.548       22.779        0.036      328.360       -5.586      858.597
12/05/2013  17:15:00     -132.562      -14.969      -15.703       42.468       31.906       21.451     1803.535     1018.000      460.161        1.066        0.164      133.405       19.816        0.022      328.405       -5.512      858.613
12/05/2013  17:16:00     -167.649       -2.611      -19.416       49.845       26.871       26.865     2484.513      722.031      721.748        1.621        0.196      167.669       24.751        0.022      328.242       -5.780      858.636
12/05/2013  17:17:00     -144.772       -4.980      -14.324       59.615       35.620       28.235     3553.946     1268.758      797.204        1.340        0.281      144.858       34.071        0.055      328.203       -5.843      858.655
12/05/2013  17:18:00     -170.861       -2.320      -16.003       46.432       26.380       24.191     2155.953      695.880      585.224        1.645        0.172      170.877       27.836        0.027      328.142       -5.942      858.668
12/05/2013  17:19:00     -166.553       -9.576      -16.271       39.375       38.553       19.390     1550.386     1486.300      375.956        1.575        0.171      166.828       18.479        0.012      328.177       -5.885      858.673
12/05/2013  17:20:00     -122.560      -49.964      -18.473       36.901       30.486       22.591     1361.720      929.400      510.331        1.033        0.140      132.353       18.106        0.019      328.229       -5.799      858.664
12/05/2013  17:21:00     -138.622      -26.640      -16.929       39.999       32.470       23.324     1599.910     1054.271      544.000        1.170        0.160      141.158       14.160        0.010      328.285       -5.709      858.672
12/05/2013  17:22:00     -125.879      -32.725      -11.672       53.442       40.408       23.710     2856.094     1632.778      562.186        1.105        0.253      130.064       22.942        0.031      328.107       -5.998      858.696
12/05/2013  17:23:00     -147.769      -29.425      -14.344       45.185       37.865       21.951     2041.671     1433.775      481.864        1.343        0.198      150.670       19.121        0.016      328.155       -5.921      858.699
12/05/2013  17:24:00     -146.018      -44.906      -18.781       21.316       26.655       15.345      454.382      710.498      235.460        1.255        0.070      152.767        8.389        0.003      328.035       -6.115      858.689
12/05/2013  17:25:00      -88.703      -36.801      -16.085       34.396       34.970       19.080     1183.107     1222.911      364.039        0.613        0.139       96.034       14.535        0.023      328.236       -5.788      858.673
12/05/2013  17:26:00      -97.095      -16.791      -14.577       29.108       28.616       18.623      847.304      818.856      346.806        0.597        0.101       98.536       10.024        0.010      328.261       -5.747      858.665
12/05/2013  17:27:00     -116.692      -46.935       -5.616       38.234       34.498       25.049     1461.838     1190.121      627.435        0.956        0.164      125.777       16.682        0.018      328.192       -5.859      858.671
12/05/2013  17:28:00     -114.349      -56.594      -11.188       36.881       39.787       25.075     1360.175     1583.040      628.758        0.999        0.179      127.588       18.088        0.020      328.179       -5.881      858.679
12/05/2013  17:29:00     -108.665      -24.033      -12.896       60.233       43.791       29.125     3627.964     1917.661      848.280        0.947        0.320      111.291       26.833        0.058      328.165       -5.903      858.682
12/05/2013  17:30:00     -147.498        0.110      -19.734       36.034       23.192       24.768     1298.447      537.865      613.471        1.230        0.122      147.498        8.076        0.003      328.106       -6.000      858.689
12/05/2013  17:31:00     -107.640      -53.721       -9.741       30.325       33.060       18.520      919.588     1092.975      342.982        0.846        0.118      120.301       13.247        0.012      328.134       -5.954      858.675
12/05/2013  17:32:00      -77.160      -24.285       -3.149       39.744       43.964       23.543     1579.598     1932.797      554.257        0.531        0.203       80.892       12.727        0.025      328.167       -5.901      858.673
12/05/2013  17:33:00      -82.074       -8.898        4.781       45.228       27.692       16.443     2045.601      766.833      270.367        0.496        0.154       82.555       17.342        0.044      328.174       -5.890      858.679
12/05/2013  17:34:00      -79.756      -10.399       -9.243       22.713       27.502       27.667      515.891      756.354      765.440        0.430        0.102       80.431       16.853        0.044      328.245       -5.774      858.679
12/05/2013  17:35:00      -74.952      -27.551        1.423       42.672       37.795       22.807     1820.868     1428.474      520.159        0.507        0.188       79.855       22.575        0.080      328.174       -5.890      858.682
12/05/2013  17:36:00      -98.702      -27.551       -9.232       40.336       31.543       20.657     1627.026      994.957      426.701        0.682        0.152      102.475       17.139        0.028      328.118       -5.981      858.671
12/05/2013  17:37:00     -135.637      -27.455      -15.807       31.641       28.470       18.037     1001.152      810.536      325.350        1.077        0.107      138.388       13.218        0.009      328.098       -6.011      858.661
12/05/2013  17:38:00     -129.970      -30.671      -11.655       35.274       37.701       21.123     1244.243     1421.390      446.187        1.054        0.156      133.540       15.363        0.013      328.108       -5.998      858.666
12/05/2013  17:39:00     -113.359      -43.802       -8.983       28.035       33.166       18.821      785.971     1099.974      354.220        0.854        0.112      121.527       10.401        0.007      328.145       -5.938      858.667
12/05/2013  17:40:00     -119.802      -22.731      -11.805       25.412       24.638       17.364      645.794      607.053      301.516        0.828        0.078      121.939        6.000        0.002      328.053       -6.085      858.669
12/05/2013  17:41:00      -84.702      -24.544       -2.222       52.140       33.204       23.016     2718.619     1102.509      529.731        0.607        0.218       88.186       15.154        0.030      328.092       -6.023      858.659
12/05/2013  17:42:00     -127.585       -5.493      -17.299       28.083       35.544       18.274      788.673     1263.348      333.939        0.950        0.119      127.703       11.010        0.007      328.093       -6.023      858.669
12/05/2013  17:43:00     -103.946      -13.529       -7.419       48.568       48.453       25.624     2358.803     2347.728      656.583        0.820        0.268      104.823       27.212        0.067      328.009       -6.159      858.678
12/05/2013  17:44:00     -119.089      -10.827       -8.300       53.714       27.505       18.905     2885.206      756.526      357.387        0.918        0.200      119.580       20.160        0.028      328.048       -6.094      858.691
12/05/2013  17:45:00     -195.036      -15.679      -20.262       41.281       34.761       20.262     1704.092     1208.344      410.533        2.101        0.166      195.665       15.851        0.007      327.967       -6.227      858.692
12/05/2013  17:46:00     -166.486      -18.904      -11.073       45.348       36.828       27.903     2056.420     1356.316      778.583        1.619        0.210      167.556       25.264        0.023      327.957       -6.241      858.705
12/05/2013  17:47:00     -170.691      -18.739      -16.072       42.974       40.167       27.115     1846.779     1613.363      735.234        1.697        0.210      171.717       25.221        0.022      327.935       -6.279      858.694
12/05/2013  17:48:00     -166.262        1.702      -24.437       41.420       31.143       21.242     1715.637      969.862      451.221        1.569        0.157      166.271       20.535        0.015      327.943       -6.266      858.686
12/05/2013  17:49:00     -111.547       -8.457      -16.994       35.100       36.306       18.825     1231.975     1318.119      354.377        0.785        0.145      111.867       18.277        0.027      327.974       -6.215      858.668
12/05/2013  17:50:00      -97.207      -22.622       -7.897       28.848       32.022       16.807      832.196     1025.378      282.476        0.608        0.107       99.805       12.214        0.015      328.126       -5.968      858.659
12/05/2013  17:51:00     -101.302        3.619       -8.656       34.150       30.675       19.862     1166.256      940.957      394.481        0.643        0.125      101.367       19.877        0.038      328.139       -5.946      858.650
12/05/2013  17:52:00      -80.006       11.072       -1.866       27.490       29.356       21.035      755.690      861.772      442.464        0.429        0.103       80.769       11.054        0.019      328.152       -5.926      858.661
12/05/2013  17:53:00      -32.603      -15.412        1.399       52.221       27.248       23.539     2726.999      742.461      554.072        0.266        0.201       36.062       23.481        0.424      328.150       -5.929      858.668
12/05/2013  17:54:00      -94.069      -50.080       -3.448       40.693       41.492       21.886     1655.885     1721.570      478.989        0.761        0.193      106.570       22.033        0.043      328.071       -6.057      858.670
12/05/2013  17:55:00      -78.232      -37.690        2.726       44.017       32.912       21.854     1937.478     1083.174      477.592        0.552        0.175       86.838       23.064        0.071      328.088       -6.031      858.687
12/05/2013  17:56:00     -109.158      -18.536      -17.329       26.451       25.286       13.286      699.675      639.375      176.530        0.704        0.076      110.721       10.310        0.009      328.084       -6.037      858.706
12/05/2013  17:57:00     -108.332      -45.165       -7.749       26.274       29.068       16.056      690.337      844.973      257.802        0.781        0.090      117.370       12.231        0.011      328.179       -5.881      858.715
12/05/2013  17:58:00      -59.118      -64.922        3.717       34.920       32.716       18.963     1219.417     1070.361      359.611        0.519        0.132       87.806       18.609        0.045      328.261       -5.749      858.710
12/05/2013  17:59:00      -73.044      -47.589        0.894       41.003       37.908       22.684     1681.252     1437.025      514.578        0.562        0.182       87.179       20.457        0.055      328.304       -5.675      858.726
12/05/2013  18:00:00     -124.184      -76.024      -16.751       41.059       27.808       21.247     1685.854      773.271      451.427        1.220        0.146      145.607       12.698        0.008      328.191       -5.861      858.740
12/05/2013  18:01:00      -56.679      -41.758        4.173       52.250       46.113       27.992     2730.017     2126.432      783.530        0.531        0.282       70.400       29.811        0.179      328.108       -5.997      858.770
12/05/2013  18:02:00      -98.160      -55.246       -1.032       40.494       49.545       22.432     1639.781     2454.676      503.198        0.864        0.230      112.639       21.806        0.037      328.125       -5.970      858.797
12/05/2013  18:03:00     -119.000      -55.026       -4.598       35.014       32.832       27.369     1225.970     1077.966      749.084        1.013        0.153      131.106       22.800        0.030      327.994       -6.183      858.806
12/05/2013  18:04:00     -101.522      -27.444       -4.660       42.934       28.557       21.633     1843.341      815.513      467.969        0.710        0.156      105.166       21.770        0.043      328.117       -5.983      858.810
12/05/2013  18:05:00      -62.222      -41.770       13.043       56.736       45.153       29.060     3218.942     2038.750      844.468        0.594        0.305       74.942       30.489        0.166      328.079       -6.043      858.813
12/05/2013  18:06:00     -132.307      -44.131      -12.215       39.976       34.142       24.202     1598.106     1165.656      585.742        1.148        0.167      139.473       18.623        0.018      328.039       -6.109      858.827
12/05/2013  18:07:00     -121.611      -37.498       -6.173       47.731       35.004       20.143     2278.205     1225.284      405.725        1.007        0.195      127.261       18.701        0.022      327.948       -6.257      858.850
12/05/2013  18:08:00     -118.921      -80.268      -10.472       35.532       38.165       18.893     1262.520     1456.536      356.952        1.188        0.154      143.476       17.678        0.015      327.945       -6.263      858.853
12/05/2013  18:09:00      -31.881      -38.878       16.459       52.859       44.502       29.076     2794.113     1980.397      845.394        0.421        0.281       50.278       30.364        0.365      327.982       -6.202      858.845
12/05/2013  18:10:00      -52.862       -0.998        9.422       46.393       28.518       21.818     2152.284      813.272      476.018        0.316        0.172       52.871       24.698        0.218      328.005       -6.164      858.816
12/05/2013  18:11:00     -108.281      -15.055      -11.793       28.898       32.508       20.285      835.091     1056.758      411.489        0.720        0.115      109.323       20.466        0.035      327.938       -6.273      858.812
12/05/2013  18:12:00      -65.670      -19.375        4.508       51.298       18.670       21.508     2631.464      348.558      462.587        0.407        0.172       68.469       19.718        0.083      328.002       -6.171      858.798
12/05/2013  18:13:00      -84.981      -36.261       -0.819       42.899       30.429       21.330     1840.290      925.908      454.960        0.588        0.161       92.394       24.277        0.069      327.995       -6.181      858.782
12/05/2013  18:14:00      -38.095        6.077       12.443       47.400       28.444       21.414     2246.725      809.064      458.565        0.258        0.176       38.577       19.249        0.249      328.073       -6.053      858.782
12/05/2013  18:15:00      -49.973      -18.858        6.425       53.756       25.732       20.863     2889.660      662.138      435.261        0.344        0.199       53.413       22.029        0.170      327.982       -6.203      858.774
12/05/2013  18:16:00      -96.668      -15.703       -9.972       38.738       26.214       19.843     1500.655      687.152      393.731        0.614        0.129       97.935       16.216        0.027      327.964       -6.231      858.784
12/05/2013  18:17:00     -122.581      -27.505      -14.256       31.984       21.129       18.936     1022.951      446.424      358.558        0.891        0.091      125.629       16.377        0.017      327.990       -6.190      858.803
12/05/2013  18:18:00     -156.936      -26.940      -18.314       27.348       37.180       21.034      747.931     1382.370      442.423        1.413        0.129      159.231       15.026        0.009      327.883       -6.363      858.813
12/05/2013  18:19:00     -143.557      -39.415       -6.701       32.870       37.871       20.426     1080.437     1434.182      417.205        1.257        0.147      148.869       18.304        0.015      327.858       -6.405      858.804
12/05/2013  18:20:00     -107.958      -29.649       -2.535       31.956       26.799       19.549     1021.204      718.185      382.169        0.733        0.106      111.955       16.533        0.022      327.821       -6.463      858.801
12/05/2013  18:21:00     -101.906      -35.753       -4.868       34.288       34.681       20.776     1175.675     1202.739      431.658        0.725        0.141      107.996       13.537        0.016      327.854       -6.410      858.785
12/05/2013  18:22:00     -101.823      -42.739      -11.165       28.447       32.460       20.895      809.239     1053.672      436.599        0.731        0.115      110.429       13.986        0.016      327.899       -6.337      858.775
12/05/2013  18:23:00      -91.413      -28.381       -6.882       72.321       35.876       25.239     5230.395     1287.117      636.991        0.818        0.358       95.718       30.223        0.100      327.795       -6.507      858.783
12/05/2013  18:24:00     -136.244      -25.645      -14.631       60.515       31.098       22.571     3662.065      967.116      509.450        1.229        0.257      138.637       29.770        0.046      327.753       -6.575      858.781
12/05/2013  18:25:00     -124.983      -52.693       -8.969       36.148       38.862       20.380     1306.707     1510.231      415.335        1.085        0.162      135.636       15.836        0.014      327.791       -6.514      858.776
12/05/2013  18:26:00     -113.307      -48.239       -6.336       47.631       35.379       28.702     2268.743     1251.665      823.793        0.977        0.217      123.148       25.028        0.041      327.760       -6.564      858.783
12/05/2013  18:27:00     -120.594       15.311      -12.776       36.070       41.169       26.901     1301.077     1694.922      723.667        0.933        0.186      121.562       20.995        0.030      327.765       -6.555      858.794
12/05/2013  18:28:00     -152.712      -24.345      -17.212       39.420       41.486       24.595     1553.913     1721.090      604.913        1.404        0.194      154.640       18.260        0.014      327.684       -6.687      858.800
12/05/2013  18:29:00     -145.278      -30.046       -4.483       64.715       34.964       30.147     4188.079     1222.496      908.834        1.417        0.316      148.353       35.464        0.057      327.603       -6.821      858.789
12/05/2013  18:30:00     -134.587      -45.008       -7.644       62.461       40.091       27.741     3901.385     1607.263      769.539        1.324        0.314      141.913       24.513        0.030      327.636       -6.767      858.777
12/05/2013  18:31:00     -114.954      -32.403       -1.427       91.190       33.473       31.641     8315.694     1120.440     1001.158        1.235        0.522      119.434       37.327        0.098      327.618       -6.796      858.767
12/05/2013  18:32:00     -178.691      -16.272      -18.810       40.376       38.169       23.393     1630.216     1456.907      547.210        1.809        0.182      179.430       16.935        0.009      327.624       -6.785      858.772
12/05/2013  18:33:00     -193.778       18.630      -18.698       27.431       24.169       21.882      752.464      584.127      478.817        2.003        0.091      194.671       17.651        0.008      327.512       -6.966      858.792
12/05/2013  18:34:00     -170.658       -5.653      -13.551       45.196       42.193       20.785     2042.675     1780.211      432.023        1.680        0.213      170.751       13.793        0.007      327.553       -6.900      858.822
12/05/2013  18:35:00     -222.647       15.654      -19.947       49.531       37.594       27.047     2453.362     1413.342      731.540        2.741        0.230      223.197       25.081        0.013      327.520       -6.958      858.829
12/05/2013  18:36:00     -171.251       12.249      -21.861       49.454       34.668       30.855     2445.654     1201.871      952.028        1.728        0.230      171.688       31.420        0.033      327.594       -6.834      858.830
12/05/2013  18:37:00     -176.808       12.348      -22.142       50.340       44.088       23.446     2534.144     1943.764      549.698        1.846        0.251      177.239       21.958        0.015      327.582       -6.854      858.830
12/05/2013  18:38:00     -127.147       -0.764       -6.352       44.605       56.585       26.967     1989.635     3201.834      727.207        1.106        0.296      127.149       22.920        0.032      327.602       -6.822      858.822
12/05/2013  18:39:00     -134.288       12.969       -8.026       51.707       32.895       25.894     2673.566     1082.106      670.524        1.135        0.221      134.912       25.339        0.035      327.564       -6.881      858.831
12/05/2013  18:40:00     -146.580      -14.499       -9.665       31.727       36.238       21.062     1006.601     1313.164      443.603        1.228        0.138      147.296       14.170        0.009      327.583       -6.852      858.857
12/05/2013  18:41:00     -150.025        6.456       -7.818       35.843       43.734       25.181     1284.701     1912.638      634.087        1.322        0.192      150.164       21.016        0.020      327.593       -6.834      858.886
12/05/2013  18:42:00     -114.909      -11.250      -12.683       36.697       41.270       22.507     1346.678     1703.184      506.548        0.852        0.178      115.458       18.848        0.027      327.591       -6.839      858.903
12/05/2013  18:43:00     -102.769      -23.162       -8.743       41.584       26.559       22.096     1729.228      705.402      488.218        0.705        0.146      105.347       21.634        0.042      327.553       -6.901      858.899
12/05/2013  18:44:00      -76.159        0.903       -5.935       43.756       35.597       20.036     1914.590     1267.151      401.435        0.471        0.179       76.164       22.286        0.086      327.653       -6.736      858.889
12/05/2013  18:45:00      -80.047      -57.190       -4.959       30.171       30.833       18.936      910.275      950.652      358.558        0.596        0.111       98.377       13.803        0.020      327.735       -6.604      858.884
12/05/2013  18:46:00      -76.603      -25.206       -8.689       43.617       26.972       18.818     1902.443      727.507      354.121        0.478        0.149       80.644        5.508        0.005      327.747       -6.585      858.877
12/05/2013  18:47:00      -45.241      -14.471        1.825       41.195       16.481       21.204     1697.062      271.626      449.603        0.234        0.121       47.499       13.584        0.082      327.706       -6.652      858.878
12/05/2013  18:48:00      -88.057      -25.285       -9.900       22.778       17.723       18.604      518.859      314.110      346.112        0.484        0.059       91.616        5.709        0.004      327.655       -6.735      858.882
12/05/2013  18:49:00      -87.928      -21.104      -10.090       26.404       16.204       16.323      697.185      262.560      266.448        0.475        0.061       90.425       14.994        0.027      327.649       -6.743      858.869
12/05/2013  18:50:00     -101.174      -10.594      -13.651       27.367       15.550       14.496      748.977      241.794      210.127        0.587        0.060      101.727       14.606        0.021      327.695       -6.668      858.858
12/05/2013  18:51:00     -108.580       -8.887       -4.267       22.837       15.962       16.126      521.544      254.778      260.035        0.646        0.052      108.943       13.777        0.016      327.681       -6.692      858.853
12/05/2013  18:52:00     -107.867      -12.429      -16.178       13.729       15.921       16.244      188.480      253.472      263.860        0.638        0.035      108.581        8.705        0.006      327.612       -6.806      858.852
12/05/2013  18:53:00     -103.454      -53.762       -9.998       24.032       21.875       15.040      577.540      478.532      226.192        0.749        0.064      116.590        5.869        0.003      327.687       -6.682      858.858
12/05/2013  18:54:00      -68.030      -41.770       -6.692       39.760       25.956       19.594     1580.878      673.736      383.927        0.453        0.132       79.829       11.646        0.021      327.688       -6.680      858.849
12/05/2013  18:55:00      -56.194      -54.912      -10.153       34.555       30.465       19.052     1194.051      928.119      362.995        0.438        0.124       78.569       12.227        0.024      327.644       -6.752      858.842
12/05/2013  18:56:00      -60.605      -17.313       -3.614       34.255       16.221       17.421     1173.399      263.135      303.486        0.286        0.087       63.030       17.310        0.075      327.652       -6.740      858.841
12/05/2013  18:57:00      -91.431      -14.535       -9.432       28.714       24.064       12.638      824.509      579.056      159.715        0.511        0.078       92.579       12.615        0.019      327.605       -6.816      858.865
12/05/2013  18:58:00     -122.902       -1.714      -16.286       21.931       16.492       16.278      480.954      271.999      264.975        0.820        0.051      122.914       10.002        0.007      327.571       -6.871      858.881
12/05/2013  18:59:00     -142.140        0.470      -15.572       21.385       16.389       18.720      457.321      268.601      350.455        1.076        0.054      142.141       12.423        0.008      327.538       -6.924      858.892
12/05/2013  19:00:00     -150.251      -20.792      -17.385       24.425       29.030       20.281      596.563      842.736      411.313        1.258        0.093      151.683       18.118        0.014      327.487       -7.008      858.901
12/05/2013  19:01:00     -137.863      -15.259      -14.776       38.007       25.658       17.136     1444.519      658.348      293.642        1.093        0.120      138.705       13.648        0.010      327.452       -7.065      858.895
12/05/2013  19:02:00      -99.513      -18.973       -1.063       25.717       26.272       21.612      661.376      690.195      467.067        0.604        0.091      101.305       14.175        0.020      327.483       -7.013      858.874
12/05/2013  19:03:00     -125.763       -0.138       -7.477       29.788       34.024       20.568      887.313     1157.615      423.029        0.917        0.123      125.763       16.124        0.016      327.496       -6.992      858.854
12/05/2013  19:04:00     -124.560      -14.442      -16.886       35.581       23.787       23.663     1266.026      565.837      559.918        0.920        0.120      125.395       20.779        0.027      327.487       -7.008      858.853
12/05/2013  19:05:00     -138.171       -8.349      -13.034       29.607       23.814       18.077      876.565      567.109      326.787        1.055        0.089      138.423       16.142        0.014      327.533       -6.934      858.871
12/05/2013  19:06:00     -154.060       -4.340      -16.770       45.410       31.890       27.165     2062.106     1016.945      737.951        1.393        0.191      154.121       27.968        0.033      327.392       -7.162      858.894
12/05/2013  19:07:00     -159.823       -1.260      -11.300       35.316       28.084       20.733     1247.253      788.727      429.845        1.407        0.123      159.828       21.089        0.017      327.320       -7.278      858.927
12/05/2013  19:08:00     -111.488      -12.632      -14.963       54.092       40.017       22.873     2925.901     1601.338      523.161        0.893        0.253      112.202       23.952        0.046      327.313       -7.289      858.944
12/05/2013  19:09:00     -133.023      -12.250      -11.654       41.311       24.463       22.415     1706.634      598.461      502.433        1.039        0.140      133.586       21.413        0.026      327.302       -7.309      858.953
12/05/2013  19:10:00     -128.507      -10.030       -9.373       30.316       27.957       19.393      919.065      781.579      376.082        0.939        0.104      128.898       14.381        0.012      327.380       -7.181      858.957
12/05/2013  19:11:00     -120.271        5.990      -12.435       33.141       21.865       22.817     1098.351      478.073      520.636        0.838        0.105      120.420       21.486        0.032      327.374       -7.191      858.970
12/05/2013  19:12:00     -126.540        1.706      -15.426       37.520       22.693       24.162     1407.779      514.956      583.814        0.938        0.125      126.552       23.890        0.036      327.341       -7.243      858.972
12/05/2013  19:13:00     -123.564       -3.124       -8.638       45.876       27.402       25.933     2104.645      750.871      672.543        0.944        0.176      123.603       25.230        0.042      327.281       -7.343      858.959
12/05/2013  19:14:00     -135.921       -4.976       -8.356       34.901       30.085       20.059     1218.114      905.119      402.361        1.055        0.126      136.012       19.742        0.021      327.255       -7.386      858.944
12/05/2013  19:15:00     -140.952      -27.805       -8.276       28.145       28.412       16.275      792.163      807.263      264.861        1.129        0.093      143.668       14.327        0.010      327.324       -7.273      858.931
12/05/2013  19:16:00     -132.668      -40.661      -12.326       41.056       40.406       18.033     1685.612     1632.685      325.201        1.152        0.182      138.760       16.110        0.013      327.352       -7.227      858.942
12/05/2013  19:17:00     -151.648      -18.866      -13.542       33.205       36.998       22.426     1102.544     1368.878      502.912        1.325        0.149      152.817       16.143        0.011      327.249       -7.394      858.948
12/05/2013  19:18:00     -145.199       -4.640       -9.465       46.168       32.547       23.122     2131.494     1059.312      534.648        1.246        0.186      145.273       24.082        0.027      327.153       -7.550      858.949
12/05/2013  19:19:00     -128.304      -28.473      -10.763       31.642       25.570       19.158     1001.207      653.816      367.010        0.970        0.101      131.425       15.306        0.014      327.226       -7.432      858.950
12/05/2013  19:20:00     -108.486      -37.353       -6.906       54.634       28.636       24.775     2984.853      820.008      613.806        0.881        0.221      114.737       28.436        0.061      327.286       -7.333      858.956
12/05/2013  19:21:00     -103.596      -42.871       -2.510       46.935       40.494       23.850     2202.926     1639.792      568.817        0.849        0.221      112.116       25.928        0.053      327.296       -7.317      858.972
12/05/2013  19:22:00     -122.220      -41.875      -10.462       29.354       35.361       15.846      861.651     1250.433      251.088        0.958        0.118      129.195        8.014        0.004      327.372       -7.195      858.974
12/05/2013  19:23:00      -86.546      -77.608      -14.954       34.496       26.386       25.096     1189.943      696.242      629.824        0.813        0.126      116.246       16.164        0.019      327.314       -7.288      858.969
12/05/2013  19:24:00      -17.409      -19.880        9.286       35.133       21.703       25.482     1234.344      471.020      649.311        0.157        0.118       26.425       19.736        0.558      327.320       -7.279      858.962
12/05/2013  19:25:00        0.408        5.065        9.064       31.126       19.076       15.099      968.842      363.889      227.986        0.083        0.078        5.081        9.190        3.272      327.351       -7.227      858.964
12/05/2013  19:26:00     -101.092      -36.296       -8.595       31.183       27.674       17.015      972.373      765.834      289.516        0.682        0.101      107.410       15.421        0.021      327.310       -7.294      858.962
12/05/2013  19:27:00     -119.263        1.850      -18.190       21.576       15.470       15.567      465.513      239.320      242.337        0.775        0.047      119.277       10.869        0.008      327.261       -7.374      858.962
12/05/2013  19:28:00     -128.002       -5.238      -13.589       33.944       31.361       17.901     1152.182      983.494      320.453        0.953        0.123      128.109       14.836        0.013      327.244       -7.402      858.973
12/05/2013  19:29:00     -134.805        2.933      -11.153       47.890       39.017       30.118     2293.442     1522.358      907.104        1.151        0.236      134.837       28.502        0.045      327.082       -7.665      858.983
12/05/2013  19:30:00     -165.566        6.103       -4.616       47.648       41.242       33.480     2270.369     1700.917     1120.909        1.628        0.255      165.678       33.331        0.040      327.073       -7.681      858.997
12/05/2013  19:31:00     -139.574      -30.267      -11.536       41.185       41.957       23.522     1696.170     1760.374      553.308        1.227        0.200      142.818       22.012        0.024      327.115       -7.610      858.995
12/05/2013  19:32:00     -123.511      -39.143       -5.328       33.958       27.512       19.189     1153.129      756.933      368.211        0.955        0.114      129.565       14.032        0.012      327.201       -7.473      858.991
12/05/2013  19:33:00      -92.196      -24.381       -0.559       51.829       43.567       22.676     2686.239     1898.082      514.198        0.710        0.255       95.365       27.398        0.083      327.132       -7.585      858.996
12/05/2013  19:34:00     -147.641       -4.668       -9.678       36.287       36.463       26.113     1316.742     1329.536      681.893        1.262        0.166      147.715       22.540        0.023      327.045       -7.726      859.000
12/05/2013  19:35:00     -127.722      -20.432      -13.777       59.340       41.811       21.881     3521.182     1748.200      478.782        1.133        0.287      129.345       24.794        0.037      327.031       -7.748      858.998
12/05/2013  19:36:00     -141.581       -0.184      -10.509       51.708       43.047       28.368     2673.752     1853.031      804.767        1.274        0.267      141.581       25.185        0.032      326.932       -7.909      859.019
12/05/2013  19:37:00     -158.476      -28.703      -19.393       27.577       30.885       20.103      760.470      953.892      404.124        1.422        0.106      161.054       10.528        0.004      327.007       -7.786      859.033
12/05/2013  19:38:00     -136.852      -83.024       -6.574       24.765       30.377       21.844      613.289      922.792      477.157        1.384        0.101      160.067       14.526        0.008      326.971       -7.844      859.049
12/05/2013  19:39:00      -56.536      -38.339       -9.148       46.595       28.393       30.680     2171.076      806.179      941.285        0.433        0.196       68.310       20.007        0.086      327.075       -7.676      859.051
12/05/2013  19:40:00        0.301       -1.078        6.129       33.151       24.626       25.694     1098.962      606.423      660.166        0.120        0.118        1.119       14.353      164.405      327.120       -7.603      859.047
12/05/2013  19:41:00      -59.707      -15.825        4.960       53.325       28.981       24.691     2843.579      839.902      609.623        0.407        0.215       61.768       28.839        0.218      327.070       -7.686      859.048
12/05/2013  19:42:00      -78.506      -27.020       -8.954       32.048       26.028       20.125     1027.084      677.439      404.998        0.454        0.105       83.026        7.470        0.008      327.098       -7.639      859.055
12/05/2013  19:43:00      -75.837      -17.846      -17.847       28.403       22.763       14.900      806.721      518.151      222.019        0.397        0.077       77.908       13.322        0.029      327.038       -7.736      859.073
12/05/2013  19:44:00      -87.889      -25.162      -13.714       22.614       19.263       18.697      511.403      371.056      349.569        0.489        0.062       91.420       12.213        0.018      327.072       -7.682      859.085
12/05/2013  19:45:00      -75.755      -35.602      -15.665       35.483       20.556       16.601     1259.039      422.560      275.597        0.460        0.098       83.704        8.414        0.010      327.132       -7.583      859.097
12/05/2013  19:46:00      -84.508      -41.412      -10.745       47.947       21.134       22.519     2298.960      446.640      507.118        0.611        0.163       94.110       22.846        0.059      327.120       -7.604      859.107
12/05/2013  19:47:00      -92.015        1.258      -12.204       44.762       19.547       28.406     2003.604      382.101      806.902        0.590        0.160       92.024       29.220        0.101      326.974       -7.839      859.111
12/05/2013  19:48:00      -91.077       -2.971       -2.884       18.981       25.460       10.807      360.262      648.189      116.793        0.472        0.056       91.125        4.321        0.002      327.047       -7.723      859.117
12/05/2013  19:49:00      -77.559      -37.366      -16.315       26.546       22.982       16.001      704.670      528.182      256.039        0.458        0.074       86.091       11.239        0.017      327.139       -7.573      859.117
12/05/2013  19:50:00      -22.768      -10.092       14.822       30.595       26.315       18.258      936.049      692.469      333.345        0.140        0.098       24.904       16.437        0.436      327.087       -7.658      859.116
12/05/2013  19:51:00       -6.915       -5.834       21.709       17.924       12.671       10.085      321.277      160.555      101.713        0.057        0.029        9.047        6.002        0.440      327.137       -7.576      859.117
12/05/2013  19:52:00      -40.826      -23.520        0.010       29.421       21.481       19.019      865.601      461.412      361.740        0.195        0.084       47.116       14.980        0.101      327.132       -7.586      859.121
12/05/2013  19:53:00      -97.977      -29.817       -7.454       20.643       32.176       14.275      426.134     1035.299      203.771        0.610        0.083      102.414        9.244        0.008      327.127       -7.592      859.131
12/05/2013  19:54:00      -97.162      -13.131      -14.441       13.866       18.781       11.823      192.276      352.740      139.791        0.525        0.034       98.045        7.976        0.007      327.120       -7.604      859.135
12/05/2013  19:55:00      -98.124      -22.756      -13.252       19.919       23.279       12.339      396.773      541.900      152.247        0.571        0.055      100.728        7.473        0.006      327.127       -7.592      859.135
12/05/2013  19:56:00     -114.404      -11.000      -15.554       15.963       15.333       12.786      254.802      235.099      163.493        0.705        0.033      114.932        9.197        0.006      327.056       -7.707      859.129
12/05/2013  19:57:00      -88.231      -20.830       -4.410       18.814       19.994       14.431      353.982      399.743      208.247        0.460        0.048       90.657        7.070        0.006      327.174       -7.516      859.131
12/05/2013  19:58:00     -121.065      -22.894       -9.733       24.583       24.069       19.870      604.326      579.307      394.824        0.843        0.079      123.211       14.048        0.013      327.082       -7.666      859.142
12/05/2013  19:59:00     -127.296      -12.199      -14.013       27.930       32.872       16.589      780.061     1080.591      275.191        0.934        0.107      127.879       13.364        0.011      327.052       -7.715      859.162
12/05/2013  20:00:00     -125.306       -7.052      -18.116       20.625       21.999       16.835      425.410      483.955      283.421        0.864        0.060      125.504       10.789        0.007      326.932       -7.908      859.165
12/05/2013  20:01:00      -99.627       -3.082      -13.046       25.306       15.466       17.947      640.407      239.198      322.105        0.565        0.060       99.675       16.450        0.027      326.937       -7.900      859.146
12/05/2013  20:02:00     -100.793       -5.002       -7.086       19.064       16.010       11.944      363.450      256.306      142.647        0.550        0.038      100.917       10.157        0.010      327.001       -7.796      859.130
12/05/2013  20:03:00      -85.504      -17.838       -9.865       15.670       17.387       10.568      245.546      302.299      111.676        0.419        0.033       87.345        7.348        0.007      327.062       -7.697      859.123
12/05/2013  20:04:00     -107.322        1.935       -8.939       20.164       15.787       17.710      406.578      249.229      313.653        0.629        0.048      107.340       13.307        0.015      327.041       -7.733      859.134
12/05/2013  20:05:00     -111.650        7.891       -7.520       36.495       20.740       23.161     1331.916      430.166      536.415        0.744        0.115      111.928       23.108        0.043      327.009       -7.785      859.143
12/05/2013  20:06:00     -124.671        0.762      -12.703       32.409       25.823       21.204     1050.373      666.832      449.591        0.894        0.108      124.673       19.924        0.026      326.893       -7.970      859.152
12/05/2013  20:07:00     -138.627        4.495      -12.879       25.251       16.974       15.234      637.610      288.126      232.062        1.028        0.058      138.700       12.497        0.008      326.797       -8.128      859.162
12/05/2013  20:08:00      -93.581       -2.999      -11.744       27.202       21.269       14.467      739.964      452.354      209.281        0.515        0.070       93.629       11.818        0.016      326.901       -7.958      859.174
12/05/2013  20:09:00     -110.650       -7.407      -15.299       17.876       14.544       11.974      319.556      211.538      143.387        0.660        0.034      110.898        6.729        0.004      326.930       -7.912      859.181
12/05/2013  20:10:00      -80.075       -8.677      -10.282       19.315       10.583       11.687      373.051      111.991      136.592        0.361        0.031       80.544       10.145        0.016      326.994       -7.807      859.186
12/05/2013  20:11:00      -77.673      -13.816       -2.686       20.353       16.869       12.027      414.227      284.569      144.648        0.354        0.042       78.892       11.783        0.022      327.034       -7.743      859.184
12/05/2013  20:12:00      -82.273       -3.378       -5.463       19.512       18.871       14.110      380.701      356.121      199.100        0.387        0.047       82.342        6.195        0.006      327.014       -7.776      859.201
12/05/2013  20:13:00     -127.456       -0.573      -13.476       30.131       18.392       20.654      907.907      338.265      426.598        0.905        0.084      127.457       18.251        0.021      326.891       -7.975      859.209
12/05/2013  20:14:00     -120.832      -10.323       -7.552       34.848       30.854       21.234     1214.373      951.974      450.871        0.869        0.131      121.273       19.371        0.026      326.817       -8.095      859.202
12/05/2013  20:15:00      -81.992       -3.549        3.717       30.590       26.206       20.984      935.763      686.753      440.332        0.441        0.103       82.069       15.582        0.036      326.783       -8.150      859.188
12/05/2013  20:16:00      -97.581       -5.208       -7.314       21.666       24.787       15.310      469.403      614.380      234.395        0.546        0.066       97.720        7.180        0.005      326.806       -8.113      859.179
12/05/2013  20:17:00      -36.408      -35.506       -4.190       27.921       17.387       13.738      779.596      302.292      188.741        0.194        0.064       50.855        9.352        0.034      326.963       -7.858      859.175
12/05/2013  20:18:00      -52.409      -15.231       -4.236       21.750       23.487       10.750      473.045      551.651      115.568        0.207        0.057       54.577       10.924        0.040      326.932       -7.908      859.174
12/05/2013  20:19:00      -65.086      -22.496      -11.853       19.528       25.776        9.139      381.345      664.425       83.530        0.301        0.056       68.864        8.204        0.014      326.970       -7.846      859.184
12/05/2013  20:20:00      -37.314      -11.681       -4.603       20.983       18.358       10.971      440.274      337.009      120.359        0.122        0.045       39.100        8.986        0.053      327.043       -7.729      859.206
12/05/2013  20:21:00      -78.361       -7.343       -7.730       14.609       13.898       10.012      213.435      193.163      100.249        0.338        0.025       78.704        6.427        0.007      326.955       -7.871      859.224
12/05/2013  20:22:00      -98.600       -0.959      -11.304       21.254       15.467       16.882      451.721      239.236      284.997        0.541        0.049       98.604       10.808        0.012      326.897       -7.965      859.233
12/05/2013  20:23:00     -101.801       -4.198       -9.354       26.463       15.948       18.912      700.303      254.353      357.654        0.589        0.066      101.888       16.522        0.026      326.821       -8.090      859.223
12/05/2013  20:24:00      -78.619       -5.667       -5.607       21.139       20.375       14.902      446.838      415.159      222.072        0.366        0.054       78.823       11.763        0.022      326.811       -8.104      859.215
12/05/2013  20:25:00      -64.101       -5.932       -9.232       17.362       13.203       12.562      301.425      174.324      157.797        0.243        0.032       64.375       11.061        0.030      326.836       -8.065      859.213
12/05/2013  20:26:00      -52.648       -9.989       -8.388       16.742        9.165        7.963      280.300       84.004       63.406        0.168        0.021       53.588        5.817        0.012      326.886       -7.985      859.219
12/05/2013  20:27:00      -38.279      -15.678       -7.487        9.921        6.850        7.098       98.424       46.922       50.380        0.098        0.010       41.365        4.335        0.011      327.057       -7.707      859.217
12/05/2013  20:28:00      -55.763      -17.740       -9.333        9.857        8.264        9.559       97.168       68.296       91.378        0.188        0.013       58.517        4.154        0.005      326.907       -7.949      859.216
12/05/2013  20:29:00      -90.004      -12.259       -9.946       10.217       12.191       10.375      104.394      148.632      107.633        0.436        0.018       90.835        4.912        0.003      326.854       -8.035      859.210
12/05/2013  20:30:00      -79.250      -20.794       -8.267       19.741       16.364       10.471      389.716      267.785      109.649        0.377        0.038       81.932        5.030        0.004      326.844       -8.052      859.204
12/05/2013  20:31:00      -57.913      -18.119       -6.330       23.817       22.273       12.317      567.240      496.072      151.697        0.247        0.061       60.681       10.473        0.030      326.942       -7.893      859.201
12/05/2013  20:32:00      -63.281       -9.623       -2.404       15.736       17.563       10.472      247.632      308.451      109.665        0.238        0.033       64.008        5.893        0.008      327.011       -7.780      859.202
12/05/2013  20:33:00      -76.544        0.126      -11.575        9.741        8.218       10.050       94.895       67.531      101.004        0.313        0.013       76.544        6.328        0.007      326.910       -7.944      859.201
12/05/2013  20:34:00      -51.897       -4.110       -6.507       13.145        7.047       10.134      172.785       49.661      102.705        0.154        0.016       52.059        8.757        0.028      326.999       -7.800      859.193
12/05/2013  20:35:00      -38.030       -8.231       -8.725       13.624        5.567        5.155      185.620       30.991       26.570        0.092        0.012       38.910        2.413        0.004      327.026       -7.757      859.191
12/05/2013  20:36:00      -30.358       -5.976      -12.623        9.848        8.989        6.868       96.984       80.795       47.175        0.067        0.011       30.941        4.567        0.022      327.113       -7.614      859.187
12/05/2013  20:37:00      -68.340      -10.643      -14.100       16.595        8.761        8.023      275.380       76.751       64.373        0.270        0.021       69.163        3.078        0.002      326.963       -7.860      859.187
12/05/2013  20:38:00      -84.667       -6.782      -15.970       17.011       12.902       11.431      289.373      166.472      130.668        0.403        0.029       84.939        7.879        0.009      326.812       -8.103      859.196
12/05/2013  20:39:00      -83.798       -7.561      -11.860       15.613       16.663       11.129      243.755      277.665      123.866        0.393        0.032       84.138        8.966        0.011      326.757       -8.192      859.202
12/05/2013  20:40:00      -76.141       -3.669       -9.065       14.702       11.173       10.433      216.146      124.826      108.842        0.317        0.022       76.229        6.548        0.007      326.824       -8.084      859.197
12/05/2013  20:41:00      -57.205      -13.266       -8.352       13.178       10.893        9.137      173.663      118.655       83.487        0.195        0.019       58.723        5.883        0.010      326.871       -8.008      859.194
12/05/2013  20:42:00      -53.486      -17.273      -10.529       12.170       12.610        8.691      148.118      159.006       75.537        0.183        0.019       56.206        7.232        0.017      326.868       -8.012      859.194
12/05/2013  20:43:00      -43.581       -7.340       -8.710       12.093       11.237        8.877      146.233      126.265       78.799        0.119        0.018       44.195        6.547        0.022      326.971       -7.845      859.186
12/05/2013  20:44:00      -65.774      -12.659      -12.005        9.302        8.859        7.733       86.530       78.487       59.802        0.243        0.011       66.982        2.506        0.001      327.034       -7.744      859.176
12/05/2013  20:45:00     -102.836       -9.698      -16.419       26.631       13.943       13.923      709.194      194.397      193.843        0.602        0.055      103.292        9.464        0.008      326.837       -8.062      859.175
12/05/2013  20:46:00     -125.141       -6.014      -19.229       18.905       13.583       12.972      357.385      184.506      168.267        0.839        0.036      125.285        5.174        0.002      326.618       -8.417      859.184
12/05/2013  20:47:00      -81.655       -0.646      -15.269       28.370        9.871       12.251      804.834       97.439      150.094        0.398        0.053       81.658       11.914        0.021      326.673       -8.328      859.183
12/05/2013  20:48:00      -50.913       -4.671       -1.335       11.636       11.848       11.827      135.403      140.387      139.868        0.152        0.021       51.127        5.428        0.011      326.829       -8.076      859.184
12/05/2013  20:49:00      -57.670       -1.780      -11.609        7.906        5.111        7.305       62.505       26.118       53.367        0.180        0.007       57.698        4.495        0.006      326.873       -8.004      859.186
12/05/2013  20:50:00      -51.088      -20.535       -8.199       12.463       15.445        9.243      155.338      238.557       85.432        0.179        0.024       55.060        6.916        0.016      327.039       -7.734      859.187
12/05/2013  20:51:00      -64.164      -27.434       -6.874       15.896       10.910       13.253      252.680      119.025      175.652        0.273        0.027       69.783        8.100        0.013      327.008       -7.785      859.198
12/05/2013  20:52:00      -82.288      -12.272       -9.459       13.946       17.984       13.322      194.501      323.421      177.478        0.385        0.035       83.198        6.170        0.005      326.923       -7.923      859.213
12/05/2013  20:53:00     -145.775      -15.989      -20.661       23.186       22.044       14.433      537.594      485.932      208.314        1.158        0.062      146.650        9.814        0.004      326.632       -8.396      859.214
12/05/2013  20:54:00     -124.147       -9.620      -15.206       31.842       22.903       20.259     1013.890      524.542      410.446        0.884        0.097      124.519       19.636        0.025      326.677       -8.323      859.212
12/05/2013  20:55:00     -134.111        6.575      -13.715       22.734       18.721       18.512      516.844      350.480      342.681        0.971        0.061      134.272        9.972        0.006      326.605       -8.440      859.202
12/05/2013  20:56:00     -113.935      -35.040       -7.507       29.078       34.218       18.155      845.530     1170.845      329.598        0.831        0.117      119.201       14.177        0.014      326.746       -8.210      859.188
12/05/2013  20:57:00     -134.087      -40.552      -12.477       41.214       30.900       21.071     1698.630      954.821      443.969        1.144        0.155      140.085       24.765        0.031      326.659       -8.351      859.195
12/05/2013  20:58:00     -104.429      -33.439       -6.452       30.431       27.653       18.322      926.053      764.712      335.678        0.705        0.101      109.652       17.132        0.024      326.752       -8.200      859.199
12/05/2013  20:59:00      -72.049      -52.382       -6.339       36.547       24.413       15.391     1335.704      596.015      236.882        0.507        0.108       89.079       12.883        0.021      326.705       -8.277      859.205
12/05/2013  21:00:00      -29.368       -4.646       -1.793       23.419       17.007       18.870      548.451      289.237      356.072        0.104        0.060       29.733       17.737        0.356      326.755       -8.194      859.201
12/05/2013  21:01:00      -84.064       -3.212      -10.355       19.897       15.432       12.573      395.898      238.157      158.081        0.399        0.040       84.125        8.305        0.010      326.709       -8.272      859.198
12/05/2013  21:02:00     -117.034      -14.870      -12.957       23.869       14.001       13.328      569.724      196.014      177.633        0.751        0.047      117.975       11.231        0.009      326.665       -8.341      859.205
12/05/2013  21:03:00     -159.591        2.095      -16.134       31.066       26.683       18.968      965.115      711.958      359.791        1.389        0.102      159.605       14.021        0.008      326.555       -8.520      859.213
12/05/2013  21:04:00      -98.522      -19.281       -4.391       45.520       37.311       22.863     2072.102     1392.112      522.725        0.704        0.199      100.390       23.797        0.056      326.518       -8.579      859.219
12/05/2013  21:05:00     -109.766      -20.589      -11.026       29.459       27.023       16.978      867.849      730.262      288.269        0.724        0.094      111.681        6.099        0.003      326.573       -8.492      859.217
12/05/2013  21:06:00     -100.438       -3.980      -11.160       25.159       13.864       15.382      632.956      192.224      236.616        0.564        0.053      100.517        9.808        0.010      326.576       -8.486      859.213
12/05/2013  21:07:00     -113.588      -20.733      -10.740       24.646       19.168       15.000      607.440      367.423      225.004        0.732        0.060      115.465       11.122        0.009      326.593       -8.459      859.210
12/05/2013  21:08:00     -166.687       -4.291      -23.901       27.923       21.126       20.340      779.693      446.287      413.711        1.501        0.082      166.742       12.579        0.006      326.524       -8.569      859.217
12/05/2013  21:09:00     -156.522       -0.599      -13.566       41.305       33.220       25.778     1706.134     1103.564      664.497        1.408        0.174      156.523       21.598        0.019      326.408       -8.759      859.241
12/05/2013  21:10:00      -48.449       -7.391        2.070       36.660       32.809       22.854     1343.931     1076.453      522.305        0.267        0.147       49.009       22.700        0.215      326.423       -8.735      859.236
12/05/2013  21:11:00     -102.513      -12.837      -13.872       23.554       15.220       15.775      554.784      231.638      248.836        0.595        0.052      103.314       12.135        0.014      326.422       -8.736      859.236
12/05/2013  21:12:00      -94.540      -22.493      -14.176       26.919       19.561       14.654      724.620      382.628      214.726        0.548        0.066       97.179       11.444        0.014      326.552       -8.525      859.237
12/05/2013  21:13:00     -106.176      -13.248       -7.906       45.944       38.571       28.513     2110.885     1487.757      812.988        0.796        0.221      107.000       19.632        0.034      326.487       -8.630      859.251
12/05/2013  21:14:00      -59.549       -0.996        7.682       38.602       46.151       23.251     1490.126     2129.938      540.605        0.388        0.208       59.558       18.939        0.101      326.400       -8.770      859.278
12/05/2013  21:15:00      -65.650      -10.759      -12.167       40.893       39.876       19.456     1672.272     1590.111      378.529        0.411        0.182       66.526       16.112        0.059      326.391       -8.785      859.288
12/05/2013  21:16:00      -60.105      -24.835       -6.588       27.985       19.283       15.421      783.164      371.844      237.820        0.283        0.070       65.034        8.494        0.017      326.480       -8.642      859.284
12/05/2013  21:17:00      -33.403      -23.077        3.649       32.642       18.702       17.381     1065.505      349.765      302.108        0.169        0.086       40.600       17.428        0.184      326.640       -8.382      859.273
12/05/2013  21:18:00      -58.940      -31.450       -7.243       31.187       14.137       14.429      972.641      199.856      208.205        0.295        0.069       66.805       16.609        0.062      326.675       -8.326      859.263
12/05/2013  21:19:00      -74.857      -21.352      -10.990       10.240       10.730        7.339      104.851      115.134       53.854        0.323        0.014       77.843        3.584        0.002      326.666       -8.340      859.259
12/05/2013  21:20:00      -95.589      -24.085      -14.793       31.014       18.812       12.804      961.842      353.891      163.946        0.571        0.074       98.576        9.650        0.010      326.648       -8.369      859.254
12/05/2013  21:21:00     -119.586      -11.120       -9.731       69.426       33.826       27.069     4819.919     1144.200      732.707        1.061        0.335      120.102       35.187        0.086      326.521       -8.576      859.263
12/05/2013  21:22:00     -122.423       -8.116       -5.194       63.208       41.231       31.551     3995.271     1699.996      995.497        1.088        0.335      122.692       31.667        0.067      326.318       -8.904      859.284
12/05/2013  21:23:00     -105.969      -30.711       -2.184       36.177       26.570       19.239     1308.803      705.974      370.125        0.728        0.119      110.329       16.261        0.022      326.371       -8.819      859.300
12/05/2013  21:24:00      -32.082      -14.007       -6.825       44.732       23.694       15.232     2000.908      561.387      232.025        0.203        0.140       35.006       11.888        0.115      326.542       -8.541      859.303
12/05/2013  21:25:00      -58.152      -35.285       -1.702       49.322       34.861       21.072     2432.682     1215.322      444.032        0.436        0.205       68.020       26.276        0.149      326.528       -8.564      859.299
12/05/2013  21:26:00     -162.965      -41.755      -18.549       40.549       37.610       20.482     1644.181     1414.508      419.519        1.606        0.174      168.230       14.284        0.007      326.561       -8.510      859.313
12/05/2013  21:27:00     -100.098      -29.311      -12.609       40.070       33.924       21.643     1605.580     1150.870      468.431        0.713        0.161      104.302       13.064        0.016      326.540       -8.545      859.325
12/05/2013  21:28:00      -15.739      -27.370       -5.376       32.452       25.244       20.950     1053.149      637.282      438.892        0.158        0.106       31.572       14.050        0.198      326.593       -8.458      859.302
12/05/2013  21:29:00      -45.806      -19.039       -7.434       28.507       15.695       11.935      812.644      246.333      142.454        0.186        0.060       49.605       10.004        0.041      326.670       -8.333      859.285
12/05/2013  21:30:00     -111.488      -36.069      -16.301       19.747       15.060        9.116      389.958      226.795       83.106        0.735        0.035      117.177        5.951        0.003      326.624       -8.408      859.282
12/05/2013  21:31:00     -135.670      -32.013      -12.330       39.008       39.359       26.387     1521.592     1549.145      696.295        1.167        0.188      139.395       19.973        0.021      326.546       -8.533      859.279
12/05/2013  21:32:00     -150.846       -0.347      -15.721       74.648       44.139       27.172     5572.331     1948.233      738.311        1.563        0.413      150.847       27.772        0.034      326.389       -8.789      859.264
12/05/2013  21:33:00     -112.197       -4.903       -8.410       26.620       39.027       18.999      708.619     1523.130      360.945        0.764        0.130      112.304       16.447        0.021      326.435       -8.715      859.232
12/05/2013  21:34:00      -89.609      -40.832      -11.070       26.723       17.919       17.367      714.099      321.088      301.603        0.558        0.067       98.473        6.838        0.005      326.508       -8.596      859.213
12/05/2013  21:35:00     -117.581      -41.700      -14.363       22.273       21.089       13.046      496.097      444.762      170.202        0.844        0.056      124.756        7.011        0.003      326.507       -8.598      859.213
12/05/2013  21:36:00      -89.607      -44.716      -10.743       26.291       20.786       15.225      691.240      432.075      231.794        0.575        0.068      100.144        6.463        0.004      326.516       -8.585      859.216
12/05/2013  21:37:00      -36.570      -32.510       -7.613       18.685       16.049       13.142      349.137      257.555      172.700        0.162        0.039       48.931        6.792        0.019      326.634       -8.392      859.227
12/05/2013  21:38:00      -40.665        0.399       -8.210        8.147        9.223       10.215       66.378       85.068      104.338        0.099        0.013       40.667        5.594        0.019      326.736       -8.228      859.232
12/05/2013  21:39:00      -55.019       -9.692       -7.587       20.508       12.989       11.705      420.577      168.725      136.997        0.195        0.036       55.866        6.469        0.013      326.771       -8.171      859.238
12/05/2013  21:40:00     -149.418       -5.324      -14.308       50.177       28.265       22.995     2517.762      798.899      528.778        1.320        0.192      149.512       26.249        0.031      326.474       -8.652      859.250
12/05/2013  21:41:00     -123.632      -37.617       -6.031       52.931       51.515       26.561     2801.703     2653.806      705.500        1.145        0.308      129.228       23.458        0.033      326.447       -8.695      859.260
12/05/2013  21:42:00     -163.394      -54.266       -9.604       39.976       35.914       25.771     1598.119     1289.816      664.163        1.664        0.178      172.169       19.661        0.013      326.467       -8.662      859.266
12/05/2013  21:43:00     -137.865      -39.848       -7.952       21.355       26.973       14.874      456.031      727.547      221.250        1.103        0.070      143.508       11.726        0.007      326.501       -8.606      859.276
12/05/2013  21:44:00     -104.303      -33.726      -12.155       27.289       33.501       17.155      744.700     1122.313      294.294        0.716        0.108      109.620       17.440        0.025      326.511       -8.591      859.281
12/05/2013  21:45:00     -108.515       -9.171      -13.199       38.706       43.450       23.748     1498.142     1887.889      563.970        0.799        0.198      108.901       19.145        0.031      326.393       -8.783      859.283
12/05/2013  21:46:00     -112.617       -2.689       -4.091       66.999       43.595       30.583     4488.910     1900.566      935.319        1.001        0.366      112.649       37.946        0.113      326.245       -9.022      859.296
12/05/2013  21:47:00      -92.259      -31.424       -3.036       27.581       42.554       21.798      760.687     1810.839      475.144        0.628        0.152       97.464       11.060        0.013      326.289       -8.950      859.310
12/05/2013  21:48:00     -102.633      -31.898       -8.056       44.077       35.207       18.767     1942.791     1239.528      352.202        0.757        0.177      107.476       19.487        0.033      326.344       -8.861      859.321
12/05/2013  21:49:00      -95.454      -13.524       -6.226       31.289       29.292       17.617      978.985      858.041      310.364        0.574        0.107       96.408       11.024        0.013      326.390       -8.788      859.326
12/05/2013  21:50:00      -95.691      -23.094      -12.485       18.400       18.450       15.016      338.570      340.390      225.491        0.538        0.045       98.438        8.376        0.007      326.458       -8.676      859.335
12/05/2013  21:51:00      -71.685      -10.998      -12.020       15.606       15.382       11.654      243.554      236.611      135.819        0.301        0.031       72.523        4.482        0.004      326.448       -8.694      859.344
12/05/2013  21:52:00      -44.742      -22.507       -7.203       16.046       13.850       10.911      257.465      191.832      119.041        0.156        0.028       50.084        7.382        0.022      326.544       -8.538      859.347
12/05/2013  21:53:00     -109.738       -4.198       -9.704       27.924       23.629       17.862      779.731      558.310      319.035        0.691        0.083      109.818       13.705        0.016      326.404       -8.766      859.339
12/05/2013  21:54:00     -119.698      -13.256      -12.437       26.445       26.870       17.039      699.349      722.017      290.333        0.818        0.086      120.429       12.506        0.011      326.308       -8.920      859.335
12/05/2013  21:55:00     -147.148       -8.079      -12.471       30.661       19.998       22.627      940.086      399.911      511.984        1.186        0.093      147.370       17.371        0.014      326.262       -8.994      859.334
12/05/2013  21:56:00     -119.784       -8.720      -15.924       34.757       21.594       11.821     1208.042      466.307      139.724        0.825        0.091      120.101        8.839        0.005      326.262       -8.994      859.344
12/05/2013  21:57:00      -50.575      -14.724      -13.230       16.444       13.677       10.994      270.420      187.059      120.865        0.176        0.029       52.675        2.401        0.002      326.335       -8.876      859.345
12/05/2013  21:58:00      -41.048      -25.246      -12.047       15.293       12.664       12.062      233.864      160.371      145.482        0.150        0.027       48.191        6.805        0.020      326.459       -8.677      859.345
12/05/2013  21:59:00      -46.660      -24.130       -3.956       11.754       22.543        9.015      138.154      508.187       81.273        0.175        0.036       52.531        8.500        0.026      326.626       -8.405      859.340
12/05/2013  22:00:00      -73.644      -34.966      -14.374       15.969       11.396        9.848      255.006      129.868       96.989        0.367        0.024       81.524        5.839        0.005      326.560       -8.510      859.331
12/05/2013  22:01:00     -105.858      -16.588       -8.468       27.676       29.386       18.141      765.970      863.553      329.108        0.676        0.098      107.150       11.172        0.011      326.516       -8.583      859.324
12/05/2013  22:02:00     -114.890       -2.904      -18.113       19.466       18.175       13.018      378.919      330.313      169.456        0.721        0.044      114.927        8.729        0.006      326.355       -8.843      859.318
12/05/2013  22:03:00     -109.682      -16.788      -10.304       21.644       18.916       14.102      468.466      357.815      198.866        0.672        0.051      110.960       10.014        0.008      326.405       -8.763      859.304
12/05/2013  22:04:00      -99.668      -17.554      -12.301       20.815       26.780       15.453      433.250      717.150      238.804        0.589        0.069      101.202        8.852        0.008      326.444       -8.699      859.293
12/05/2013  22:05:00      -97.817       -7.507       -6.214       32.490       14.760       18.764     1055.619      217.850      352.102        0.564        0.081       98.105       19.521        0.040      326.418       -8.742      859.280
12/05/2013  22:06:00      -32.405      -18.083       -8.158       18.126        7.151        7.404      328.537       51.138       54.819        0.094        0.022       37.109        5.835        0.025      326.504       -8.602      859.259
12/05/2013  22:07:00       -9.197      -14.525       -1.148        5.730        9.888        6.435       32.835       97.767       41.409        0.023        0.009       17.192        4.396        0.065      326.710       -8.268      859.250
12/05/2013  22:08:00      -34.734      -16.236       -7.862       25.999        7.568        7.810      675.938       57.278       60.991        0.116        0.040       38.341        7.885        0.042      326.728       -8.240      859.258
12/05/2013  22:09:00      -82.786      -28.260      -10.108       19.144       13.887        8.514      366.501      192.858       72.488        0.419        0.032       87.477        3.796        0.002      326.684       -8.312      859.274
12/05/2013  22:10:00     -114.779      -31.583      -16.869       15.752       13.993       13.582      248.117      195.806      184.476        0.754        0.031      119.045        6.245        0.003      326.539       -8.547      859.283
12/05/2013  22:11:00     -102.223      -34.717      -18.089       16.175       23.894       14.793      261.635      570.926      218.845        0.652        0.053      107.957        7.094        0.004      326.490       -8.626      859.292
12/05/2013  22:12:00     -102.686      -37.602      -12.498       13.833       20.375        7.950      191.353      415.147       63.198        0.639        0.033      109.354        4.229        0.001      326.457       -8.678      859.296
12/05/2013  22:13:00      -70.265      -43.773        2.512       31.770       28.415       17.875     1009.359      807.410      319.530        0.450        0.107       82.784       20.220        0.060      326.527       -8.565      859.302
12/05/2013  22:14:00      -98.196      -60.698      -12.527       13.508       13.181        8.413      182.459      173.751       70.783        0.696        0.021      115.442        6.808        0.003      326.519       -8.577      859.320
12/05/2013  22:15:00      -90.145      -41.560       -7.861       20.866       11.798       14.126      435.401      139.182      199.533        0.534        0.039       99.264        9.154        0.009      326.557       -8.516      859.317
12/05/2013  22:16:00      -38.890      -17.704       -4.606       15.333       10.179        9.219      235.087      103.616       84.996        0.114        0.021       42.730        7.137        0.028      326.660       -8.349      859.306
12/05/2013  22:17:00      -90.632       -3.825      -10.496       22.360        8.378       12.422      499.985       70.191      154.296        0.453        0.036       90.712       13.283        0.021      326.620       -8.417      859.292
12/05/2013  22:18:00     -144.332        3.631      -18.924       38.874       29.031       22.487     1511.189      842.807      505.663        1.203        0.143      144.378       19.463        0.018      326.503       -8.604      859.294
12/05/2013  22:19:00     -155.336       -4.373      -10.593       70.980       35.622       28.618     5038.201     1268.945      818.998        1.569        0.356      155.398       30.644        0.039      326.284       -8.960      859.302
12/05/2013  22:20:00     -137.043       -6.182      -13.064       41.447       27.014       18.185     1717.865      729.740      330.688        1.088        0.139      137.182       17.394        0.016      326.196       -9.102      859.305
12/05/2013  22:21:00     -115.421      -14.631      -12.819       31.417       19.059       16.786      987.039      363.232      281.775        0.767        0.082      116.344       20.584        0.031      326.209       -9.081      859.303
12/05/2013  22:22:00      -71.131      -21.360       -7.950       19.080       16.468       13.691      364.060      271.194      187.436        0.320        0.041       74.269       11.588        0.024      326.328       -8.888      859.296
12/05/2013  22:23:00      -86.230      -10.070      -10.283       13.901       13.270       13.243      193.239      176.101      175.365        0.409        0.027       86.816        7.313        0.007      326.345       -8.860      859.299
12/05/2013  22:24:00     -134.350      -15.538      -16.544       30.360       26.029       17.732      921.742      677.487      314.409        1.024        0.096      135.245       12.639        0.009      326.382       -8.799      859.316
12/05/2013  22:25:00      -92.181      -37.828       -2.394       35.562       35.126       22.702     1264.682     1233.812      515.384        0.647        0.151       99.641       14.196        0.020      326.237       -9.035      859.318
12/05/2013  22:26:00      -69.581      -20.221       -0.176       41.153       32.965       18.430     1693.560     1086.661      339.654        0.418        0.156       72.459       16.868        0.054      326.182       -9.122      859.320
12/05/2013  22:27:00      -86.760      -18.633      -10.160       20.561       19.071        9.353      422.743      363.692       87.486        0.443        0.044       88.738        8.755        0.010      326.193       -9.107      859.326
12/05/2013  22:28:00      -90.249      -44.319      -16.053       19.440       15.202       15.452      377.923      231.106      238.758        0.561        0.042      100.544        9.590        0.009      326.266       -8.988      859.326
12/05/2013  22:29:00      -81.375       -8.542       -9.760       18.859       14.533       10.714      355.652      211.207      114.781        0.374        0.034       81.822        6.810        0.007      326.249       -9.016      859.317
12/05/2013  22:30:00      -67.669      -17.565       -9.728       12.608       10.935        8.171      158.954      119.564       66.761        0.266        0.017       69.911        3.468        0.002      326.261       -8.996      859.294
12/05/2013  22:31:00      -85.882      -23.544      -10.514       14.077       11.118        8.101      198.167      123.610       65.628        0.421        0.019       89.051        5.728        0.004      326.291       -8.946      859.288
12/05/2013  22:32:00      -99.362      -26.116      -12.432       11.219       13.158       10.621      125.860      173.125      112.796        0.556        0.021      102.737        7.093        0.005      326.252       -9.010      859.289
12/05/2013  22:33:00      -80.966      -16.863      -11.903       17.038       17.253       12.092      290.290      297.678      146.220        0.386        0.037       82.703        7.550        0.008      326.279       -8.968      859.283
12/05/2013  22:34:00      -92.414      -23.085      -11.340       13.399       11.460       10.983      179.543      131.333      120.628        0.482        0.022       95.253        6.306        0.004      326.233       -9.041      859.263
12/05/2013  22:35:00     -143.290      -15.894      -11.370       43.887       27.986       22.991     1926.097      783.203      528.576        1.208        0.162      144.169       23.174        0.026      326.179       -9.128      859.264
12/05/2013  22:36:00     -132.895        4.706      -11.565       43.890       33.386       25.035     1926.344     1114.636      626.746        1.074        0.183      132.978       20.792        0.024      326.009       -9.403      859.269
12/05/2013  22:37:00      -52.987        9.710       -7.312       31.161       21.522       14.685      970.978      463.198      215.636        0.230        0.082       53.870        8.545        0.025      325.959       -9.485      859.246
12/05/2013  22:38:00        4.010       14.052        9.501       25.137       14.710       10.135      631.874      216.378      102.724        0.063        0.048       14.613        9.744        0.445      326.446       -8.696      859.228
12/05/2013  22:39:00      -65.822        1.476       -7.419       24.241       23.890       15.396      587.650      570.742      237.030        0.289        0.070       65.839        9.727        0.022      326.378       -8.806      859.262
12/05/2013  22:40:00     -136.042       -1.206       -8.472       44.791       27.222       25.662     2006.263      741.054      658.515        1.099        0.170      136.047       24.793        0.033      326.093       -9.267      859.308
12/05/2013  22:41:00      -75.715      -21.675       -6.649       40.233       37.345       17.636     1618.693     1394.631      311.012        0.478        0.166       78.756       11.399        0.021      326.030       -9.370      859.325
12/05/2013  22:42:00      -27.689      -23.339       -4.030       16.929       13.492       13.368      286.600      182.031      178.698        0.099        0.032       36.213        9.139        0.064      326.142       -9.190      859.325
12/05/2013  22:43:00      -56.983      -21.808       -7.051       11.843       12.352        9.243      140.261      152.576       85.438        0.208        0.019       61.014        6.330        0.011      326.165       -9.152      859.323
12/05/2013  22:44:00      -72.580      -25.068       -8.641       21.400       20.843       12.613      457.948      434.437      159.077        0.351        0.053       76.787        8.879        0.013      326.211       -9.076      859.326
12/05/2013  22:45:00      -45.897      -12.822       -5.708       14.379       18.772       12.303      206.751      352.383      151.369        0.151        0.036       47.654        6.895        0.021      326.222       -9.060      859.325
12/05/2013  22:46:00      -58.540      -20.643       -5.291       18.212       14.194       10.726      331.670      201.469      115.043        0.226        0.032       62.073        7.675        0.015      326.238       -9.034      859.333
12/05/2013  22:47:00      -42.223       -3.029        2.005       22.016       13.401       14.528      484.719      179.593      211.073        0.134        0.044       42.332       13.040        0.095      326.180       -9.127      859.347
12/05/2013  22:48:00      -81.831      -12.243       -8.157       23.925       14.345       14.666      572.403      205.769      215.081        0.395        0.050       82.742       14.769        0.032      326.093       -9.268      859.352
12/05/2013  22:49:00      -82.823      -13.757      -14.543       30.894       26.045       16.847      954.432      678.339      283.832        0.459        0.096       83.958        9.348        0.012      326.064       -9.315      859.349
12/05/2013  22:50:00      -36.451       -5.166       -7.467       24.833       25.251       20.280      616.703      637.632      411.270        0.154        0.083       36.815       19.300        0.275      326.110       -9.242      859.340
12/05/2013  22:51:00      -41.179      -18.263       -5.995       21.320       12.981       13.504      454.527      168.499      182.358        0.144        0.040       45.047       11.393        0.064      326.252       -9.011      859.332
12/05/2013  22:52:00       22.082       -8.422        0.275       14.051       12.958       10.544      197.417      167.920      111.184        0.052        0.024       23.634        7.097        0.090      326.531       -8.560      859.321
12/05/2013  22:53:00        1.586       -4.336        5.131        6.596        7.441        6.287       43.507       55.371       39.527        0.009        0.007        4.616        4.322        0.876      326.488       -8.628      859.310
12/05/2013  22:54:00        0.647       -2.743        4.400       10.277        6.053       10.474      105.619       36.636      109.714        0.014        0.013        2.818        2.024        0.516      326.592       -8.460      859.290
12/05/2013  22:55:00      -22.440       -5.997       -2.363       24.053       28.058       19.287      578.558      787.247      371.993        0.114        0.087       23.228       20.532        0.781      326.760       -8.187      859.280
12/05/2013  22:56:00      -74.038      -18.816      -14.534       11.770       10.751       10.315      138.540      115.576      106.401        0.320        0.018       76.392        5.003        0.004      326.273       -8.976      859.285
12/05/2013  22:57:00      -90.804      -10.624      -14.811       20.036       14.710       12.369      401.445      216.387      152.998        0.467        0.039       91.423        6.245        0.005      326.087       -9.277      859.289
12/05/2013  22:58:00      -92.904      -11.762      -14.398       15.120       17.373       14.315      228.616      301.825      204.915        0.486        0.037       93.645        6.599        0.005      326.096       -9.262      859.288
12/05/2013  22:59:00      -64.213      -22.017       -8.659       26.699       18.804       12.536      712.824      353.587      157.161        0.295        0.061       67.883       13.010        0.037      326.116       -9.231      859.282
12/05/2013  23:00:00      -57.125      -21.214       -9.992       16.985       17.702        8.752      288.477      313.347       76.604        0.225        0.034       60.937        8.391        0.019      326.105       -9.249      859.276
12/05/2013  23:01:00      -68.386       -7.172      -11.286       16.204       11.010        8.510      262.582      121.227       72.426        0.266        0.023       68.761        4.518        0.004      326.137       -9.196      859.277
12/05/2013  23:02:00      -42.856        0.814       -3.804       20.389       10.944       10.877      415.730      119.779      118.306        0.125        0.033       42.863       10.123        0.056      326.194       -9.105      859.274
12/05/2013  23:03:00      -26.010       -4.679       -2.450       11.603        9.444        7.932      134.627       89.197       62.924        0.050        0.014       26.427        5.948        0.051      326.288       -8.953      859.277
12/05/2013  23:04:00       -8.447       -3.712       -2.210       12.919       14.746        5.492      166.890      217.450       30.167        0.025        0.021        9.226        5.223        0.320      326.478       -8.645      859.286
12/05/2013  23:05:00      -71.238       -5.386       -2.097       22.305       10.392       10.345      497.507      107.999      107.009        0.291        0.036       71.441       11.481        0.026      326.271       -8.980      859.299
12/05/2013  23:06:00      -92.740      -25.483      -12.707       13.882       21.084       11.865      192.702      444.556      140.782        0.509        0.039       96.177        3.282        0.001      326.244       -9.024      859.297
12/05/2013  23:07:00      -75.963       -6.082       -7.436       28.954       25.617       14.711      838.305      656.249      216.403        0.379        0.086       76.206       13.065        0.029      326.244       -9.024      859.292
12/05/2013  23:08:00      -21.197      -11.830       -1.289       17.998       28.586       13.616      323.940      817.146      185.405        0.096        0.066       24.275        8.751        0.130      326.271       -8.979      859.271
12/05/2013  23:09:00      -66.925      -19.333       -8.155       34.268       23.764       13.455     1174.291      564.747      181.039        0.342        0.096       69.662       17.224        0.061      326.224       -9.058      859.249
12/05/2013  23:10:00      -67.051      -36.703       -5.061       18.522       23.037       10.998      343.079      530.714      120.953        0.343        0.050       76.440        7.567        0.010      326.248       -9.017      859.239
12/05/2013  23:11:00      -78.786      -40.653       -6.184       40.072       22.241       14.513     1605.779      494.654      210.626        0.510        0.116       88.656       17.177        0.038      326.359       -8.838      859.251
12/05/2013  23:12:00      -79.622      -46.542       -6.952       50.934       23.494       18.767     2594.285      551.966      352.187        0.603        0.175       92.227       22.284        0.058      326.415       -8.746      859.258
12/05/2013  23:13:00     -111.807      -65.015       -7.082       43.257       24.578       22.837     1871.128      604.062      521.516        0.989        0.150      129.336       20.007        0.024      326.420       -8.738      859.264
12/05/2013  23:14:00     -118.950      -30.169       -7.426       34.889       26.732       19.362     1217.242      714.602      374.883        0.871        0.115      122.716       21.099        0.030      326.367       -8.825      859.251
12/05/2013  23:15:00     -111.439      -39.282       -8.756       27.142       25.222       17.909      736.691      636.159      320.725        0.787        0.085      118.160       14.193        0.014      326.315       -8.910      859.232
12/05/2013  23:16:00      -89.443      -29.836      -13.571       36.721       30.580       15.181     1348.458      935.124      230.451        0.579        0.126       94.289       15.622        0.027      326.375       -8.811      859.228
12/05/2013  23:17:00     -157.530        4.051      -13.736       49.544       40.073       32.488     2454.632     1605.862     1055.494        1.507        0.256      157.582       29.505        0.035      326.188       -9.115      859.237
12/05/2013  23:18:00     -115.527        9.883       -4.106       54.552       40.010       28.841     2975.909     1600.788      831.794        0.943        0.270      115.949       29.364        0.064      326.181       -9.126      859.240
12/05/2013  23:19:00     -111.317       -0.458       -8.453       46.530       25.920       27.008     2165.054      671.845      729.422        0.801        0.178      111.318       29.940        0.072      326.072       -9.301      859.226
12/05/2013  23:20:00      -43.039      -30.453       -0.565       50.440       29.283       22.603     2544.228      857.516      510.895        0.335        0.196       52.723       28.527        0.293      326.201       -9.094      859.227
12/05/2013  23:21:00     -128.440      -15.188      -12.845       41.034       23.425       18.141     1683.783      548.734      329.083        0.973        0.128      129.335       16.968        0.017      326.216       -9.070      859.222
12/05/2013  23:22:00     -105.594        6.718      -16.063       22.339       21.322       14.515      499.017      454.634      210.695        0.631        0.058      105.807        9.102        0.007      326.168       -9.146      859.216
12/05/2013  23:23:00     -105.335      -11.495      -14.560       26.186       17.107       16.187      685.726      292.633      262.009        0.634        0.062      105.960       15.954        0.023      326.169       -9.145      859.217
12/05/2013  23:24:00      -38.906      -10.779       -2.127       34.784       17.199       15.893     1209.956      295.811      252.599        0.170        0.088       40.372       10.138        0.063      326.302       -8.930      859.205
12/05/2013  23:25:00      -40.396      -26.550       -3.833       31.379       15.120       10.601      984.670      228.605      112.377        0.184        0.066       48.340        6.522        0.018      326.272       -8.978      859.179
12/05/2013  23:26:00      -82.326      -34.229      -12.452       29.688       18.217       11.449      881.360      331.868      131.071        0.472        0.067       89.158       11.663        0.017      326.304       -8.927      859.158
12/05/2013  23:27:00      -95.740      -39.379      -15.654       13.782       13.548        9.240      189.941      183.552       85.369        0.571        0.023      103.522        6.962        0.005      326.306       -8.924      859.164
12/05/2013  23:28:00      -91.123      -28.418      -10.734       20.420       19.019       12.593      416.961      361.736      158.591        0.508        0.047       95.451        6.986        0.005      326.342       -8.866      859.174
12/05/2013  23:29:00      -79.942      -25.382      -10.362       11.330       11.761        8.897      128.379      138.310       79.150        0.374        0.017       83.875        2.788        0.001      326.343       -8.862      859.180
12/05/2013  23:30:00      -74.096       -8.830       -6.191       19.485       15.224        8.522      379.663      231.782       72.619        0.315        0.034       74.620        7.323        0.010      326.346       -8.857      859.167
12/05/2013  23:31:00     -115.501      -23.191      -15.228       15.684       13.317       12.163      245.981      177.344      147.940        0.734        0.029      117.806        7.159        0.004      326.275       -8.974      859.152
12/05/2013  23:32:00      -78.181      -35.390       -2.399       23.537       18.276       13.480      554.000      334.000      181.701        0.422        0.053       85.818       13.151        0.023      326.187       -9.115      859.127
12/05/2013  23:33:00      -72.133       -7.620      -16.407        9.669       11.870       12.708       93.488      140.889      161.486        0.296        0.020       72.534        8.682        0.014      326.160       -9.159      859.091
12/05/2013  23:34:00      -84.007      -15.256       -4.516       19.004       13.973       10.542      361.146      195.245      111.130        0.399        0.033       85.381        6.432        0.006      326.256       -9.004      859.080
12/05/2013  23:35:00      -71.415      -23.191       -6.356       12.608       13.619        9.187      158.963      185.464       84.393        0.305        0.021       75.086        5.212        0.005      326.255       -9.006      859.080
12/05/2013  23:36:00      -66.635       -6.814       -8.561       16.527       14.511       13.980      273.127      210.558      195.433        0.262        0.034       66.983        9.160        0.019      326.246       -9.021      859.076
12/05/2013  23:37:00      -65.405        1.535      -11.365       15.336       10.749       10.506      235.189      115.531      110.381        0.244        0.023       65.423        8.354        0.016      326.263       -8.994      859.074
12/05/2013  23:38:00      -22.264       -3.777       -8.331       18.500        6.543        8.760      342.247       42.805       76.730        0.052        0.023       22.582        8.539        0.143      326.277       -8.971      859.066
12/05/2013  23:39:00      -38.580       -7.060       -5.563       20.476        7.678        8.118      419.258       58.951       65.900        0.106        0.027       39.220        9.365        0.057      326.277       -8.970      859.058
12/05/2013  23:40:00      -64.519       -7.117       -8.389       14.782       10.418        8.147      218.498      108.531       66.376        0.234        0.020       64.910        1.863        0.001      326.271       -8.980      859.046
12/05/2013  23:41:00      -74.207      -10.316       -7.898       15.571       12.436        9.429      242.441      154.664       88.914        0.308        0.024       74.921        8.260        0.012      326.327       -8.890      859.041
12/05/2013  23:42:00      -58.348      -31.162       -7.658       31.344        9.630       12.751      982.432       92.730      162.577        0.284        0.062       66.148       14.330        0.047      326.227       -9.050      859.048
12/05/2013  23:43:00      -24.409      -19.527       -6.794       11.714       12.156        7.980      137.210      147.758       63.687        0.069        0.017       31.259        4.945        0.025      326.197       -9.099      859.024
12/05/2013  23:44:00      -14.348        4.499       -2.583        8.688        8.298       12.128       75.480       68.852      147.090        0.026        0.015       15.037        4.622        0.094      326.233       -9.041      858.967
12/05/2013  23:45:00        6.143       -4.020       -1.218        6.641       11.819        6.096       44.105      139.683       37.158        0.014        0.011        7.342        5.821        0.629      326.416       -8.746      858.940
12/05/2013  23:46:00       -8.516      -12.923       -0.693        5.898        8.818        7.654       34.783       77.760       58.587        0.021        0.009       15.477        6.207        0.161      326.542       -8.541      858.951
12/05/2013  23:47:00      -65.037      -31.452       -8.432       26.397       18.047       12.665      696.799      325.686      160.393        0.324        0.059       72.243        9.985        0.019      326.399       -8.774      858.976
12/05/2013  23:48:00      -56.919      -34.747        0.371       23.769       22.395       20.448      564.948      501.551      418.112        0.297        0.074       66.686       16.659        0.062      326.141       -9.192      858.988
12/05/2013  23:49:00      -59.227       -9.588       -8.579       14.363       18.811        8.830      206.284      353.856       77.967        0.216        0.032       59.998        4.799        0.006      326.129       -9.210      858.963
12/05/2013  23:50:00      -54.392        8.873       -7.884       13.158       17.417        8.670      173.146      303.359       75.176        0.183        0.028       55.111        6.723        0.015      326.133       -9.203      858.941
12/05/2013  23:51:00      -57.757        0.751       -7.694       20.165       11.897        8.992      406.624      141.544       80.855        0.201        0.031       57.762        4.737        0.007      326.196       -9.101      858.939
12/05/2013  23:52:00      -38.679       -1.434       -8.253       19.353       10.606       10.848      374.541      112.480      117.680        0.109        0.030       38.706        9.422        0.059      326.318       -8.904      858.948
12/05/2013  23:53:00      -32.742      -11.345       -3.843        7.256       10.920        7.678       52.653      119.252       58.945        0.072        0.012       34.652        5.700        0.027      326.361       -8.836      858.930
12/05/2013  23:54:00      -11.934        6.271       -3.210       11.107       11.008        7.285      123.363      121.176       53.072        0.024        0.015       13.481        5.803        0.185      326.422       -8.735      858.906
12/05/2013  23:55:00       -9.096        9.347        3.331        7.502        7.770        6.787       56.280       60.372       46.068        0.017        0.008       13.042        4.199        0.104      326.374       -8.814      858.883
12/05/2013  23:56:00      -22.346        2.186       -0.081       17.280        8.203        6.362      298.609       67.285       40.477        0.046        0.020       22.453        8.287        0.136      326.424       -8.732      858.879
12/05/2013  23:57:00      -52.121       -4.626       -7.611       21.272       13.600       10.334      452.487      184.949      106.783        0.177        0.037       52.325        5.398        0.011      326.303       -8.927      858.900
12/05/2013  23:58:00      -90.270       -1.457       -8.711       51.178       30.709       25.284     2619.215      943.033      639.287        0.621        0.210       90.281       29.031        0.103      326.090       -9.273      858.915
12/05/2013  23:59:00     -100.338      -13.919       -7.372       30.478       29.100       18.345      928.908      846.801      336.530        0.621        0.106      101.299       13.139        0.017      326.172       -9.141      858.909
